<?xml version='1.0' encoding='UTF-8'?><gpx version="1.1" creator="JPX - https://github.com/jenetics/jpx" xmlns="http://www.topografix.com/GPX/1/1"><trk><trkseg><trkpt lat="44.60962897995918" lon="7.388019918491634"><ele>931.1666666666667</ele><time>2026-05-01T13:09:03.005Z</time></trkpt><trkpt lat="44.609604558148014" lon="7.387929695051472"><ele>930.3333333333334</ele><time>2026-05-01T13:09:24.001Z</time></trkpt><trkpt lat="44.60955411725123" lon="7.387865927520896"><ele>929.5</ele><time>2026-05-01T13:09:30.001Z</time></trkpt><trkpt lat="44.60950821919958" lon="7.3877264842009245"><ele>928.6666666666667</ele><time>2026-05-01T13:09:35Z</time></trkpt><trkpt lat="44.609462042217395" lon="7.387607511105232"><ele>927.8333333333334</ele><time>2026-05-01T13:09:37Z</time></trkpt><trkpt lat="44.60938682897295" lon="7.3875258060138185"><ele>927.0</ele><time>2026-05-01T13:09:39Z</time></trkpt><trkpt lat="44.60932234053181" lon="7.3874381823025015"><ele>926.25</ele><time>2026-05-01T13:09:41Z</time></trkpt><trkpt lat="44.60921600939895" lon="7.387329188621091"><ele>925.5</ele><time>2026-05-01T13:09:43Z</time></trkpt><trkpt lat="44.60913448134423" lon="7.387220813797583"><ele>924.75</ele><time>2026-05-01T13:09:45Z</time></trkpt><trkpt lat="44.609029661406204" lon="7.387076203279876"><ele>924.0</ele><time>2026-05-01T13:09:47Z</time></trkpt><trkpt lat="44.60899341895345" lon="7.386985569753061"><ele>922.6666666666666</ele><time>2026-05-01T13:09:48Z</time></trkpt><trkpt lat="44.60894634573831" lon="7.386879317238223"><ele>921.3333333333333</ele><time>2026-05-01T13:09:49Z</time></trkpt><trkpt lat="44.60891454613846" lon="7.386780234477235"><ele>920.0</ele><time>2026-05-01T13:09:50Z</time></trkpt><trkpt lat="44.60887806132911" lon="7.386695705324483"><ele>918.6666666666666</ele><time>2026-05-01T13:09:51Z</time></trkpt><trkpt lat="44.60887351524175" lon="7.386592810448769"><ele>917.3333333333333</ele><time>2026-05-01T13:09:52Z</time></trkpt><trkpt lat="44.608815921273234" lon="7.38647109362625"><ele>916.0</ele><time>2026-05-01T13:09:54Z</time></trkpt><trkpt lat="44.60877676346436" lon="7.38634130824022"><ele>917.0</ele><time>2026-05-01T13:09:56Z</time></trkpt><trkpt lat="44.60873788072719" lon="7.386218853475601"><ele>917.9999999999999</ele><time>2026-05-01T13:09:58Z</time></trkpt><trkpt lat="44.608650587053916" lon="7.386152439361665"><ele>918.9999999999999</ele><time>2026-05-01T13:10:00Z</time></trkpt><trkpt lat="44.608547267044656" lon="7.386082647061102"><ele>920.0</ele><time>2026-05-01T13:10:02Z</time></trkpt><trkpt lat="44.60846600505828" lon="7.3859789686032915"><ele>921.0</ele><time>2026-05-01T13:10:04Z</time></trkpt><trkpt lat="44.60840418521579" lon="7.385850110233521"><ele>921.0</ele><time>2026-05-01T13:10:06Z</time></trkpt><trkpt lat="44.60837058048762" lon="7.385679797658364"><ele>921.0</ele><time>2026-05-01T13:10:08Z</time></trkpt><trkpt lat="44.60835040684338" lon="7.385551083991398"><ele>921.0</ele><time>2026-05-01T13:10:09Z</time></trkpt><trkpt lat="44.60830945677504" lon="7.385465443451208"><ele>921.0</ele><time>2026-05-01T13:10:10Z</time></trkpt><trkpt lat="44.60830699651847" lon="7.385358416302136"><ele>921.0</ele><time>2026-05-01T13:10:12Z</time></trkpt><trkpt lat="44.608289858288664" lon="7.385260464665322"><ele>921.0</ele><time>2026-05-01T13:10:13Z</time></trkpt><trkpt lat="44.60827401367211" lon="7.385170591624514"><ele>922.1666666666666</ele><time>2026-05-01T13:10:14Z</time></trkpt><trkpt lat="44.60822819676041" lon="7.385087287563643"><ele>923.3333333333333</ele><time>2026-05-01T13:10:16Z</time></trkpt><trkpt lat="44.60822064159011" lon="7.3849902566370496"><ele>924.5</ele><time>2026-05-01T13:10:38Z</time></trkpt><trkpt lat="44.608232049663" lon="7.384816412751986"><ele>925.6666666666666</ele><time>2026-05-01T13:10:41Z</time></trkpt><trkpt lat="44.60819474889246" lon="7.384744422879333"><ele>926.8333333333333</ele><time>2026-05-01T13:10:43Z</time></trkpt><trkpt lat="44.60813644944195" lon="7.384643704425901"><ele>928.0</ele><time>2026-05-01T13:10:45Z</time></trkpt><trkpt lat="44.6080902211691" lon="7.384526814322166"><ele>927.9999999999999</ele><time>2026-05-01T13:10:47Z</time></trkpt><trkpt lat="44.608048331110815" lon="7.384439823446581"><ele>928.0</ele><time>2026-05-01T13:10:48Z</time></trkpt><trkpt lat="44.60800663776644" lon="7.384333321521476"><ele>928.0</ele><time>2026-05-01T13:10:50Z</time></trkpt><trkpt lat="44.60795884953424" lon="7.384235455346232"><ele>928.0</ele><time>2026-05-01T13:10:53Z</time></trkpt><trkpt lat="44.607902412928865" lon="7.384168176145849"><ele>927.9999999999999</ele><time>2026-05-01T13:10:55Z</time></trkpt><trkpt lat="44.60787627624399" lon="7.3840768683146445"><ele>928.0</ele><time>2026-05-01T13:10:58Z</time></trkpt><trkpt lat="44.607837622682595" lon="7.383971910988558"><ele>928.8</ele><time>2026-05-01T13:11:00Z</time></trkpt><trkpt lat="44.6078223474394" lon="7.383882224388563"><ele>929.5999999999999</ele><time>2026-05-01T13:11:03Z</time></trkpt><trkpt lat="44.607799816189285" lon="7.383715990308844"><ele>930.4000000000001</ele><time>2026-05-01T13:11:09.999Z</time></trkpt><trkpt lat="44.60777197693614" lon="7.383574141770815"><ele>931.2</ele><time>2026-05-01T13:11:10.999Z</time></trkpt><trkpt lat="44.6077213360049" lon="7.3834472154143835"><ele>932.0</ele><time>2026-05-01T13:11:12.999Z</time></trkpt><trkpt lat="44.60764750840848" lon="7.38332473886352"><ele>932.8</ele><time>2026-05-01T13:11:14.999Z</time></trkpt><trkpt lat="44.6075682196528" lon="7.383187685547879"><ele>933.6</ele><time>2026-05-01T13:11:16.999Z</time></trkpt><trkpt lat="44.60750858503722" lon="7.38312597575368"><ele>934.3999999999999</ele><time>2026-05-01T13:11:17.999Z</time></trkpt><trkpt lat="44.60744695591013" lon="7.383049348732356"><ele>935.1999999999999</ele><time>2026-05-01T13:11:18.999Z</time></trkpt><trkpt lat="44.60737302578357" lon="7.382997903088693"><ele>936.0</ele><time>2026-05-01T13:11:19.999Z</time></trkpt><trkpt lat="44.607268847064475" lon="7.382895275601467"><ele>934.1999999999999</ele><time>2026-05-01T13:11:20.999Z</time></trkpt><trkpt lat="44.60719043153635" lon="7.3827716950785796"><ele>932.3999999999999</ele><time>2026-05-01T13:11:21.999Z</time></trkpt><trkpt lat="44.607128001515605" lon="7.3826425595428296"><ele>930.6</ele><time>2026-05-01T13:11:23.999Z</time></trkpt><trkpt lat="44.60711001705129" lon="7.382486864311046"><ele>928.8</ele><time>2026-05-01T13:11:25.999Z</time></trkpt><trkpt lat="44.60708598816904" lon="7.38239869805413"><ele>927.0</ele><time>2026-05-01T13:11:26.999Z</time></trkpt><trkpt lat="44.60700525186117" lon="7.3822412494895575"><ele>931.4000000000001</ele><time>2026-05-01T13:11:28.999Z</time></trkpt><trkpt lat="44.606892327023935" lon="7.382131081208991"><ele>935.8000000000001</ele><time>2026-05-01T13:11:29.999Z</time></trkpt><trkpt lat="44.60682659813846" lon="7.382059990118486"><ele>940.2</ele><time>2026-05-01T13:11:30.999Z</time></trkpt><trkpt lat="44.60676302204652" lon="7.38197913628057"><ele>944.6</ele><time>2026-05-01T13:11:31.999Z</time></trkpt><trkpt lat="44.60666774719985" lon="7.381859372190357"><ele>949.0</ele><time>2026-05-01T13:11:33.999Z</time></trkpt><trkpt lat="44.606629480011385" lon="7.381762238966829"><ele>949.0</ele><time>2026-05-01T13:11:35.999Z</time></trkpt><trkpt lat="44.6066191610643" lon="7.381660455952247"><ele>949.0000000000001</ele><time>2026-05-01T13:11:38.999Z</time></trkpt><trkpt lat="44.60655590866019" lon="7.381548974388486"><ele>949.0000000000001</ele><time>2026-05-01T13:11:41.999Z</time></trkpt><trkpt lat="44.606527524568016" lon="7.381413761134935"><ele>949.0</ele><time>2026-05-01T13:11:43.999Z</time></trkpt><trkpt lat="44.60648572976607" lon="7.381286622999195"><ele>949.0</ele><time>2026-05-01T13:11:44.999Z</time></trkpt><trkpt lat="44.60644358420526" lon="7.381126461125179"><ele>949.8000000000001</ele><time>2026-05-01T13:11:45.999Z</time></trkpt><trkpt lat="44.606395312827054" lon="7.381043578552818"><ele>950.6000000000001</ele><time>2026-05-01T13:11:46.999Z</time></trkpt><trkpt lat="44.606313790956044" lon="7.380946626619938"><ele>951.4</ele><time>2026-05-01T13:11:48.999Z</time></trkpt><trkpt lat="44.606296439641575" lon="7.380799773577138"><ele>952.2</ele><time>2026-05-01T13:11:50.999Z</time></trkpt><trkpt lat="44.60630283615723" lon="7.380630003610289"><ele>953.0</ele><time>2026-05-01T13:11:52.999Z</time></trkpt><trkpt lat="44.606376059675455" lon="7.380411870543072"><ele>953.8</ele><time>2026-05-01T13:11:54.999Z</time></trkpt><trkpt lat="44.60637961014937" lon="7.3802983460212275"><ele>954.5999999999999</ele><time>2026-05-01T13:11:55.999Z</time></trkpt><trkpt lat="44.60639057356094" lon="7.380203514759005"><ele>955.4000000000001</ele><time>2026-05-01T13:11:56.999Z</time></trkpt><trkpt lat="44.60639403280306" lon="7.380090969802109"><ele>956.2</ele><time>2026-05-01T13:11:57.999Z</time></trkpt><trkpt lat="44.60639354551545" lon="7.379970203817602"><ele>957.0</ele><time>2026-05-01T13:11:58.999Z</time></trkpt><trkpt lat="44.60646467117978" lon="7.379807701726625"><ele>957.0</ele><time>2026-05-01T13:12:00.999Z</time></trkpt><trkpt lat="44.60650729322731" lon="7.379733490834711"><ele>957.0</ele><time>2026-05-01T13:12:01.999Z</time></trkpt><trkpt lat="44.606548580501396" lon="7.379660395626633"><ele>957.0</ele><time>2026-05-01T13:12:02.999Z</time></trkpt><trkpt lat="44.60661252905444" lon="7.379543919887005"><ele>957.0</ele><time>2026-05-01T13:12:04.999Z</time></trkpt><trkpt lat="44.60668072096936" lon="7.379440889824513"><ele>957.0</ele><time>2026-05-01T13:12:06.999Z</time></trkpt><trkpt lat="44.606730381168674" lon="7.379333587381334"><ele>957.0</ele><time>2026-05-01T13:12:08.999Z</time></trkpt><trkpt lat="44.60678359904831" lon="7.379221291384124"><ele>956.2</ele><time>2026-05-01T13:12:10.999Z</time></trkpt><trkpt lat="44.60682510109355" lon="7.379082814150308"><ele>955.4000000000001</ele><time>2026-05-01T13:12:12.999Z</time></trkpt><trkpt lat="44.606844979321835" lon="7.3789695786326375"><ele>954.5999999999999</ele><time>2026-05-01T13:12:14.999Z</time></trkpt><trkpt lat="44.60681773226393" lon="7.3787533569419645"><ele>953.8</ele><time>2026-05-01T13:12:15.999Z</time></trkpt><trkpt lat="44.60683156398699" lon="7.378655138929495"><ele>953.0</ele><time>2026-05-01T13:12:22.999Z</time></trkpt><trkpt lat="44.606806149612446" lon="7.378515682872155"><ele>951.2</ele><time>2026-05-01T13:12:24.999Z</time></trkpt><trkpt lat="44.606790474600416" lon="7.3783846561817015"><ele>949.4</ele><time>2026-05-01T13:12:26.999Z</time></trkpt><trkpt lat="44.606778644789706" lon="7.378245167888627"><ele>947.6000000000001</ele><time>2026-05-01T13:12:28.999Z</time></trkpt><trkpt lat="44.60674194220276" lon="7.378106137561576"><ele>945.8000000000001</ele><time>2026-05-01T13:12:29.999Z</time></trkpt><trkpt lat="44.60666624889345" lon="7.37796500108724"><ele>944.0</ele><time>2026-05-01T13:12:30.999Z</time></trkpt><trkpt lat="44.606631163119175" lon="7.3778614293067974"><ele>942.2</ele><time>2026-05-01T13:12:31.999Z</time></trkpt><trkpt lat="44.606583356432225" lon="7.377752115276037"><ele>940.4000000000001</ele><time>2026-05-01T13:12:32.999Z</time></trkpt><trkpt lat="44.606542967649496" lon="7.37764309385689"><ele>938.6</ele><time>2026-05-01T13:12:33.999Z</time></trkpt><trkpt lat="44.60651917315621" lon="7.377507158477251"><ele>936.8</ele><time>2026-05-01T13:12:35.999Z</time></trkpt><trkpt lat="44.606475665068864" lon="7.377322751203364"><ele>935.0</ele><time>2026-05-01T13:12:37.999Z</time></trkpt><trkpt lat="44.60644052631506" lon="7.3772002030588135"><ele>935.1666666666667</ele><time>2026-05-01T13:12:38.999Z</time></trkpt><trkpt lat="44.60639185100444" lon="7.377070466378492"><ele>935.3333333333334</ele><time>2026-05-01T13:12:39.999Z</time></trkpt><trkpt lat="44.6063743244792" lon="7.376976525116457"><ele>935.5</ele><time>2026-05-01T13:12:40.999Z</time></trkpt><trkpt lat="44.606372804377884" lon="7.3768789440013345"><ele>935.6666666666667</ele><time>2026-05-01T13:12:41.999Z</time></trkpt><trkpt lat="44.60637643875043" lon="7.376788430248994"><ele>935.8333333333334</ele><time>2026-05-01T13:12:42.999Z</time></trkpt><trkpt lat="44.60637490055316" lon="7.376680856076994"><ele>936.0</ele><time>2026-05-01T13:12:44.999Z</time></trkpt><trkpt lat="44.60634593298654" lon="7.37659507980499"><ele>936.0</ele><time>2026-05-01T13:12:46.999Z</time></trkpt><trkpt lat="44.60627108591901" lon="7.376520934905361"><ele>936.0</ele><time>2026-05-01T13:12:48.999Z</time></trkpt><trkpt lat="44.60630037940846" lon="7.376422810463456"><ele>936.0</ele><time>2026-05-01T13:12:51.999Z</time></trkpt><trkpt lat="44.606354108160886" lon="7.3763190653336945"><ele>936.0</ele><time>2026-05-01T13:12:53.999Z</time></trkpt><trkpt lat="44.60639932162244" lon="7.376187040007674"><ele>936.0</ele><time>2026-05-01T13:12:55.999Z</time></trkpt><trkpt lat="44.60641771292338" lon="7.376099833576168"><ele>936.0</ele><time>2026-05-01T13:12:56.999Z</time></trkpt><trkpt lat="44.60643296611093" lon="7.375968629311509"><ele>934.75</ele><time>2026-05-01T13:12:57.999Z</time></trkpt><trkpt lat="44.606370267942395" lon="7.375819218315951"><ele>933.5</ele><time>2026-05-01T13:12:58.999Z</time></trkpt><trkpt lat="44.60635887830737" lon="7.3756945150954785"><ele>932.25</ele><time>2026-05-01T13:12:59.999Z</time></trkpt><trkpt lat="44.606350309557925" lon="7.375471243602533"><ele>931.0</ele><time>2026-05-01T13:13:01.999Z</time></trkpt><trkpt lat="44.60634714094739" lon="7.375353863271066"><ele>931.0</ele><time>2026-05-01T13:13:02.999Z</time></trkpt><trkpt lat="44.60634644839255" lon="7.375212037395439"><ele>931.0</ele><time>2026-05-01T13:13:03.999Z</time></trkpt><trkpt lat="44.60631737591341" lon="7.37503189745476"><ele>931.0</ele><time>2026-05-01T13:13:04.999Z</time></trkpt><trkpt lat="44.60632369296333" lon="7.374837911080418"><ele>931.0</ele><time>2026-05-01T13:13:05.999Z</time></trkpt><trkpt lat="44.60630286924825" lon="7.374662670189428"><ele>932.0</ele><time>2026-05-01T13:13:06.999Z</time></trkpt><trkpt lat="44.6063135662176" lon="7.37451296341856"><ele>932.9999999999999</ele><time>2026-05-01T13:13:07.999Z</time></trkpt><trkpt lat="44.60628216428484" lon="7.374339378595716"><ele>933.9999999999999</ele><time>2026-05-01T13:13:08.999Z</time></trkpt><trkpt lat="44.60623678598916" lon="7.374250043348898"><ele>935.0</ele><time>2026-05-01T13:13:09.999Z</time></trkpt><trkpt lat="44.60616006315548" lon="7.3741015616086445"><ele>936.0</ele><time>2026-05-01T13:13:10.999Z</time></trkpt><trkpt lat="44.606085603621246" lon="7.374012045614634"><ele>932.0</ele><time>2026-05-01T13:13:11.999Z</time></trkpt><trkpt lat="44.606001267652395" lon="7.373893621556723"><ele>928.0</ele><time>2026-05-01T13:13:12.999Z</time></trkpt><trkpt lat="44.605905966964556" lon="7.373748730683092"><ele>924.0</ele><time>2026-05-01T13:13:13.999Z</time></trkpt><trkpt lat="44.60607200736385" lon="7.373322102481989"><ele>924.0</ele><time>2026-05-01T13:13:14.998Z</time></trkpt><trkpt lat="44.60606119732002" lon="7.3731568132222955"><ele>924.0000000000001</ele><time>2026-05-01T13:13:15.998Z</time></trkpt><trkpt lat="44.6060250541546" lon="7.373020466313859"><ele>924.0000000000001</ele><time>2026-05-01T13:13:16.998Z</time></trkpt><trkpt lat="44.60598329590345" lon="7.372893979755748"><ele>924.0</ele><time>2026-05-01T13:13:17.998Z</time></trkpt><trkpt lat="44.605937059043306" lon="7.372755634420846"><ele>924.0</ele><time>2026-05-01T13:13:18.998Z</time></trkpt><trkpt lat="44.60587919978441" lon="7.372592853290869"><ele>926.0</ele><time>2026-05-01T13:13:19.998Z</time></trkpt><trkpt lat="44.605812706578774" lon="7.3724376236464"><ele>928.0</ele><time>2026-05-01T13:13:20.998Z</time></trkpt><trkpt lat="44.605730571972686" lon="7.372310124224473"><ele>930.0</ele><time>2026-05-01T13:13:21.998Z</time></trkpt><trkpt lat="44.60564624225595" lon="7.3722005442036735"><ele>932.0</ele><time>2026-05-01T13:13:22.998Z</time></trkpt><trkpt lat="44.60560685555047" lon="7.3720795746963015"><ele>934.0</ele><time>2026-05-01T13:13:23.998Z</time></trkpt><trkpt lat="44.605562603676674" lon="7.371892910200097"><ele>936.0</ele><time>2026-05-01T13:13:24.998Z</time></trkpt><trkpt lat="44.605508888739934" lon="7.371686595495119"><ele>938.0</ele><time>2026-05-01T13:13:25.998Z</time></trkpt><trkpt lat="44.60545160487089" lon="7.371478546664285"><ele>939.2</ele><time>2026-05-01T13:13:26.998Z</time></trkpt><trkpt lat="44.605405846634675" lon="7.371271570748826"><ele>940.4</ele><time>2026-05-01T13:13:27.998Z</time></trkpt><trkpt lat="44.60535601658037" lon="7.371122695324101"><ele>941.6000000000001</ele><time>2026-05-01T13:13:28.998Z</time></trkpt><trkpt lat="44.605303663684005" lon="7.371051244345356"><ele>942.8000000000001</ele><time>2026-05-01T13:13:29.998Z</time></trkpt><trkpt lat="44.605270465660084" lon="7.370951344026212"><ele>944.0</ele><time>2026-05-01T13:13:30.998Z</time></trkpt><trkpt lat="44.605300961838346" lon="7.370852095648146"><ele>944.0000000000001</ele><time>2026-05-01T13:13:31.998Z</time></trkpt><trkpt lat="44.605330516044596" lon="7.370730489895426"><ele>944.0</ele><time>2026-05-01T13:13:32.998Z</time></trkpt><trkpt lat="44.605341168911984" lon="7.370640078030749"><ele>944.0</ele><time>2026-05-01T13:13:33.999Z</time></trkpt><trkpt lat="44.60529548735789" lon="7.370572875639538"><ele>944.0</ele><time>2026-05-01T13:13:35.999Z</time></trkpt><trkpt lat="44.6052328698566" lon="7.370525916456182"><ele>944.0000000000001</ele><time>2026-05-01T13:13:36.999Z</time></trkpt><trkpt lat="44.60509268156373" lon="7.3704569243823395"><ele>944.0</ele><time>2026-05-01T13:13:37.999Z</time></trkpt><trkpt lat="44.60500586182553" lon="7.3703202587436545"><ele>941.8000000000001</ele><time>2026-05-01T13:13:38.999Z</time></trkpt><trkpt lat="44.60496581724083" lon="7.370227720782912"><ele>939.6000000000001</ele><time>2026-05-01T13:13:39.999Z</time></trkpt><trkpt lat="44.60494051278026" lon="7.370131830511754"><ele>937.4</ele><time>2026-05-01T13:13:40.999Z</time></trkpt><trkpt lat="44.60495939938744" lon="7.3700072542036335"><ele>935.2</ele><time>2026-05-01T13:13:41.999Z</time></trkpt><trkpt lat="44.60500542114138" lon="7.3698477974851135"><ele>933.0</ele><time>2026-05-01T13:13:42.999Z</time></trkpt><trkpt lat="44.605101952894024" lon="7.369644092241969"><ele>933.0</ele><time>2026-05-01T13:13:43.999Z</time></trkpt><trkpt lat="44.6051625675842" lon="7.36951944362776"><ele>933.0</ele><time>2026-05-01T13:13:44.999Z</time></trkpt><trkpt lat="44.60515704228028" lon="7.369361006246638"><ele>933.0</ele><time>2026-05-01T13:13:46.999Z</time></trkpt><trkpt lat="44.60509325984873" lon="7.369254217330569"><ele>933.0</ele><time>2026-05-01T13:13:47.999Z</time></trkpt><trkpt lat="44.60500463166464" lon="7.369104814017771"><ele>933.0</ele><time>2026-05-01T13:13:48.999Z</time></trkpt><trkpt lat="44.6049345871338" lon="7.368964687601092"><ele>933.0</ele><time>2026-05-01T13:13:49.999Z</time></trkpt><trkpt lat="44.6049106455895" lon="7.368847579306704"><ele>933.0</ele><time>2026-05-01T13:13:50.999Z</time></trkpt><trkpt lat="44.604895488825754" lon="7.368688560526202"><ele>933.0</ele><time>2026-05-01T13:13:51.999Z</time></trkpt><trkpt lat="44.6048734163871" lon="7.368505297005521"><ele>934.0</ele><time>2026-05-01T13:13:52.999Z</time></trkpt><trkpt lat="44.6048625586318" lon="7.368312344155631"><ele>935.0</ele><time>2026-05-01T13:13:53.999Z</time></trkpt><trkpt lat="44.604849911754016" lon="7.368148295748538"><ele>936.0</ele><time>2026-05-01T13:13:54.999Z</time></trkpt><trkpt lat="44.60485299191924" lon="7.367975248509513"><ele>937.0</ele><time>2026-05-01T13:13:55.999Z</time></trkpt><trkpt lat="44.60483504043045" lon="7.367804995412287"><ele>939.25</ele><time>2026-05-01T13:13:56.999Z</time></trkpt><trkpt lat="44.60481046910913" lon="7.3676307756243276"><ele>941.5</ele><time>2026-05-01T13:13:57.999Z</time></trkpt><trkpt lat="44.60478940864092" lon="7.3674534688496855"><ele>943.75</ele><time>2026-05-01T13:13:58.999Z</time></trkpt><trkpt lat="44.60478479795027" lon="7.367273863583363"><ele>946.0</ele><time>2026-05-01T13:13:59.999Z</time></trkpt><trkpt lat="44.60479193303017" lon="7.367131583210811"><ele>947.5999999999999</ele><time>2026-05-01T13:14:00.999Z</time></trkpt><trkpt lat="44.60480902364496" lon="7.366990280423778"><ele>949.1999999999999</ele><time>2026-05-01T13:14:01.999Z</time></trkpt><trkpt lat="44.60477012590757" lon="7.366871312147519"><ele>950.8000000000001</ele><time>2026-05-01T13:14:02.999Z</time></trkpt><trkpt lat="44.60472210831399" lon="7.366739338477132"><ele>952.4000000000001</ele><time>2026-05-01T13:14:03.999Z</time></trkpt><trkpt lat="44.60465573487106" lon="7.36656071479752"><ele>954.0</ele><time>2026-05-01T13:14:04.999Z</time></trkpt><trkpt lat="44.60458902166138" lon="7.366406328734399"><ele>954.6</ele><time>2026-05-01T13:14:05.999Z</time></trkpt><trkpt lat="44.604539402418936" lon="7.3662969877441515"><ele>955.2</ele><time>2026-05-01T13:14:06.999Z</time></trkpt><trkpt lat="44.60453609002459" lon="7.366182106328563"><ele>955.8000000000001</ele><time>2026-05-01T13:14:07.999Z</time></trkpt><trkpt lat="44.604557872747115" lon="7.366042102347051"><ele>956.4000000000001</ele><time>2026-05-01T13:14:08.999Z</time></trkpt><trkpt lat="44.604572995724105" lon="7.365880226645509"><ele>957.0</ele><time>2026-05-01T13:14:09.999Z</time></trkpt><trkpt lat="44.60457720330155" lon="7.365723418706305"><ele>957.0</ele><time>2026-05-01T13:14:10.999Z</time></trkpt><trkpt lat="44.60459448376916" lon="7.365557699828718"><ele>957.0</ele><time>2026-05-01T13:14:11.999Z</time></trkpt><trkpt lat="44.60457142836075" lon="7.3653122582461865"><ele>957.0</ele><time>2026-05-01T13:14:12.999Z</time></trkpt><trkpt lat="44.60454921439162" lon="7.365087197749222"><ele>956.8</ele><time>2026-05-01T13:14:13.999Z</time></trkpt><trkpt lat="44.60452194431024" lon="7.3649058577391315"><ele>956.6</ele><time>2026-05-01T13:14:14.999Z</time></trkpt><trkpt lat="44.60451217948687" lon="7.364768186969669"><ele>956.3999999999999</ele><time>2026-05-01T13:14:15.999Z</time></trkpt><trkpt lat="44.60449283640053" lon="7.3646334598484104"><ele>956.1999999999999</ele><time>2026-05-01T13:14:16.999Z</time></trkpt><trkpt lat="44.60440997673897" lon="7.364565394528149"><ele>956.0</ele><time>2026-05-01T13:14:17.999Z</time></trkpt><trkpt lat="44.60426984672248" lon="7.36442772081256"><ele>956.0</ele><time>2026-05-01T13:14:19Z</time></trkpt><trkpt lat="44.60418388149862" lon="7.3643113413248065"><ele>955.9999999999999</ele><time>2026-05-01T13:14:20Z</time></trkpt><trkpt lat="44.60412437337784" lon="7.364210059095574"><ele>955.9999999999999</ele><time>2026-05-01T13:14:21Z</time></trkpt><trkpt lat="44.60404309067977" lon="7.3641132664769735"><ele>956.0</ele><time>2026-05-01T13:14:22Z</time></trkpt><trkpt lat="44.60396792882752" lon="7.364017139991489"><ele>956.0</ele><time>2026-05-01T13:14:23Z</time></trkpt><trkpt lat="44.603897987121655" lon="7.363929654966519"><ele>958.0</ele><time>2026-05-01T13:14:24Z</time></trkpt><trkpt lat="44.60381769851237" lon="7.363838198645309"><ele>959.9999999999999</ele><time>2026-05-01T13:14:25Z</time></trkpt><trkpt lat="44.60373393045486" lon="7.3637376165502415"><ele>961.9999999999999</ele><time>2026-05-01T13:14:26Z</time></trkpt><trkpt lat="44.60365785223587" lon="7.363643898257457"><ele>964.0</ele><time>2026-05-01T13:14:27Z</time></trkpt><trkpt lat="44.60358194553185" lon="7.363569192660616"><ele>966.0</ele><time>2026-05-01T13:14:28Z</time></trkpt><trkpt lat="44.60350368386724" lon="7.363531938512962"><ele>966.0</ele><time>2026-05-01T13:14:29Z</time></trkpt><trkpt lat="44.603392833646154" lon="7.363479563902155"><ele>965.9999999999999</ele><time>2026-05-01T13:14:30Z</time></trkpt><trkpt lat="44.6032912033705" lon="7.363394090763102"><ele>965.9999999999999</ele><time>2026-05-01T13:14:31Z</time></trkpt><trkpt lat="44.6032122218969" lon="7.36331346327298"><ele>966.0</ele><time>2026-05-01T13:14:32Z</time></trkpt><trkpt lat="44.60313116997584" lon="7.3632485366147264"><ele>966.0</ele><time>2026-05-01T13:14:33Z</time></trkpt><trkpt lat="44.603060193793226" lon="7.363186487970815"><ele>966.0</ele><time>2026-05-01T13:14:34Z</time></trkpt><trkpt lat="44.603008041322994" lon="7.363085020525641"><ele>966.0</ele><time>2026-05-01T13:14:35Z</time></trkpt><trkpt lat="44.60298544273279" lon="7.362996949861818"><ele>966.0</ele><time>2026-05-01T13:14:36Z</time></trkpt><trkpt lat="44.60294391693175" lon="7.362924634735429"><ele>966.0</ele><time>2026-05-01T13:14:37Z</time></trkpt><trkpt lat="44.60289052820338" lon="7.362798370719253"><ele>966.0</ele><time>2026-05-01T13:14:39Z</time></trkpt><trkpt lat="44.60286494280109" lon="7.362716401590571"><ele>966.0</ele><time>2026-05-01T13:14:40Z</time></trkpt><trkpt lat="44.60281562074864" lon="7.362593265402096"><ele>968.4</ele><time>2026-05-01T13:14:41Z</time></trkpt><trkpt lat="44.60273849485815" lon="7.3624312952452655"><ele>970.8</ele><time>2026-05-01T13:14:42Z</time></trkpt><trkpt lat="44.60268710925143" lon="7.362282580968512"><ele>973.1999999999999</ele><time>2026-05-01T13:14:43Z</time></trkpt><trkpt lat="44.60266607450198" lon="7.362173561881402"><ele>975.5999999999999</ele><time>2026-05-01T13:14:44Z</time></trkpt><trkpt lat="44.602648433839896" lon="7.362083741025108"><ele>978.0</ele><time>2026-05-01T13:14:45Z</time></trkpt><trkpt lat="44.60267944895549" lon="7.3619036082169815"><ele>980.2</ele><time>2026-05-01T13:14:47Z</time></trkpt><trkpt lat="44.60269057089699" lon="7.3618047003972755"><ele>982.4</ele><time>2026-05-01T13:14:48Z</time></trkpt><trkpt lat="44.602662591381694" lon="7.36172217129322"><ele>984.6000000000001</ele><time>2026-05-01T13:14:49Z</time></trkpt><trkpt lat="44.60261220864511" lon="7.361516530334034"><ele>986.8000000000001</ele><time>2026-05-01T13:14:51Z</time></trkpt><trkpt lat="44.602571472785634" lon="7.361412045963194"><ele>989.0</ele><time>2026-05-01T13:14:52Z</time></trkpt><trkpt lat="44.60251433700956" lon="7.3612327678810185"><ele>991.25</ele><time>2026-05-01T13:14:53Z</time></trkpt><trkpt lat="44.602435514661174" lon="7.361065862355218"><ele>993.5</ele><time>2026-05-01T13:14:54Z</time></trkpt><trkpt lat="44.60238282914498" lon="7.360876111586129"><ele>995.75</ele><time>2026-05-01T13:14:55Z</time></trkpt><trkpt lat="44.60233558892239" lon="7.360725819650805"><ele>998.0</ele><time>2026-05-01T13:14:56Z</time></trkpt><trkpt lat="44.60228480224052" lon="7.360612900638383"><ele>998.4</ele><time>2026-05-01T13:14:57Z</time></trkpt><trkpt lat="44.60222763244593" lon="7.360501757638889"><ele>998.8</ele><time>2026-05-01T13:14:58Z</time></trkpt><trkpt lat="44.602165425142715" lon="7.360389771989452"><ele>999.2</ele><time>2026-05-01T13:14:59Z</time></trkpt><trkpt lat="44.602099214542086" lon="7.360265114084763"><ele>999.6</ele><time>2026-05-01T13:15:00Z</time></trkpt><trkpt lat="44.602044144301175" lon="7.360131849032803"><ele>1000.0</ele><time>2026-05-01T13:15:01Z</time></trkpt><trkpt lat="44.601992930323405" lon="7.3600386829156905"><ele>1001.0</ele><time>2026-05-01T13:15:02Z</time></trkpt><trkpt lat="44.60194435322181" lon="7.359923927015946"><ele>1002.0</ele><time>2026-05-01T13:15:03Z</time></trkpt><trkpt lat="44.60189210057229" lon="7.359788589972736"><ele>1003.0</ele><time>2026-05-01T13:15:04Z</time></trkpt><trkpt lat="44.60183277530172" lon="7.359660339298232"><ele>1004.0</ele><time>2026-05-01T13:15:05Z</time></trkpt><trkpt lat="44.601802359300805" lon="7.3595381173622885"><ele>1005.0</ele><time>2026-05-01T13:15:06Z</time></trkpt><trkpt lat="44.60177522386194" lon="7.35961947155824"><ele>1006.4</ele><time>2026-05-01T13:15:48.999Z</time></trkpt><trkpt lat="44.60179723811654" lon="7.359744677780427"><ele>1007.8</ele><time>2026-05-01T13:15:50.999Z</time></trkpt><trkpt lat="44.6017876171012" lon="7.35985457327726"><ele>1009.2</ele><time>2026-05-01T13:15:54Z</time></trkpt><trkpt lat="44.601757781907814" lon="7.359946169035391"><ele>1010.6</ele><time>2026-05-01T13:15:56Z</time></trkpt><trkpt lat="44.601701491417145" lon="7.360139081747173"><ele>1012.0</ele><time>2026-05-01T13:15:58Z</time></trkpt><trkpt lat="44.60170752201095" lon="7.3602324700761175"><ele>1011.9999999999999</ele><time>2026-05-01T13:15:59Z</time></trkpt><trkpt lat="44.60168632671003" lon="7.36036160513199"><ele>1012.0</ele><time>2026-05-01T13:16:00Z</time></trkpt><trkpt lat="44.601705081703955" lon="7.360508610063644"><ele>1012.0</ele><time>2026-05-01T13:16:01Z</time></trkpt><trkpt lat="44.60170590030784" lon="7.360597735203125"><ele>1012.0</ele><time>2026-05-01T13:16:02Z</time></trkpt><trkpt lat="44.60168313821859" lon="7.3607369587361555"><ele>1011.9999999999999</ele><time>2026-05-01T13:16:04Z</time></trkpt><trkpt lat="44.60164271165631" lon="7.360813663913"><ele>1012.0</ele><time>2026-05-01T13:16:05Z</time></trkpt><trkpt lat="44.60157609726078" lon="7.360876548315528"><ele>1011.9999999999999</ele><time>2026-05-01T13:16:07Z</time></trkpt><trkpt lat="44.60153572292476" lon="7.361030973004558"><ele>1012.0</ele><time>2026-05-01T13:16:09Z</time></trkpt><trkpt lat="44.60149125179055" lon="7.361131581832645"><ele>1012.0</ele><time>2026-05-01T13:16:10Z</time></trkpt><trkpt lat="44.60146883336022" lon="7.361249275225893"><ele>1012.0</ele><time>2026-05-01T13:16:11Z</time></trkpt><trkpt lat="44.60145295571142" lon="7.361343046150696"><ele>1011.9999999999999</ele><time>2026-05-01T13:16:12Z</time></trkpt><trkpt lat="44.60144686865677" lon="7.36144114913139"><ele>1012.0</ele><time>2026-05-01T13:16:13Z</time></trkpt><trkpt lat="44.60141908098911" lon="7.361538058316097"><ele>1012.6</ele><time>2026-05-01T13:16:14Z</time></trkpt><trkpt lat="44.60138362431222" lon="7.361639434481075"><ele>1013.2</ele><time>2026-05-01T13:16:15Z</time></trkpt><trkpt lat="44.6013266479097" lon="7.361729356223214"><ele>1013.8</ele><time>2026-05-01T13:16:16Z</time></trkpt><trkpt lat="44.60126739110522" lon="7.361879487837856"><ele>1014.4</ele><time>2026-05-01T13:16:18Z</time></trkpt><trkpt lat="44.60115781217589" lon="7.361933079448573"><ele>1015.0</ele><time>2026-05-01T13:16:20Z</time></trkpt><trkpt lat="44.601117607630954" lon="7.3620075830062826"><ele>1020.2</ele><time>2026-05-01T13:16:21Z</time></trkpt><trkpt lat="44.60106829058178" lon="7.362092281220622"><ele>1025.4</ele><time>2026-05-01T13:16:22Z</time></trkpt><trkpt lat="44.60096049833205" lon="7.362169727616816"><ele>1030.6</ele><time>2026-05-01T13:16:24Z</time></trkpt><trkpt lat="44.600867250401784" lon="7.362266702985456"><ele>1035.8</ele><time>2026-05-01T13:16:26Z</time></trkpt><trkpt lat="44.60080478692057" lon="7.362357877335771"><ele>1041.0</ele><time>2026-05-01T13:16:27Z</time></trkpt><trkpt lat="44.600724696473485" lon="7.362476590130553"><ele>1041.0</ele><time>2026-05-01T13:16:28Z</time></trkpt><trkpt lat="44.60066677937829" lon="7.362582895622072"><ele>1041.0</ele><time>2026-05-01T13:16:29Z</time></trkpt><trkpt lat="44.60062804369003" lon="7.3626582254928445"><ele>1041.0</ele><time>2026-05-01T13:16:31Z</time></trkpt><trkpt lat="44.60054875779996" lon="7.362557304326421"><ele>1041.0</ele><time>2026-05-01T13:16:37Z</time></trkpt><trkpt lat="44.60047412520469" lon="7.362505664466964"><ele>1041.0</ele><time>2026-05-01T13:16:38Z</time></trkpt><trkpt lat="44.60036749620981" lon="7.362469066519805"><ele>1040.3333333333333</ele><time>2026-05-01T13:16:39Z</time></trkpt><trkpt lat="44.60028789993272" lon="7.362423884849586"><ele>1039.6666666666667</ele><time>2026-05-01T13:16:40Z</time></trkpt><trkpt lat="44.600230166564934" lon="7.36235816205916"><ele>1039.0</ele><time>2026-05-01T13:16:41Z</time></trkpt><trkpt lat="44.600168674869686" lon="7.362267089892705"><ele>1038.3333333333335</ele><time>2026-05-01T13:16:42Z</time></trkpt><trkpt lat="44.6000975914354" lon="7.362217824516125"><ele>1037.6666666666667</ele><time>2026-05-01T13:16:43Z</time></trkpt><trkpt lat="44.600023624346576" lon="7.362217065899448"><ele>1037.0</ele><time>2026-05-01T13:16:44Z</time></trkpt><trkpt lat="44.59993647226715" lon="7.362233631294877"><ele>1037.0</ele><time>2026-05-01T13:16:45Z</time></trkpt><trkpt lat="44.599871265281145" lon="7.362235704971582"><ele>1037.0</ele><time>2026-05-01T13:16:46Z</time></trkpt><trkpt lat="44.599792186984594" lon="7.362188910167993"><ele>1037.0</ele><time>2026-05-01T13:16:47Z</time></trkpt><trkpt lat="44.599708821159965" lon="7.362072368744308"><ele>1037.0</ele><time>2026-05-01T13:16:48Z</time></trkpt><trkpt lat="44.599612154165186" lon="7.361952851194748"><ele>1037.0</ele><time>2026-05-01T13:16:49Z</time></trkpt><trkpt lat="44.59948750507297" lon="7.3617703078095795"><ele>1037.0</ele><time>2026-05-01T13:16:50Z</time></trkpt><trkpt lat="44.59935357487293" lon="7.361616895869787"><ele>1037.0</ele><time>2026-05-01T13:16:51Z</time></trkpt><trkpt lat="44.59922677301375" lon="7.361472005435115"><ele>1037.0</ele><time>2026-05-01T13:16:52Z</time></trkpt><trkpt lat="44.5991433815341" lon="7.361345377381294"><ele>1043.4</ele><time>2026-05-01T13:16:53Z</time></trkpt><trkpt lat="44.59906167175149" lon="7.361249335981799"><ele>1049.8000000000002</ele><time>2026-05-01T13:16:54Z</time></trkpt><trkpt lat="44.59900261530412" lon="7.361182971781129"><ele>1056.2</ele><time>2026-05-01T13:16:55Z</time></trkpt><trkpt lat="44.59893575631459" lon="7.361123746312582"><ele>1062.6000000000001</ele><time>2026-05-01T13:16:56Z</time></trkpt><trkpt lat="44.59882774256063" lon="7.36108954611751"><ele>1069.0</ele><time>2026-05-01T13:16:57Z</time></trkpt><trkpt lat="44.598734456475434" lon="7.3611075693232975"><ele>1065.0</ele><time>2026-05-01T13:16:58Z</time></trkpt><trkpt lat="44.598628717551826" lon="7.361092508658254"><ele>1061.0</ele><time>2026-05-01T13:16:59Z</time></trkpt><trkpt lat="44.5985469631781" lon="7.361085506500087"><ele>1057.0</ele><time>2026-05-01T13:17:00Z</time></trkpt><trkpt lat="44.59845470531968" lon="7.3610179991895155"><ele>1053.0</ele><time>2026-05-01T13:17:01Z</time></trkpt><trkpt lat="44.59836896050305" lon="7.36094012338472"><ele>1049.0</ele><time>2026-05-01T13:17:02Z</time></trkpt><trkpt lat="44.59829199799074" lon="7.360840458121368"><ele>1049.0</ele><time>2026-05-01T13:17:03Z</time></trkpt><trkpt lat="44.59820916382635" lon="7.36077303841066"><ele>1049.0</ele><time>2026-05-01T13:17:04.001Z</time></trkpt><trkpt lat="44.598151683105215" lon="7.360730167367077"><ele>1049.0</ele><time>2026-05-01T13:17:05.001Z</time></trkpt><trkpt lat="44.59810812017354" lon="7.360653886613189"><ele>1049.0</ele><time>2026-05-01T13:17:06.001Z</time></trkpt><trkpt lat="44.59802133138407" lon="7.3606602681560895"><ele>1049.0</ele><time>2026-05-01T13:17:09.001Z</time></trkpt><trkpt lat="44.597926925439275" lon="7.360673545185626"><ele>1049.0</ele><time>2026-05-01T13:17:10.001Z</time></trkpt><trkpt lat="44.59785570458855" lon="7.360675793044301"><ele>1048.1666666666667</ele><time>2026-05-01T13:17:11.001Z</time></trkpt><trkpt lat="44.59776757523719" lon="7.360691698730093"><ele>1047.3333333333335</ele><time>2026-05-01T13:17:12.001Z</time></trkpt><trkpt lat="44.59770638284927" lon="7.3606560061035085"><ele>1046.5</ele><time>2026-05-01T13:17:13.001Z</time></trkpt><trkpt lat="44.59764899572656" lon="7.360591900909741"><ele>1045.6666666666667</ele><time>2026-05-01T13:17:14.001Z</time></trkpt><trkpt lat="44.59758677630444" lon="7.36054054660992"><ele>1044.8333333333333</ele><time>2026-05-01T13:17:15.001Z</time></trkpt><trkpt lat="44.59751316567352" lon="7.3605191878405245"><ele>1044.0</ele><time>2026-05-01T13:17:16.001Z</time></trkpt><trkpt lat="44.5974393391385" lon="7.360517519036676"><ele>1044.0</ele><time>2026-05-01T13:17:17.001Z</time></trkpt><trkpt lat="44.59731094293348" lon="7.360585238878229"><ele>1044.0</ele><time>2026-05-01T13:17:19.001Z</time></trkpt><trkpt lat="44.59721815977663" lon="7.36068268772112"><ele>1044.0</ele><time>2026-05-01T13:17:20.001Z</time></trkpt><trkpt lat="44.59714150014331" lon="7.36077756552147"><ele>1044.0</ele><time>2026-05-01T13:17:21.001Z</time></trkpt><trkpt lat="44.59706989227134" lon="7.3608610637984375"><ele>1044.0</ele><time>2026-05-01T13:17:22.001Z</time></trkpt><trkpt lat="44.596993367100616" lon="7.360965373561078"><ele>1042.0</ele><time>2026-05-01T13:17:23.001Z</time></trkpt><trkpt lat="44.59692376531729" lon="7.361093566510744"><ele>1040.0</ele><time>2026-05-01T13:17:24.001Z</time></trkpt><trkpt lat="44.59685053121925" lon="7.361231192919144"><ele>1038.0</ele><time>2026-05-01T13:17:25.001Z</time></trkpt><trkpt lat="44.59678651807671" lon="7.361336720088809"><ele>1036.0</ele><time>2026-05-01T13:17:26.001Z</time></trkpt><trkpt lat="44.596730309442606" lon="7.36141909846966"><ele>1034.0</ele><time>2026-05-01T13:17:26.999Z</time></trkpt><trkpt lat="44.59667431251943" lon="7.361476555958125"><ele>1034.0</ele><time>2026-05-01T13:17:27.999Z</time></trkpt><trkpt lat="44.596589048665365" lon="7.361513194726499"><ele>1034.0</ele><time>2026-05-01T13:17:28.999Z</time></trkpt><trkpt lat="44.596520011863305" lon="7.361553774217265"><ele>1034.0</ele><time>2026-05-01T13:17:29.999Z</time></trkpt><trkpt lat="44.59644478543321" lon="7.3615490036228834"><ele>1034.0</ele><time>2026-05-01T13:17:30.999Z</time></trkpt><trkpt lat="44.59631249949145" lon="7.3615305350774625"><ele>1034.0</ele><time>2026-05-01T13:17:32.999Z</time></trkpt><trkpt lat="44.59622243906648" lon="7.361511938144335"><ele>1036.3333333333335</ele><time>2026-05-01T13:17:33.999Z</time></trkpt><trkpt lat="44.59613421810735" lon="7.361487797918888"><ele>1038.6666666666667</ele><time>2026-05-01T13:17:34.999Z</time></trkpt><trkpt lat="44.596071758925035" lon="7.3614630655138376"><ele>1041.0</ele><time>2026-05-01T13:17:35.999Z</time></trkpt><trkpt lat="44.595944598023515" lon="7.36157134701812"><ele>1043.3333333333333</ele><time>2026-05-01T13:17:37.999Z</time></trkpt><trkpt lat="44.59589027131237" lon="7.361626087831146"><ele>1045.6666666666665</ele><time>2026-05-01T13:17:38.999Z</time></trkpt><trkpt lat="44.5958235260927" lon="7.361615465050816"><ele>1048.0</ele><time>2026-05-01T13:17:41Z</time></trkpt><trkpt lat="44.595725298240644" lon="7.3615651871316725"><ele>1048.0</ele><time>2026-05-01T13:17:43Z</time></trkpt><trkpt lat="44.59565622131909" lon="7.3615548707907745"><ele>1048.0</ele><time>2026-05-01T13:17:45Z</time></trkpt><trkpt lat="44.59556925169134" lon="7.36158253074552"><ele>1048.0</ele><time>2026-05-01T13:17:48Z</time></trkpt><trkpt lat="44.595471983409354" lon="7.361539073013145"><ele>1048.0</ele><time>2026-05-01T13:17:49Z</time></trkpt><trkpt lat="44.59539092525512" lon="7.361646891517498"><ele>1048.0</ele><time>2026-05-01T13:17:52Z</time></trkpt><trkpt lat="44.59532373798976" lon="7.361564013192794"><ele>1051.6666666666665</ele><time>2026-05-01T13:17:54Z</time></trkpt><trkpt lat="44.59525719645353" lon="7.361529740157247"><ele>1055.3333333333333</ele><time>2026-05-01T13:17:58Z</time></trkpt><trkpt lat="44.59518494665592" lon="7.3615954828081325"><ele>1059.0</ele><time>2026-05-01T13:17:59Z</time></trkpt><trkpt lat="44.595139817792315" lon="7.361657877627096"><ele>1062.6666666666667</ele><time>2026-05-01T13:18:02Z</time></trkpt><trkpt lat="44.59502364502031" lon="7.36166413040291"><ele>1066.3333333333335</ele><time>2026-05-01T13:18:04Z</time></trkpt><trkpt lat="44.59493527820158" lon="7.361668311164274"><ele>1070.0</ele><time>2026-05-01T13:18:05Z</time></trkpt><trkpt lat="44.5948937986773" lon="7.3615779597449"><ele>1070.0</ele><time>2026-05-01T13:18:07Z</time></trkpt><trkpt lat="44.59454600115483" lon="7.361985651501709"><ele>1070.0</ele><time>2026-05-01T13:18:08Z</time></trkpt><trkpt lat="44.59473146573592" lon="7.361708071364672"><ele>1070.0</ele><time>2026-05-01T13:18:09Z</time></trkpt><trkpt lat="44.594645325469955" lon="7.361683491961694"><ele>1070.0</ele><time>2026-05-01T13:18:10Z</time></trkpt><trkpt lat="44.59454642457974" lon="7.3616566979264935"><ele>1071.2</ele><time>2026-05-01T13:18:11Z</time></trkpt><trkpt lat="44.594429814448546" lon="7.361586848137267"><ele>1072.4</ele><time>2026-05-01T13:18:12Z</time></trkpt><trkpt lat="44.594346856781335" lon="7.361535903817077"><ele>1073.6</ele><time>2026-05-01T13:18:13Z</time></trkpt><trkpt lat="44.594286084745036" lon="7.361467684876215"><ele>1074.8</ele><time>2026-05-01T13:18:14Z</time></trkpt><trkpt lat="44.594256956390254" lon="7.361368421452274"><ele>1076.0</ele><time>2026-05-01T13:18:15Z</time></trkpt><trkpt lat="44.59424687186089" lon="7.361243359892268"><ele>1076.0</ele><time>2026-05-01T13:18:16Z</time></trkpt><trkpt lat="44.594258516575415" lon="7.3611484264371345"><ele>1076.0</ele><time>2026-05-01T13:18:17Z</time></trkpt><trkpt lat="44.59428265276149" lon="7.360977589542082"><ele>1076.0</ele><time>2026-05-01T13:18:18Z</time></trkpt><trkpt lat="44.59431077299683" lon="7.360811459016568"><ele>1076.0</ele><time>2026-05-01T13:18:19Z</time></trkpt><trkpt lat="44.59434249443328" lon="7.360710085741933"><ele>1076.0</ele><time>2026-05-01T13:18:20Z</time></trkpt><trkpt lat="44.594401643437145" lon="7.3606258519534356"><ele>1075.5</ele><time>2026-05-01T13:18:21Z</time></trkpt><trkpt lat="44.59445395566361" lon="7.360483850205112"><ele>1075.0</ele><time>2026-05-01T13:18:22Z</time></trkpt><trkpt lat="44.594480271192715" lon="7.360400105060766"><ele>1074.5</ele><time>2026-05-01T13:18:23Z</time></trkpt><trkpt lat="44.59452593785043" lon="7.3603015422068445"><ele>1074.0</ele><time>2026-05-01T13:18:24Z</time></trkpt><trkpt lat="44.594560063483904" lon="7.360224776879469"><ele>1073.5</ele><time>2026-05-01T13:18:25Z</time></trkpt><trkpt lat="44.59462069256287" lon="7.360175988080182"><ele>1073.0</ele><time>2026-05-01T13:18:26Z</time></trkpt><trkpt lat="44.59470748889759" lon="7.360103682770067"><ele>1080.4</ele><time>2026-05-01T13:18:28Z</time></trkpt><trkpt lat="44.59478128557855" lon="7.360074972466552"><ele>1087.8</ele><time>2026-05-01T13:18:31Z</time></trkpt><trkpt lat="44.594874129934915" lon="7.360010946947781"><ele>1095.2</ele><time>2026-05-01T13:18:33Z</time></trkpt><trkpt lat="44.594942317930574" lon="7.359911818639152"><ele>1102.6</ele><time>2026-05-01T13:18:35Z</time></trkpt><trkpt lat="44.594996028134446" lon="7.359997951665906"><ele>1110.0</ele><time>2026-05-01T13:18:36Z</time></trkpt><trkpt lat="44.594975312617706" lon="7.360145753810612"><ele>1110.0</ele><time>2026-05-01T13:18:39Z</time></trkpt><trkpt lat="44.59490890345405" lon="7.360172512463322"><ele>1110.0</ele><time>2026-05-01T13:18:40Z</time></trkpt><trkpt lat="44.59489416334562" lon="7.360276143959114"><ele>1110.0</ele><time>2026-05-01T13:18:41Z</time></trkpt><trkpt lat="44.59483005553824" lon="7.360422989196644"><ele>1110.0</ele><time>2026-05-01T13:18:42.001Z</time></trkpt><trkpt lat="44.59480031850876" lon="7.3605575063280035"><ele>1110.0</ele><time>2026-05-01T13:18:43.001Z</time></trkpt><trkpt lat="44.594821195679934" lon="7.360698163307932"><ele>1110.0</ele><time>2026-05-01T13:18:45.001Z</time></trkpt><trkpt lat="44.59494358404862" lon="7.360723824093432"><ele>1110.0</ele><time>2026-05-01T13:18:47.001Z</time></trkpt><trkpt lat="44.59502544559497" lon="7.360670192904757"><ele>1110.0</ele><time>2026-05-01T13:18:48.001Z</time></trkpt><trkpt lat="44.59509445715607" lon="7.360590828519698"><ele>1110.0</ele><time>2026-05-01T13:18:49.001Z</time></trkpt><trkpt lat="44.595163709053985" lon="7.360468749824899"><ele>1110.0</ele><time>2026-05-01T13:18:50.001Z</time></trkpt><trkpt lat="44.59521134678983" lon="7.360327781574228"><ele>1110.0</ele><time>2026-05-01T13:18:51.001Z</time></trkpt><trkpt lat="44.59525969990593" lon="7.360202462533134"><ele>1110.0</ele><time>2026-05-01T13:18:52.001Z</time></trkpt><trkpt lat="44.59532903010943" lon="7.360065142738793"><ele>1110.0</ele><time>2026-05-01T13:18:53.001Z</time></trkpt><trkpt lat="44.59537959316421" lon="7.359938701916665"><ele>1110.0</ele><time>2026-05-01T13:18:54.001Z</time></trkpt><trkpt lat="44.5954215993596" lon="7.359816622030485"><ele>1110.0</ele><time>2026-05-01T13:18:55.001Z</time></trkpt><trkpt lat="44.59548634880011" lon="7.359652090880426"><ele>1115.4</ele><time>2026-05-01T13:18:56.001Z</time></trkpt><trkpt lat="44.59554696159123" lon="7.35951104842891"><ele>1120.8</ele><time>2026-05-01T13:18:57.001Z</time></trkpt><trkpt lat="44.59557304382623" lon="7.359386045003412"><ele>1126.2</ele><time>2026-05-01T13:18:58.001Z</time></trkpt><trkpt lat="44.59560719803221" lon="7.359255818021371"><ele>1131.6</ele><time>2026-05-01T13:18:59.001Z</time></trkpt><trkpt lat="44.59564695545426" lon="7.359105283660784"><ele>1137.0</ele><time>2026-05-01T13:19:00.001Z</time></trkpt><trkpt lat="44.595690868652255" lon="7.358982641324468"><ele>1137.0</ele><time>2026-05-01T13:19:01.001Z</time></trkpt><trkpt lat="44.59571928445968" lon="7.358894868994725"><ele>1137.0</ele><time>2026-05-01T13:19:02.001Z</time></trkpt><trkpt lat="44.595758177856936" lon="7.358817452100636"><ele>1137.0</ele><time>2026-05-01T13:19:03.001Z</time></trkpt><trkpt lat="44.59578080591323" lon="7.358630390152614"><ele>1137.0</ele><time>2026-05-01T13:19:05.001Z</time></trkpt><trkpt lat="44.59577140796468" lon="7.358517698312872"><ele>1137.0</ele><time>2026-05-01T13:19:06.001Z</time></trkpt><trkpt lat="44.59573093170475" lon="7.358392317154773"><ele>1138.5</ele><time>2026-05-01T13:19:07.001Z</time></trkpt><trkpt lat="44.59570079861451" lon="7.358265356801406"><ele>1140.0</ele><time>2026-05-01T13:19:08.001Z</time></trkpt><trkpt lat="44.59569368649468" lon="7.358174807879953"><ele>1141.5</ele><time>2026-05-01T13:19:09.001Z</time></trkpt><trkpt lat="44.59571544670304" lon="7.358012057135999"><ele>1143.0</ele><time>2026-05-01T13:19:11.001Z</time></trkpt><trkpt lat="44.59575583078317" lon="7.35790779931593"><ele>1144.5</ele><time>2026-05-01T13:19:12.001Z</time></trkpt><trkpt lat="44.595805863473345" lon="7.357811620069005"><ele>1146.0</ele><time>2026-05-01T13:19:13.001Z</time></trkpt><trkpt lat="44.59583788774847" lon="7.357682054928435"><ele>1146.0</ele><time>2026-05-01T13:19:14.001Z</time></trkpt><trkpt lat="44.59588308969478" lon="7.357585389764718"><ele>1146.0</ele><time>2026-05-01T13:19:15.001Z</time></trkpt><trkpt lat="44.595935560773476" lon="7.357529049520234"><ele>1146.0</ele><time>2026-05-01T13:19:16.001Z</time></trkpt><trkpt lat="44.59600669022393" lon="7.357463872493814"><ele>1146.0</ele><time>2026-05-01T13:19:17.001Z</time></trkpt><trkpt lat="44.59606007368431" lon="7.357398887241592"><ele>1146.0</ele><time>2026-05-01T13:19:18.001Z</time></trkpt><trkpt lat="44.59608330257545" lon="7.357269963798634"><ele>1146.0</ele><time>2026-05-01T13:19:20.001Z</time></trkpt><trkpt lat="44.59609836221605" lon="7.357140434125925"><ele>1145.0</ele><time>2026-05-01T13:19:21.001Z</time></trkpt><trkpt lat="44.596132744290415" lon="7.3570237097333955"><ele>1144.0</ele><time>2026-05-01T13:19:22.001Z</time></trkpt><trkpt lat="44.59617370515564" lon="7.356934288533161"><ele>1143.0</ele><time>2026-05-01T13:19:23.001Z</time></trkpt><trkpt lat="44.596220403526765" lon="7.356857425336153"><ele>1142.0</ele><time>2026-05-01T13:19:24.001Z</time></trkpt><trkpt lat="44.59629729502235" lon="7.3567655559517595"><ele>1141.0</ele><time>2026-05-01T13:19:25.001Z</time></trkpt><trkpt lat="44.59637810525437" lon="7.356667978410046"><ele>1140.0</ele><time>2026-05-01T13:19:26.001Z</time></trkpt><trkpt lat="44.59644016731137" lon="7.356506582360833"><ele>1145.2</ele><time>2026-05-01T13:19:27.001Z</time></trkpt><trkpt lat="44.596517053044224" lon="7.35636412936263"><ele>1150.4</ele><time>2026-05-01T13:19:28.001Z</time></trkpt><trkpt lat="44.596590453896496" lon="7.356279251346787"><ele>1155.6</ele><time>2026-05-01T13:19:29.001Z</time></trkpt><trkpt lat="44.59666813733092" lon="7.356199055901516"><ele>1160.8</ele><time>2026-05-01T13:19:30.001Z</time></trkpt><trkpt lat="44.59674993381193" lon="7.356130071082482"><ele>1166.0</ele><time>2026-05-01T13:19:31.001Z</time></trkpt><trkpt lat="44.59681676600351" lon="7.356023762064467"><ele>1166.0</ele><time>2026-05-01T13:19:32.001Z</time></trkpt><trkpt lat="44.59687791484587" lon="7.355887570745461"><ele>1166.0</ele><time>2026-05-01T13:19:32.999Z</time></trkpt><trkpt lat="44.59689486917017" lon="7.355777590394886"><ele>1166.0</ele><time>2026-05-01T13:19:33.999Z</time></trkpt><trkpt lat="44.59691220092674" lon="7.355663641974411"><ele>1166.0</ele><time>2026-05-01T13:19:34.999Z</time></trkpt><trkpt lat="44.596901684941095" lon="7.355566100375863"><ele>1166.0</ele><time>2026-05-01T13:19:35.999Z</time></trkpt><trkpt lat="44.59689030378141" lon="7.355452118307173"><ele>1166.0</ele><time>2026-05-01T13:19:36.999Z</time></trkpt><trkpt lat="44.596851039707055" lon="7.355337794774079"><ele>1168.8</ele><time>2026-05-01T13:19:37.999Z</time></trkpt><trkpt lat="44.596777615228284" lon="7.355226662576426"><ele>1171.6</ele><time>2026-05-01T13:19:38.999Z</time></trkpt><trkpt lat="44.59673347275343" lon="7.3551161654973525"><ele>1174.4</ele><time>2026-05-01T13:19:39.999Z</time></trkpt><trkpt lat="44.59669390538074" lon="7.3549801162143345"><ele>1177.2</ele><time>2026-05-01T13:19:40.999Z</time></trkpt><trkpt lat="44.59666810136762" lon="7.354835043003391"><ele>1180.0</ele><time>2026-05-01T13:19:41.999Z</time></trkpt><trkpt lat="44.596641705390354" lon="7.354682312692782"><ele>1182.0</ele><time>2026-05-01T13:19:42.999Z</time></trkpt><trkpt lat="44.59663624987303" lon="7.354555722200566"><ele>1184.0</ele><time>2026-05-01T13:19:43.999Z</time></trkpt><trkpt lat="44.59664529679864" lon="7.354433233277742"><ele>1186.0</ele><time>2026-05-01T13:19:44.999Z</time></trkpt><trkpt lat="44.59668417481113" lon="7.354318270336276"><ele>1188.0</ele><time>2026-05-01T13:19:45.999Z</time></trkpt><trkpt lat="44.59672960826365" lon="7.354213368512922"><ele>1190.0</ele><time>2026-05-01T13:19:46.999Z</time></trkpt><trkpt lat="44.59678641664535" lon="7.354093674056506"><ele>1190.0</ele><time>2026-05-01T13:19:48Z</time></trkpt><trkpt lat="44.5967998984794" lon="7.353971552280514"><ele>1190.0</ele><time>2026-05-01T13:19:49Z</time></trkpt><trkpt lat="44.596801788133575" lon="7.353817917395123"><ele>1190.0</ele><time>2026-05-01T13:19:50Z</time></trkpt><trkpt lat="44.59682128827655" lon="7.3536635920893225"><ele>1190.0</ele><time>2026-05-01T13:19:51Z</time></trkpt><trkpt lat="44.5968368424638" lon="7.353492530410477"><ele>1190.0</ele><time>2026-05-01T13:19:52Z</time></trkpt><trkpt lat="44.59686720234107" lon="7.353359185225103"><ele>1189.6666666666667</ele><time>2026-05-01T13:19:53Z</time></trkpt><trkpt lat="44.59688892597101" lon="7.353242575648776"><ele>1189.3333333333335</ele><time>2026-05-01T13:19:54Z</time></trkpt><trkpt lat="44.596911368506454" lon="7.353135661971515"><ele>1189.0</ele><time>2026-05-01T13:19:55Z</time></trkpt><trkpt lat="44.59693005784535" lon="7.353018807577615"><ele>1188.6666666666667</ele><time>2026-05-01T13:19:56Z</time></trkpt><trkpt lat="44.596997540625146" lon="7.352902765113199"><ele>1188.3333333333333</ele><time>2026-05-01T13:19:57Z</time></trkpt><trkpt lat="44.59700726395395" lon="7.352800852800161"><ele>1188.0</ele><time>2026-05-01T13:19:58Z</time></trkpt><trkpt lat="44.59705901740807" lon="7.352677024989621"><ele>1188.0</ele><time>2026-05-01T13:19:59Z</time></trkpt><trkpt lat="44.59710366482537" lon="7.35255630568272"><ele>1188.0</ele><time>2026-05-01T13:20:00Z</time></trkpt><trkpt lat="44.597153301941326" lon="7.352438932123951"><ele>1188.0</ele><time>2026-05-01T13:20:01Z</time></trkpt><trkpt lat="44.59718665984235" lon="7.352318297063718"><ele>1188.0</ele><time>2026-05-01T13:20:02Z</time></trkpt><trkpt lat="44.597219666679685" lon="7.352204311875777"><ele>1188.0</ele><time>2026-05-01T13:20:03Z</time></trkpt><trkpt lat="44.597226038011755" lon="7.352107098352166"><ele>1188.0</ele><time>2026-05-01T13:20:04Z</time></trkpt><trkpt lat="44.59725643259334" lon="7.351978168404601"><ele>1193.8</ele><time>2026-05-01T13:20:06Z</time></trkpt><trkpt lat="44.59731405517706" lon="7.351915495335804"><ele>1199.6</ele><time>2026-05-01T13:20:08Z</time></trkpt><trkpt lat="44.59746255779081" lon="7.3519287872261945"><ele>1205.4</ele><time>2026-05-01T13:20:10Z</time></trkpt><trkpt lat="44.597575819093954" lon="7.351991151163629"><ele>1211.2</ele><time>2026-05-01T13:20:11Z</time></trkpt><trkpt lat="44.59764765448698" lon="7.352028916380007"><ele>1217.0</ele><time>2026-05-01T13:20:12Z</time></trkpt><trkpt lat="44.597785263251154" lon="7.351990705588093"><ele>1219.6</ele><time>2026-05-01T13:20:14Z</time></trkpt><trkpt lat="44.59788981172844" lon="7.3519323028487245"><ele>1222.2</ele><time>2026-05-01T13:20:15Z</time></trkpt><trkpt lat="44.59796941388865" lon="7.3518861560845234"><ele>1224.8</ele><time>2026-05-01T13:20:16Z</time></trkpt><trkpt lat="44.59808392497132" lon="7.351886231621854"><ele>1227.4</ele><time>2026-05-01T13:20:18Z</time></trkpt><trkpt lat="44.598148602871234" lon="7.351902153791064"><ele>1230.0</ele><time>2026-05-01T13:20:19Z</time></trkpt><trkpt lat="44.59822049581639" lon="7.35192169663237"><ele>1230.0</ele><time>2026-05-01T13:20:20Z</time></trkpt><trkpt lat="44.598309948416215" lon="7.351942855648652"><ele>1230.0</ele><time>2026-05-01T13:20:21Z</time></trkpt><trkpt lat="44.59839914120925" lon="7.351936774530969"><ele>1230.0</ele><time>2026-05-01T13:20:22Z</time></trkpt><trkpt lat="44.59846469164952" lon="7.351960365888124"><ele>1230.0</ele><time>2026-05-01T13:20:23Z</time></trkpt><trkpt lat="44.598573991754286" lon="7.35199460353076"><ele>1230.0</ele><time>2026-05-01T13:20:25Z</time></trkpt><trkpt lat="44.5986308194978" lon="7.352051810905818"><ele>1230.0</ele><time>2026-05-01T13:20:26Z</time></trkpt><trkpt lat="44.5986915999558" lon="7.352095615181913"><ele>1230.0</ele><time>2026-05-01T13:20:27Z</time></trkpt><trkpt lat="44.59877454608837" lon="7.352013566035128"><ele>1230.0</ele><time>2026-05-01T13:20:29Z</time></trkpt><trkpt lat="44.598731943009795" lon="7.351892305308838"><ele>1230.0</ele><time>2026-05-01T13:20:31Z</time></trkpt><trkpt lat="44.598696757309206" lon="7.35181374050146"><ele>1230.0</ele><time>2026-05-01T13:20:32Z</time></trkpt><trkpt lat="44.598621117622855" lon="7.351773327321224"><ele>1230.0</ele><time>2026-05-01T13:20:34Z</time></trkpt><trkpt lat="44.598530043374524" lon="7.351686173006936"><ele>1230.0</ele><time>2026-05-01T13:20:35Z</time></trkpt><trkpt lat="44.59844123624841" lon="7.351600238213742"><ele>1230.0</ele><time>2026-05-01T13:20:36Z</time></trkpt><trkpt lat="44.598331784498775" lon="7.351529804402066"><ele>1230.0</ele><time>2026-05-01T13:20:37Z</time></trkpt><trkpt lat="44.59825548889748" lon="7.351439181612922"><ele>1230.0</ele><time>2026-05-01T13:20:38Z</time></trkpt><trkpt lat="44.59820159172541" lon="7.351365771273932"><ele>1230.0</ele><time>2026-05-01T13:20:39Z</time></trkpt><trkpt lat="44.59809676693169" lon="7.3513065205055605"><ele>1234.3333333333333</ele><time>2026-05-01T13:20:41.001Z</time></trkpt><trkpt lat="44.59803383772415" lon="7.351261843059649"><ele>1238.6666666666667</ele><time>2026-05-01T13:20:42.001Z</time></trkpt><trkpt lat="44.59796904791911" lon="7.351206018496184"><ele>1243.0</ele><time>2026-05-01T13:20:43.001Z</time></trkpt><trkpt lat="44.59789200361243" lon="7.351152134237145"><ele>1247.3333333333335</ele><time>2026-05-01T13:20:44.001Z</time></trkpt><trkpt lat="44.5977612358966" lon="7.351077602255922"><ele>1251.6666666666667</ele><time>2026-05-01T13:20:45.001Z</time></trkpt><trkpt lat="44.597700103788355" lon="7.351033941254462"><ele>1256.0</ele><time>2026-05-01T13:20:46.001Z</time></trkpt><trkpt lat="44.59760973149423" lon="7.351004660370674"><ele>1256.0</ele><time>2026-05-01T13:20:47.001Z</time></trkpt><trkpt lat="44.59753652772694" lon="7.350975850599418"><ele>1256.0</ele><time>2026-05-01T13:20:48.001Z</time></trkpt><trkpt lat="44.597444513983035" lon="7.350929945862188"><ele>1256.0</ele><time>2026-05-01T13:20:49.001Z</time></trkpt><trkpt lat="44.597358709665244" lon="7.3508386885716686"><ele>1256.0</ele><time>2026-05-01T13:20:50.001Z</time></trkpt><trkpt lat="44.59728703042736" lon="7.35079280766542"><ele>1256.0</ele><time>2026-05-01T13:20:51.001Z</time></trkpt><trkpt lat="44.59721156426179" lon="7.350788841213583"><ele>1256.0</ele><time>2026-05-01T13:20:52.001Z</time></trkpt><trkpt lat="44.59712455295269" lon="7.350753333999693"><ele>1256.0</ele><time>2026-05-01T13:20:53.001Z</time></trkpt><trkpt lat="44.59703750491678" lon="7.3507360131326065"><ele>1256.0</ele><time>2026-05-01T13:20:54.001Z</time></trkpt><trkpt lat="44.59690100113248" lon="7.3506631260765465"><ele>1256.0</ele><time>2026-05-01T13:20:56.001Z</time></trkpt><trkpt lat="44.596836484120395" lon="7.350646873334868"><ele>1256.0</ele><time>2026-05-01T13:20:57.001Z</time></trkpt><trkpt lat="44.59675860912237" lon="7.350676336124205"><ele>1256.0</ele><time>2026-05-01T13:20:59.001Z</time></trkpt><trkpt lat="44.596709209848285" lon="7.35081413044132"><ele>1257.0</ele><time>2026-05-01T13:21:01.001Z</time></trkpt><trkpt lat="44.59664213449287" lon="7.3509023457916545"><ele>1258.0</ele><time>2026-05-01T13:21:02.001Z</time></trkpt><trkpt lat="44.59650688152253" lon="7.351035801258756"><ele>1259.0</ele><time>2026-05-01T13:21:04.001Z</time></trkpt><trkpt lat="44.5964433954923" lon="7.351112897049563"><ele>1260.0</ele><time>2026-05-01T13:21:05.001Z</time></trkpt><trkpt lat="44.59637459413619" lon="7.351206176978272"><ele>1261.0</ele><time>2026-05-01T13:21:06.001Z</time></trkpt><trkpt lat="44.596293440652495" lon="7.351264160505285"><ele>1261.0</ele><time>2026-05-01T13:21:07.001Z</time></trkpt><trkpt lat="44.59622644448465" lon="7.3512929234811235"><ele>1261.0</ele><time>2026-05-01T13:21:08.001Z</time></trkpt><trkpt lat="44.596161061161254" lon="7.351358838467715"><ele>1261.0</ele><time>2026-05-01T13:21:09.001Z</time></trkpt><trkpt lat="44.59610446972701" lon="7.351441870120428"><ele>1261.0</ele><time>2026-05-01T13:21:10.001Z</time></trkpt><trkpt lat="44.59606666209026" lon="7.351525545127235"><ele>1261.0</ele><time>2026-05-01T13:21:11.001Z</time></trkpt><trkpt lat="44.59598476935691" lon="7.351669398237737"><ele>1261.0</ele><time>2026-05-01T13:21:13.001Z</time></trkpt><trkpt lat="44.595915869880955" lon="7.3517153909347845"><ele>1261.3999999999999</ele><time>2026-05-01T13:21:14.001Z</time></trkpt><trkpt lat="44.595826023217015" lon="7.351704796620165"><ele>1261.8</ele><time>2026-05-01T13:21:16.001Z</time></trkpt><trkpt lat="44.595790207547374" lon="7.351613565383293"><ele>1262.1999999999998</ele><time>2026-05-01T13:21:17.001Z</time></trkpt><trkpt lat="44.59573432615609" lon="7.351503415166725"><ele>1262.6</ele><time>2026-05-01T13:21:18.001Z</time></trkpt><trkpt lat="44.59567376750781" lon="7.351405878701573"><ele>1263.0</ele><time>2026-05-01T13:21:19.001Z</time></trkpt><trkpt lat="44.59559822743617" lon="7.351310967005966"><ele>1265.3333333333333</ele><time>2026-05-01T13:21:20.001Z</time></trkpt><trkpt lat="44.59553101997515" lon="7.351234790613329"><ele>1267.6666666666667</ele><time>2026-05-01T13:21:21.001Z</time></trkpt><trkpt lat="44.595464761610465" lon="7.351136203757285"><ele>1270.0</ele><time>2026-05-01T13:21:22.001Z</time></trkpt><trkpt lat="44.595411314165474" lon="7.351044994945713"><ele>1272.3333333333335</ele><time>2026-05-01T13:21:23.001Z</time></trkpt><trkpt lat="44.59538026327277" lon="7.3509542917237205"><ele>1274.6666666666667</ele><time>2026-05-01T13:21:24.001Z</time></trkpt><trkpt lat="44.59535227419363" lon="7.350845496296467"><ele>1277.0</ele><time>2026-05-01T13:21:25.001Z</time></trkpt><trkpt lat="44.59529456103933" lon="7.3507192458080155"><ele>1277.0</ele><time>2026-05-01T13:21:26.001Z</time></trkpt><trkpt lat="44.5952215228149" lon="7.350614183016302"><ele>1277.0</ele><time>2026-05-01T13:21:27.001Z</time></trkpt><trkpt lat="44.59514863703893" lon="7.350508358809413"><ele>1277.0</ele><time>2026-05-01T13:21:28.001Z</time></trkpt><trkpt lat="44.59507979146102" lon="7.350393127756147"><ele>1277.0</ele><time>2026-05-01T13:21:29.001Z</time></trkpt><trkpt lat="44.59498423478346" lon="7.35030974028534"><ele>1277.0</ele><time>2026-05-01T13:21:31.001Z</time></trkpt><trkpt lat="44.59491122991263" lon="7.350266661057135"><ele>1281.2</ele><time>2026-05-01T13:21:32.001Z</time></trkpt><trkpt lat="44.59481314525654" lon="7.350234534901032"><ele>1285.4</ele><time>2026-05-01T13:21:33.001Z</time></trkpt><trkpt lat="44.59473071583625" lon="7.350203591463"><ele>1289.6000000000001</ele><time>2026-05-01T13:21:34.001Z</time></trkpt><trkpt lat="44.5946529494086" lon="7.350193838659142"><ele>1293.8000000000002</ele><time>2026-05-01T13:21:35.001Z</time></trkpt><trkpt lat="44.59455301842207" lon="7.350162457652459"><ele>1298.0</ele><time>2026-05-01T13:21:36.001Z</time></trkpt><trkpt lat="44.59443997241806" lon="7.350115416023442"><ele>1298.0</ele><time>2026-05-01T13:21:37.001Z</time></trkpt><trkpt lat="44.59435266315191" lon="7.350041799817578"><ele>1298.0</ele><time>2026-05-01T13:21:38.001Z</time></trkpt><trkpt lat="44.594281973632526" lon="7.349984498799194"><ele>1298.0</ele><time>2026-05-01T13:21:39.999Z</time></trkpt><trkpt lat="44.594209000300005" lon="7.349886531509569"><ele>1298.0</ele><time>2026-05-01T13:21:41.999Z</time></trkpt><trkpt lat="44.59423127529623" lon="7.349759831321047"><ele>1298.0</ele><time>2026-05-01T13:21:43.999Z</time></trkpt><trkpt lat="44.594260756047795" lon="7.349666249419295"><ele>1299.6000000000001</ele><time>2026-05-01T13:21:44.999Z</time></trkpt><trkpt lat="44.59434963271575" lon="7.3495219695937015"><ele>1301.2</ele><time>2026-05-01T13:21:46.999Z</time></trkpt><trkpt lat="44.5944178042664" lon="7.349416008668785"><ele>1302.8</ele><time>2026-05-01T13:21:47.999Z</time></trkpt><trkpt lat="44.594471349416494" lon="7.34932595337438"><ele>1304.4</ele><time>2026-05-01T13:21:48.999Z</time></trkpt><trkpt lat="44.59454539383274" lon="7.349261176651536"><ele>1306.0</ele><time>2026-05-01T13:21:49.999Z</time></trkpt><trkpt lat="44.59461600232181" lon="7.349172718235979"><ele>1308.6</ele><time>2026-05-01T13:21:50.999Z</time></trkpt><trkpt lat="44.59466332274154" lon="7.3490366753582395"><ele>1311.1999999999998</ele><time>2026-05-01T13:21:51.999Z</time></trkpt><trkpt lat="44.59470953236127" lon="7.348904637921067"><ele>1313.8000000000002</ele><time>2026-05-01T13:21:52.999Z</time></trkpt><trkpt lat="44.59477172444861" lon="7.348749819838606"><ele>1316.4</ele><time>2026-05-01T13:21:53.999Z</time></trkpt><trkpt lat="44.59477091152002" lon="7.348619123679323"><ele>1319.0</ele><time>2026-05-01T13:21:54.999Z</time></trkpt><trkpt lat="44.59479984266977" lon="7.348470038295959"><ele>1320.75</ele><time>2026-05-01T13:21:55.999Z</time></trkpt><trkpt lat="44.594810754463396" lon="7.34831700176336"><ele>1322.5</ele><time>2026-05-01T13:21:57Z</time></trkpt><trkpt lat="44.59482079483835" lon="7.348139812417403"><ele>1324.25</ele><time>2026-05-01T13:21:58Z</time></trkpt><trkpt lat="44.59482376581933" lon="7.347955696534448"><ele>1326.0</ele><time>2026-05-01T13:21:59Z</time></trkpt><trkpt lat="44.5948266314682" lon="7.347775968084207"><ele>1326.1999999999998</ele><time>2026-05-01T13:22:00Z</time></trkpt><trkpt lat="44.59485644845666" lon="7.3475909142616604"><ele>1326.3999999999999</ele><time>2026-05-01T13:22:01Z</time></trkpt><trkpt lat="44.594888349254916" lon="7.347428686826682"><ele>1326.6</ele><time>2026-05-01T13:22:02Z</time></trkpt><trkpt lat="44.59491675522417" lon="7.347309062573965"><ele>1326.8</ele><time>2026-05-01T13:22:03Z</time></trkpt><trkpt lat="44.59491691691091" lon="7.347214953281188"><ele>1327.0</ele><time>2026-05-01T13:22:04Z</time></trkpt><trkpt lat="44.594906265492675" lon="7.347118385928715"><ele>1327.8333333333333</ele><time>2026-05-01T13:22:05Z</time></trkpt><trkpt lat="44.594900629886396" lon="7.347015029608575"><ele>1328.6666666666665</ele><time>2026-05-01T13:22:06Z</time></trkpt><trkpt lat="44.59488985889575" lon="7.346882234772089"><ele>1329.5</ele><time>2026-05-01T13:22:07Z</time></trkpt><trkpt lat="44.59488812090791" lon="7.34677039529349"><ele>1330.3333333333333</ele><time>2026-05-01T13:22:08Z</time></trkpt><trkpt lat="44.59491209132544" lon="7.346644080998736"><ele>1331.1666666666667</ele><time>2026-05-01T13:22:10Z</time></trkpt><trkpt lat="44.59491762889221" lon="7.346551352292516"><ele>1332.0</ele><time>2026-05-01T13:22:11Z</time></trkpt><trkpt lat="44.59491312211165" lon="7.346434099815852"><ele>1333.0</ele><time>2026-05-01T13:22:12Z</time></trkpt><trkpt lat="44.594857469317894" lon="7.34629548042354"><ele>1334.0</ele><time>2026-05-01T13:22:13Z</time></trkpt><trkpt lat="44.594760708407954" lon="7.346119689231388"><ele>1335.0</ele><time>2026-05-01T13:22:14Z</time></trkpt><trkpt lat="44.594704576592875" lon="7.345990278647809"><ele>1336.0</ele><time>2026-05-01T13:22:15Z</time></trkpt><trkpt lat="44.59472211151869" lon="7.345791546209402"><ele>1336.0</ele><time>2026-05-01T13:22:17Z</time></trkpt><trkpt lat="44.59477879951871" lon="7.345678776818999"><ele>1336.0</ele><time>2026-05-01T13:22:18Z</time></trkpt><trkpt lat="44.59483259878429" lon="7.345550211542457"><ele>1336.0</ele><time>2026-05-01T13:22:19Z</time></trkpt><trkpt lat="44.59489874931235" lon="7.3454334566440105"><ele>1336.0</ele><time>2026-05-01T13:22:20Z</time></trkpt><trkpt lat="44.59492209903909" lon="7.345326961924848"><ele>1336.0</ele><time>2026-05-01T13:22:21Z</time></trkpt><trkpt lat="44.594961668223135" lon="7.345238720930246"><ele>1336.0</ele><time>2026-05-01T13:22:22Z</time></trkpt><trkpt lat="44.595007375980394" lon="7.345153897774917"><ele>1336.0</ele><time>2026-05-01T13:22:23Z</time></trkpt><trkpt lat="44.59507635134076" lon="7.345043306112474"><ele>1336.0</ele><time>2026-05-01T13:22:24Z</time></trkpt><trkpt lat="44.5951338532316" lon="7.34491037942802"><ele>1336.0</ele><time>2026-05-01T13:22:25Z</time></trkpt><trkpt lat="44.595166788511705" lon="7.344801124630135"><ele>1336.0</ele><time>2026-05-01T13:22:26Z</time></trkpt><trkpt lat="44.595256594313625" lon="7.344798081203907"><ele>1336.0</ele><time>2026-05-01T13:22:28Z</time></trkpt><trkpt lat="44.59533569139444" lon="7.344783957000182"><ele>1336.0</ele><time>2026-05-01T13:22:29Z</time></trkpt><trkpt lat="44.5954041416471" lon="7.34474600545194"><ele>1336.0</ele><time>2026-05-01T13:22:30Z</time></trkpt><trkpt lat="44.59547919479254" lon="7.344677188735501"><ele>1336.0</ele><time>2026-05-01T13:22:31Z</time></trkpt><trkpt lat="44.5955768006256" lon="7.3446033973981715"><ele>1336.0</ele><time>2026-05-01T13:22:32Z</time></trkpt><trkpt lat="44.59561724560623" lon="7.344467816691684"><ele>1339.5</ele><time>2026-05-01T13:22:33Z</time></trkpt><trkpt lat="44.59565884319075" lon="7.344333940904964"><ele>1343.0</ele><time>2026-05-01T13:22:34Z</time></trkpt><trkpt lat="44.5957134070537" lon="7.344169547226639"><ele>1346.5</ele><time>2026-05-01T13:22:35Z</time></trkpt><trkpt lat="44.59575928876693" lon="7.343990326824885"><ele>1350.0</ele><time>2026-05-01T13:22:36Z</time></trkpt><trkpt lat="44.595786667132074" lon="7.343856954865263"><ele>1350.0</ele><time>2026-05-01T13:22:37Z</time></trkpt><trkpt lat="44.595823503614604" lon="7.3437349983274265"><ele>1350.0</ele><time>2026-05-01T13:22:38Z</time></trkpt><trkpt lat="44.59584137126435" lon="7.343594509491822"><ele>1350.0</ele><time>2026-05-01T13:22:39.001Z</time></trkpt><trkpt lat="44.59585021843605" lon="7.343463681897801"><ele>1350.0</ele><time>2026-05-01T13:22:40.001Z</time></trkpt><trkpt lat="44.59585381234118" lon="7.343366808497458"><ele>1350.0</ele><time>2026-05-01T13:22:41.001Z</time></trkpt><trkpt lat="44.59583938942309" lon="7.3432574572464455"><ele>1350.0</ele><time>2026-05-01T13:22:42.001Z</time></trkpt><trkpt lat="44.595843806999895" lon="7.3431107259552855"><ele>1350.2</ele><time>2026-05-01T13:22:43.001Z</time></trkpt><trkpt lat="44.59585751471225" lon="7.342940478774199"><ele>1350.4</ele><time>2026-05-01T13:22:44.001Z</time></trkpt><trkpt lat="44.59587487578719" lon="7.342743866378139"><ele>1350.6</ele><time>2026-05-01T13:22:45.001Z</time></trkpt><trkpt lat="44.59590262954964" lon="7.342611247433676"><ele>1350.8</ele><time>2026-05-01T13:22:46.001Z</time></trkpt><trkpt lat="44.595927316841895" lon="7.34249292066112"><ele>1351.0</ele><time>2026-05-01T13:22:47.001Z</time></trkpt><trkpt lat="44.59591066942106" lon="7.342312193597171"><ele>1350.25</ele><time>2026-05-01T13:22:48.001Z</time></trkpt><trkpt lat="44.59587839589147" lon="7.3420888631319645"><ele>1349.5</ele><time>2026-05-01T13:22:49.001Z</time></trkpt><trkpt lat="44.595862678235534" lon="7.341962787245432"><ele>1348.75</ele><time>2026-05-01T13:22:50.001Z</time></trkpt><trkpt lat="44.59590489441398" lon="7.341794431251965"><ele>1348.0</ele><time>2026-05-01T13:22:52.001Z</time></trkpt><trkpt lat="44.59598083640426" lon="7.341664062283417"><ele>1348.0</ele><time>2026-05-01T13:22:53.001Z</time></trkpt><trkpt lat="44.596078663648484" lon="7.341521803113806"><ele>1348.0</ele><time>2026-05-01T13:22:54.001Z</time></trkpt><trkpt lat="44.59615418766233" lon="7.341376204374632"><ele>1348.0</ele><time>2026-05-01T13:22:55.001Z</time></trkpt><trkpt lat="44.59620807948571" lon="7.341237660626658"><ele>1348.0</ele><time>2026-05-01T13:22:56.001Z</time></trkpt><trkpt lat="44.59624509897254" lon="7.341112123712756"><ele>1352.6000000000001</ele><time>2026-05-01T13:22:57.001Z</time></trkpt><trkpt lat="44.59628052840647" lon="7.3410174996215805"><ele>1357.2</ele><time>2026-05-01T13:22:58.001Z</time></trkpt><trkpt lat="44.59631393643577" lon="7.34092766875364"><ele>1361.8</ele><time>2026-05-01T13:22:59.001Z</time></trkpt><trkpt lat="44.596300064643856" lon="7.340789166189805"><ele>1366.4</ele><time>2026-05-01T13:23:00.001Z</time></trkpt><trkpt lat="44.59630304572189" lon="7.3406213967723595"><ele>1371.0</ele><time>2026-05-01T13:23:01.001Z</time></trkpt><trkpt lat="44.596341940497375" lon="7.340431241085485"><ele>1371.1999999999998</ele><time>2026-05-01T13:23:02.001Z</time></trkpt><trkpt lat="44.59638378385013" lon="7.340286829204448"><ele>1371.3999999999999</ele><time>2026-05-01T13:23:03.001Z</time></trkpt><trkpt lat="44.596424988689165" lon="7.340173566740744"><ele>1371.6</ele><time>2026-05-01T13:23:04.001Z</time></trkpt><trkpt lat="44.59645433871383" lon="7.340012871954154"><ele>1371.8</ele><time>2026-05-01T13:23:06.001Z</time></trkpt><trkpt lat="44.5964182430213" lon="7.339898998922644"><ele>1372.0</ele><time>2026-05-01T13:23:07.001Z</time></trkpt><trkpt lat="44.59636006455742" lon="7.3397849831619855"><ele>1374.0</ele><time>2026-05-01T13:23:08.001Z</time></trkpt><trkpt lat="44.596331733904776" lon="7.339640777199798"><ele>1376.0</ele><time>2026-05-01T13:23:09.001Z</time></trkpt><trkpt lat="44.59633558091176" lon="7.339491633426687"><ele>1378.0</ele><time>2026-05-01T13:23:10.001Z</time></trkpt><trkpt lat="44.596351347877324" lon="7.339365232394984"><ele>1380.0</ele><time>2026-05-01T13:23:11.001Z</time></trkpt><trkpt lat="44.596341046308204" lon="7.339271356758947"><ele>1382.0</ele><time>2026-05-01T13:23:12.001Z</time></trkpt><trkpt lat="44.59628810009115" lon="7.339112775328865"><ele>1382.0</ele><time>2026-05-01T13:23:14.001Z</time></trkpt><trkpt lat="44.596240464203255" lon="7.338950424486503"><ele>1382.0</ele><time>2026-05-01T13:23:15.001Z</time></trkpt><trkpt lat="44.59621105491661" lon="7.338812464418159"><ele>1382.0</ele><time>2026-05-01T13:23:16.001Z</time></trkpt><trkpt lat="44.596189066374855" lon="7.3386866092609315"><ele>1382.0</ele><time>2026-05-01T13:23:17.001Z</time></trkpt><trkpt lat="44.59618067583631" lon="7.33858805913567"><ele>1382.0</ele><time>2026-05-01T13:23:18.001Z</time></trkpt><trkpt lat="44.5961994270101" lon="7.33844843869114"><ele>1383.8</ele><time>2026-05-01T13:23:19.001Z</time></trkpt><trkpt lat="44.59620572127907" lon="7.338303861037444"><ele>1385.6</ele><time>2026-05-01T13:23:20.001Z</time></trkpt><trkpt lat="44.596200053991375" lon="7.338205984857209"><ele>1387.3999999999999</ele><time>2026-05-01T13:23:21.001Z</time></trkpt><trkpt lat="44.59617261562269" lon="7.33805952889481"><ele>1389.1999999999998</ele><time>2026-05-01T13:23:22.001Z</time></trkpt><trkpt lat="44.596139649049896" lon="7.33786792421591"><ele>1391.0</ele><time>2026-05-01T13:23:23.001Z</time></trkpt><trkpt lat="44.59612476439121" lon="7.337673594153444"><ele>1385.1666666666667</ele><time>2026-05-01T13:23:24.001Z</time></trkpt><trkpt lat="44.59610992492419" lon="7.337521641306306"><ele>1379.3333333333335</ele><time>2026-05-01T13:23:25.001Z</time></trkpt><trkpt lat="44.59607805388575" lon="7.337405819206207"><ele>1373.5</ele><time>2026-05-01T13:23:26.001Z</time></trkpt><trkpt lat="44.5960497109261" lon="7.337291608817624"><ele>1367.6666666666667</ele><time>2026-05-01T13:23:27.001Z</time></trkpt><trkpt lat="44.596040908664676" lon="7.337181420423723"><ele>1361.8333333333333</ele><time>2026-05-01T13:23:28.001Z</time></trkpt><trkpt lat="44.59602404690411" lon="7.33708023526503"><ele>1356.0</ele><time>2026-05-01T13:23:30.001Z</time></trkpt><trkpt lat="44.59601771629962" lon="7.33698702847533"><ele>1355.142857142857</ele><time>2026-05-01T13:23:37.002Z</time></trkpt><trkpt lat="44.596044839580024" lon="7.336894333572574"><ele>1354.2857142857144</ele><time>2026-05-01T13:23:42.002Z</time></trkpt><trkpt lat="44.596082699937774" lon="7.336816276813686"><ele>1353.4285714285716</ele><time>2026-05-01T13:23:43.002Z</time></trkpt><trkpt lat="44.59615889409601" lon="7.336783394348512"><ele>1352.5714285714284</ele><time>2026-05-01T13:23:44.002Z</time></trkpt><trkpt lat="44.596216617087926" lon="7.33672394487558"><ele>1351.7142857142858</ele><time>2026-05-01T13:23:44.999Z</time></trkpt><trkpt lat="44.59626168750333" lon="7.336646295164028"><ele>1350.857142857143</ele><time>2026-05-01T13:23:45.999Z</time></trkpt><trkpt lat="44.59625927937031" lon="7.336552806375882"><ele>1350.0</ele><time>2026-05-01T13:23:46.999Z</time></trkpt><trkpt lat="44.59626241913958" lon="7.336425100375471"><ele>1347.5</ele><time>2026-05-01T13:23:48.999Z</time></trkpt><trkpt lat="44.59616969071032" lon="7.336254852973557"><ele>1345.0</ele><time>2026-05-01T13:23:49.999Z</time></trkpt><trkpt lat="44.59623881639329" lon="7.336175109758402"><ele>1342.5</ele><time>2026-05-01T13:23:50.999Z</time></trkpt><trkpt lat="44.59636440811093" lon="7.336161925158928"><ele>1340.0</ele><time>2026-05-01T13:23:51.999Z</time></trkpt><trkpt lat="44.59647017340936" lon="7.33616859269196"><ele>1343.3333333333335</ele><time>2026-05-01T13:23:52.999Z</time></trkpt><trkpt lat="44.596538417686645" lon="7.336107360881593"><ele>1346.6666666666667</ele><time>2026-05-01T13:23:53.999Z</time></trkpt><trkpt lat="44.59662072379484" lon="7.336065214336664"><ele>1350.0</ele><time>2026-05-01T13:23:54.999Z</time></trkpt><trkpt lat="44.59669733346318" lon="7.336009033915517"><ele>1353.3333333333333</ele><time>2026-05-01T13:23:55.999Z</time></trkpt><trkpt lat="44.59679004754186" lon="7.3359402979248705"><ele>1356.6666666666665</ele><time>2026-05-01T13:23:56.999Z</time></trkpt><trkpt lat="44.596865346967164" lon="7.335882876689999"><ele>1360.0</ele><time>2026-05-01T13:23:57.999Z</time></trkpt><trkpt lat="44.59692210760196" lon="7.335838363116197"><ele>1360.0</ele><time>2026-05-01T13:23:59Z</time></trkpt><trkpt lat="44.596993953585155" lon="7.335779684583931"><ele>1360.0</ele><time>2026-05-01T13:24:00Z</time></trkpt><trkpt lat="44.59710052930518" lon="7.3356891139548015"><ele>1360.0</ele><time>2026-05-01T13:24:01Z</time></trkpt><trkpt lat="44.59719705029395" lon="7.335602523649223"><ele>1360.0</ele><time>2026-05-01T13:24:02Z</time></trkpt><trkpt lat="44.59727725606926" lon="7.335494838180204"><ele>1360.0</ele><time>2026-05-01T13:24:03Z</time></trkpt><trkpt lat="44.59733305195461" lon="7.335432023625925"><ele>1360.8</ele><time>2026-05-01T13:24:04Z</time></trkpt><trkpt lat="44.59735745977262" lon="7.335345869147538"><ele>1361.6</ele><time>2026-05-01T13:24:05Z</time></trkpt><trkpt lat="44.59745114359441" lon="7.335288344392222"><ele>1362.4</ele><time>2026-05-01T13:24:07Z</time></trkpt><trkpt lat="44.59753845125636" lon="7.335229173941908"><ele>1363.2</ele><time>2026-05-01T13:24:08Z</time></trkpt><trkpt lat="44.59764295680773" lon="7.335152619222166"><ele>1364.0</ele><time>2026-05-01T13:24:09Z</time></trkpt><trkpt lat="44.59775961189544" lon="7.33508952603702"><ele>1366.25</ele><time>2026-05-01T13:24:10Z</time></trkpt><trkpt lat="44.59789136588043" lon="7.335024182169287"><ele>1368.5</ele><time>2026-05-01T13:24:11Z</time></trkpt><trkpt lat="44.59801441726104" lon="7.334949580931632"><ele>1370.75</ele><time>2026-05-01T13:24:12Z</time></trkpt><trkpt lat="44.59811134054357" lon="7.334902604284762"><ele>1373.0</ele><time>2026-05-01T13:24:13Z</time></trkpt><trkpt lat="44.598187635796265" lon="7.33486532919105"><ele>1373.0</ele><time>2026-05-01T13:24:14Z</time></trkpt><trkpt lat="44.598256204708164" lon="7.334822139059666"><ele>1373.0</ele><time>2026-05-01T13:24:15Z</time></trkpt><trkpt lat="44.598320863257776" lon="7.3347304818257095"><ele>1373.0</ele><time>2026-05-01T13:24:16Z</time></trkpt><trkpt lat="44.598386286259995" lon="7.334601121505492"><ele>1373.0</ele><time>2026-05-01T13:24:17Z</time></trkpt><trkpt lat="44.598484402023956" lon="7.334481082710798"><ele>1373.0</ele><time>2026-05-01T13:24:18Z</time></trkpt><trkpt lat="44.598554956866515" lon="7.334387441845175"><ele>1373.4</ele><time>2026-05-01T13:24:19Z</time></trkpt><trkpt lat="44.59865096701798" lon="7.3343169009745"><ele>1373.8000000000002</ele><time>2026-05-01T13:24:20Z</time></trkpt><trkpt lat="44.598710150940335" lon="7.334223007642834"><ele>1374.2</ele><time>2026-05-01T13:24:21Z</time></trkpt><trkpt lat="44.59878535896319" lon="7.334146871061956"><ele>1374.6</ele><time>2026-05-01T13:24:22Z</time></trkpt><trkpt lat="44.598843168338306" lon="7.334059944941364"><ele>1375.0</ele><time>2026-05-01T13:24:23Z</time></trkpt><trkpt lat="44.598890553530715" lon="7.333953919310457"><ele>1374.2</ele><time>2026-05-01T13:24:24Z</time></trkpt><trkpt lat="44.5989515362448" lon="7.333854956652769"><ele>1373.4</ele><time>2026-05-01T13:24:25Z</time></trkpt><trkpt lat="44.59900322321529" lon="7.333731255079162"><ele>1372.6</ele><time>2026-05-01T13:24:26Z</time></trkpt><trkpt lat="44.599046213266135" lon="7.333585629121596"><ele>1371.8</ele><time>2026-05-01T13:24:27Z</time></trkpt><trkpt lat="44.59910384816712" lon="7.333497918241288"><ele>1371.0</ele><time>2026-05-01T13:24:28Z</time></trkpt><trkpt lat="44.59914181642495" lon="7.333421397397467"><ele>1371.0</ele><time>2026-05-01T13:24:29Z</time></trkpt><trkpt lat="44.59918414877175" lon="7.333315042741739"><ele>1371.0</ele><time>2026-05-01T13:24:30Z</time></trkpt><trkpt lat="44.59926597417193" lon="7.333222096127757"><ele>1371.0</ele><time>2026-05-01T13:24:31Z</time></trkpt><trkpt lat="44.59933536346779" lon="7.333158007163612"><ele>1371.0</ele><time>2026-05-01T13:24:32Z</time></trkpt><trkpt lat="44.599401992406094" lon="7.333127790519332"><ele>1371.0</ele><time>2026-05-01T13:24:33Z</time></trkpt><trkpt lat="44.59950201225662" lon="7.3330193988584975"><ele>1374.3333333333333</ele><time>2026-05-01T13:24:34Z</time></trkpt><trkpt lat="44.599591488937115" lon="7.332952508112412"><ele>1377.6666666666667</ele><time>2026-05-01T13:24:35Z</time></trkpt><trkpt lat="44.599650677708965" lon="7.332881965983769"><ele>1381.0</ele><time>2026-05-01T13:24:36Z</time></trkpt><trkpt lat="44.5996701365531" lon="7.3327899729584205"><ele>1384.3333333333335</ele><time>2026-05-01T13:24:37Z</time></trkpt><trkpt lat="44.599712652457626" lon="7.332697467164933"><ele>1387.6666666666667</ele><time>2026-05-01T13:24:38Z</time></trkpt><trkpt lat="44.59978847320781" lon="7.332594183800628"><ele>1391.0</ele><time>2026-05-01T13:24:40.001Z</time></trkpt><trkpt lat="44.599838065725635" lon="7.3324694751573904"><ele>1391.0</ele><time>2026-05-01T13:24:41.001Z</time></trkpt><trkpt lat="44.59990296104717" lon="7.332361928800687"><ele>1391.0</ele><time>2026-05-01T13:24:42.001Z</time></trkpt><trkpt lat="44.599927789593636" lon="7.332248595118752"><ele>1391.0</ele><time>2026-05-01T13:24:43.001Z</time></trkpt><trkpt lat="44.59991879929304" lon="7.332099239662021"><ele>1391.0</ele><time>2026-05-01T13:24:44.001Z</time></trkpt><trkpt lat="44.59990257116804" lon="7.3319276529521"><ele>1391.0</ele><time>2026-05-01T13:24:45.001Z</time></trkpt><trkpt lat="44.59988548307808" lon="7.331761379529603"><ele>1390.8333333333335</ele><time>2026-05-01T13:24:46.001Z</time></trkpt><trkpt lat="44.59986490051309" lon="7.3316296289854215"><ele>1390.6666666666667</ele><time>2026-05-01T13:24:47.001Z</time></trkpt><trkpt lat="44.59985160232487" lon="7.331513285500751"><ele>1390.5</ele><time>2026-05-01T13:24:48.001Z</time></trkpt><trkpt lat="44.599844165046505" lon="7.331410224741265"><ele>1390.3333333333333</ele><time>2026-05-01T13:24:49.001Z</time></trkpt><trkpt lat="44.59989046762756" lon="7.331283068961832"><ele>1390.1666666666665</ele><time>2026-05-01T13:24:50.001Z</time></trkpt><trkpt lat="44.59993404329897" lon="7.331184006369797"><ele>1390.0</ele><time>2026-05-01T13:24:51.001Z</time></trkpt><trkpt lat="44.599964915580294" lon="7.331080296997904"><ele>1387.6666666666665</ele><time>2026-05-01T13:24:52.001Z</time></trkpt><trkpt lat="44.60002199004439" lon="7.331005740963571"><ele>1385.3333333333333</ele><time>2026-05-01T13:24:53.001Z</time></trkpt><trkpt lat="44.600058953587144" lon="7.330924881754569"><ele>1383.0</ele><time>2026-05-01T13:24:54.001Z</time></trkpt><trkpt lat="44.60016063316788" lon="7.330811373753606"><ele>1380.6666666666667</ele><time>2026-05-01T13:24:56.001Z</time></trkpt><trkpt lat="44.60020905467817" lon="7.330718464921544"><ele>1378.3333333333335</ele><time>2026-05-01T13:24:57.001Z</time></trkpt><trkpt lat="44.6002646972816" lon="7.330634701828116"><ele>1376.0</ele><time>2026-05-01T13:24:58.001Z</time></trkpt><trkpt lat="44.60032838032911" lon="7.330557629510982"><ele>1377.25</ele><time>2026-05-01T13:24:59.001Z</time></trkpt><trkpt lat="44.600403499122365" lon="7.330453836351303"><ele>1378.5</ele><time>2026-05-01T13:25:00.001Z</time></trkpt><trkpt lat="44.60048503612853" lon="7.330323763451097"><ele>1379.75</ele><time>2026-05-01T13:25:01.001Z</time></trkpt><trkpt lat="44.60056030713243" lon="7.330174969186765"><ele>1381.0</ele><time>2026-05-01T13:25:02.001Z</time></trkpt><trkpt lat="44.60061648079436" lon="7.33006587742917"><ele>1381.0</ele><time>2026-05-01T13:25:03.001Z</time></trkpt><trkpt lat="44.60064836254828" lon="7.3299504865912795"><ele>1381.0</ele><time>2026-05-01T13:25:04.001Z</time></trkpt><trkpt lat="44.60066632738007" lon="7.329786397270486"><ele>1381.0</ele><time>2026-05-01T13:25:05.001Z</time></trkpt><trkpt lat="44.600684486137446" lon="7.329668605474098"><ele>1381.0</ele><time>2026-05-01T13:25:06.001Z</time></trkpt><trkpt lat="44.60072888432819" lon="7.3295993760942"><ele>1381.0</ele><time>2026-05-01T13:25:07.001Z</time></trkpt><trkpt lat="44.600810196473766" lon="7.329531956923294"><ele>1378.6</ele><time>2026-05-01T13:25:08.001Z</time></trkpt><trkpt lat="44.6008998665982" lon="7.32943917058411"><ele>1376.1999999999998</ele><time>2026-05-01T13:25:09.001Z</time></trkpt><trkpt lat="44.60095824308719" lon="7.329338158139369"><ele>1373.8000000000002</ele><time>2026-05-01T13:25:10.001Z</time></trkpt><trkpt lat="44.601012167499704" lon="7.3292102793119005"><ele>1371.4</ele><time>2026-05-01T13:25:11.001Z</time></trkpt><trkpt lat="44.601073437264425" lon="7.329035285829206"><ele>1369.0</ele><time>2026-05-01T13:25:12.001Z</time></trkpt><trkpt lat="44.60111627215598" lon="7.32889202877627"><ele>1367.8000000000002</ele><time>2026-05-01T13:25:13.001Z</time></trkpt><trkpt lat="44.601150291597044" lon="7.328802158241141"><ele>1366.6000000000001</ele><time>2026-05-01T13:25:14.001Z</time></trkpt><trkpt lat="44.60117411784285" lon="7.3286693696485345"><ele>1365.4</ele><time>2026-05-01T13:25:16.001Z</time></trkpt><trkpt lat="44.6011400672819" lon="7.3285716233560265"><ele>1364.2</ele><time>2026-05-01T13:25:17.001Z</time></trkpt><trkpt lat="44.601056685085105" lon="7.328435179903739"><ele>1363.0</ele><time>2026-05-01T13:25:18.001Z</time></trkpt><trkpt lat="44.60099420632192" lon="7.328313915768059"><ele>1363.0</ele><time>2026-05-01T13:25:19.001Z</time></trkpt><trkpt lat="44.60091130953043" lon="7.328153146390639"><ele>1363.0</ele><time>2026-05-01T13:25:21.001Z</time></trkpt><trkpt lat="44.60088378112567" lon="7.328073043127901"><ele>1363.0</ele><time>2026-05-01T13:25:22.001Z</time></trkpt><trkpt lat="44.60091768984008" lon="7.327869718467231"><ele>1363.0</ele><time>2026-05-01T13:25:24.001Z</time></trkpt><trkpt lat="44.60097851740798" lon="7.327710950887625"><ele>1362.25</ele><time>2026-05-01T13:25:25.001Z</time></trkpt><trkpt lat="44.60104551425329" lon="7.327532850540738"><ele>1361.5</ele><time>2026-05-01T13:25:26.001Z</time></trkpt><trkpt lat="44.601103305158084" lon="7.327399979497208"><ele>1360.75</ele><time>2026-05-01T13:25:27.001Z</time></trkpt><trkpt lat="44.6011874772135" lon="7.327277643305275"><ele>1360.0</ele><time>2026-05-01T13:25:28.001Z</time></trkpt><trkpt lat="44.60124714261482" lon="7.327136733177679"><ele>1361.8</ele><time>2026-05-01T13:25:29.001Z</time></trkpt><trkpt lat="44.60131236920096" lon="7.327027897070798"><ele>1363.6</ele><time>2026-05-01T13:25:30.001Z</time></trkpt><trkpt lat="44.601355454787246" lon="7.326898191537345"><ele>1365.4</ele><time>2026-05-01T13:25:31.002Z</time></trkpt><trkpt lat="44.601407392466136" lon="7.326779706110283"><ele>1367.2</ele><time>2026-05-01T13:25:32.002Z</time></trkpt><trkpt lat="44.601477916644114" lon="7.326683732736619"><ele>1369.0</ele><time>2026-05-01T13:25:33.002Z</time></trkpt><trkpt lat="44.60155299908509" lon="7.326565945693912"><ele>1369.0</ele><time>2026-05-01T13:25:34.002Z</time></trkpt><trkpt lat="44.60163972971675" lon="7.326437379600589"><ele>1369.0</ele><time>2026-05-01T13:25:35.002Z</time></trkpt><trkpt lat="44.60170926710071" lon="7.326313397557124"><ele>1369.0</ele><time>2026-05-01T13:25:36.002Z</time></trkpt><trkpt lat="44.6017651152098" lon="7.326228494819333"><ele>1369.0</ele><time>2026-05-01T13:25:37.002Z</time></trkpt><trkpt lat="44.60179321071415" lon="7.326076260712758"><ele>1369.0</ele><time>2026-05-01T13:25:38.002Z</time></trkpt><trkpt lat="44.60181508051801" lon="7.325946181092181"><ele>1369.8000000000002</ele><time>2026-05-01T13:25:39.002Z</time></trkpt><trkpt lat="44.601845594822365" lon="7.325867830686531"><ele>1370.6000000000001</ele><time>2026-05-01T13:25:40.002Z</time></trkpt><trkpt lat="44.601968120177055" lon="7.325762102489941"><ele>1371.4</ele><time>2026-05-01T13:25:42.002Z</time></trkpt><trkpt lat="44.6020445613834" lon="7.325669131541948"><ele>1372.2</ele><time>2026-05-01T13:25:43.002Z</time></trkpt><trkpt lat="44.60210737428551" lon="7.325559487164516"><ele>1373.0</ele><time>2026-05-01T13:25:44.002Z</time></trkpt><trkpt lat="44.60216734007575" lon="7.325486830327349"><ele>1373.0</ele><time>2026-05-01T13:25:45.002Z</time></trkpt><trkpt lat="44.60221437214316" lon="7.3254150229352035"><ele>1373.0</ele><time>2026-05-01T13:25:47.002Z</time></trkpt><trkpt lat="44.60215993898608" lon="7.325302890148641"><ele>1373.0</ele><time>2026-05-01T13:25:48.002Z</time></trkpt><trkpt lat="44.60211246121069" lon="7.325147852141508"><ele>1373.0</ele><time>2026-05-01T13:25:50.002Z</time></trkpt><trkpt lat="44.60203833015803" lon="7.324969509984662"><ele>1373.0</ele><time>2026-05-01T13:25:52Z</time></trkpt><trkpt lat="44.602005156835965" lon="7.324864330766155"><ele>1371.1666666666667</ele><time>2026-05-01T13:25:53Z</time></trkpt><trkpt lat="44.60198143032006" lon="7.324760334690628"><ele>1369.3333333333335</ele><time>2026-05-01T13:25:54Z</time></trkpt><trkpt lat="44.60198189891196" lon="7.324664258743079"><ele>1367.5</ele><time>2026-05-01T13:25:56Z</time></trkpt><trkpt lat="44.602041402628224" lon="7.324521340109976"><ele>1365.6666666666667</ele><time>2026-05-01T13:25:58Z</time></trkpt><trkpt lat="44.6020923011271" lon="7.324426963672267"><ele>1363.8333333333333</ele><time>2026-05-01T13:25:59Z</time></trkpt><trkpt lat="44.6021380954431" lon="7.324311011775456"><ele>1362.0</ele><time>2026-05-01T13:26:00Z</time></trkpt><trkpt lat="44.60213747466687" lon="7.324192396129153"><ele>1367.0</ele><time>2026-05-01T13:26:01Z</time></trkpt><trkpt lat="44.602126657974395" lon="7.324056961318996"><ele>1372.0</ele><time>2026-05-01T13:26:02Z</time></trkpt><trkpt lat="44.602126271754855" lon="7.3239339673904436"><ele>1377.0</ele><time>2026-05-01T13:26:03Z</time></trkpt><trkpt lat="44.60215260227966" lon="7.32384655759274"><ele>1382.0</ele><time>2026-05-01T13:26:04Z</time></trkpt><trkpt lat="44.60220563634184" lon="7.3236602718952755"><ele>1387.0</ele><time>2026-05-01T13:26:06Z</time></trkpt><trkpt lat="44.602220223852626" lon="7.3235529392638155"><ele>1387.3999999999999</ele><time>2026-05-01T13:26:07Z</time></trkpt><trkpt lat="44.60226024763477" lon="7.323463742750957"><ele>1387.8</ele><time>2026-05-01T13:26:08Z</time></trkpt><trkpt lat="44.602301421659604" lon="7.3233007115800275"><ele>1388.2</ele><time>2026-05-01T13:26:10Z</time></trkpt><trkpt lat="44.602311452276155" lon="7.323199616918504"><ele>1388.6</ele><time>2026-05-01T13:26:11Z</time></trkpt><trkpt lat="44.60234236072117" lon="7.323084993445205"><ele>1389.0</ele><time>2026-05-01T13:26:12Z</time></trkpt><trkpt lat="44.6023962148469" lon="7.322913168256811"><ele>1386.75</ele><time>2026-05-01T13:26:13Z</time></trkpt><trkpt lat="44.602457476125004" lon="7.322735448473652"><ele>1384.5</ele><time>2026-05-01T13:26:14Z</time></trkpt><trkpt lat="44.60249524132929" lon="7.322602159262451"><ele>1382.25</ele><time>2026-05-01T13:26:15Z</time></trkpt><trkpt lat="44.60253582485275" lon="7.32246047774041"><ele>1380.0</ele><time>2026-05-01T13:26:16Z</time></trkpt><trkpt lat="44.602599689878204" lon="7.322280555572903"><ele>1377.8</ele><time>2026-05-01T13:26:17Z</time></trkpt><trkpt lat="44.60262799081543" lon="7.322122003190853"><ele>1375.6</ele><time>2026-05-01T13:26:18Z</time></trkpt><trkpt lat="44.60263828877902" lon="7.3219602812622915"><ele>1373.4</ele><time>2026-05-01T13:26:19Z</time></trkpt><trkpt lat="44.60265020355507" lon="7.321830412893305"><ele>1371.2</ele><time>2026-05-01T13:26:20Z</time></trkpt><trkpt lat="44.60264436591281" lon="7.321725243186319"><ele>1369.0</ele><time>2026-05-01T13:26:21Z</time></trkpt><trkpt lat="44.602663899559175" lon="7.321550314074068"><ele>1369.0</ele><time>2026-05-01T13:26:23Z</time></trkpt><trkpt lat="44.60267004854207" lon="7.321461928415042"><ele>1369.0</ele><time>2026-05-01T13:26:24Z</time></trkpt><trkpt lat="44.6026836514779" lon="7.32136017969781"><ele>1369.0</ele><time>2026-05-01T13:26:25Z</time></trkpt><trkpt lat="44.602709447323015" lon="7.3211393295688545"><ele>1369.0</ele><time>2026-05-01T13:26:27Z</time></trkpt><trkpt lat="44.602722386250235" lon="7.321016140723022"><ele>1369.0</ele><time>2026-05-01T13:26:28Z</time></trkpt><trkpt lat="44.60273040623922" lon="7.320907696074426"><ele>1369.8333333333333</ele><time>2026-05-01T13:26:29Z</time></trkpt><trkpt lat="44.6027282889791" lon="7.320786070548883"><ele>1370.6666666666665</ele><time>2026-05-01T13:26:30Z</time></trkpt><trkpt lat="44.60268597080678" lon="7.32071552048586"><ele>1371.5</ele><time>2026-05-01T13:26:38.001Z</time></trkpt><trkpt lat="44.60268442818522" lon="7.320625395227112"><ele>1372.3333333333333</ele><time>2026-05-01T13:26:42.001Z</time></trkpt><trkpt lat="44.602645716136266" lon="7.320525677568592"><ele>1373.1666666666667</ele><time>2026-05-01T13:26:44.001Z</time></trkpt><trkpt lat="44.60258314981751" lon="7.320420295241163"><ele>1374.0</ele><time>2026-05-01T13:26:49.001Z</time></trkpt><trkpt lat="44.60251915821815" lon="7.320426383558823"><ele>1377.8000000000002</ele><time>2026-05-01T13:26:58.001Z</time></trkpt><trkpt lat="44.60246126683768" lon="7.320339596854647"><ele>1381.6000000000001</ele><time>2026-05-01T13:27:00.001Z</time></trkpt><trkpt lat="44.602406191681304" lon="7.320205806454799"><ele>1385.4</ele><time>2026-05-01T13:27:01.001Z</time></trkpt><trkpt lat="44.60235862397512" lon="7.320049404946834"><ele>1389.2</ele><time>2026-05-01T13:27:03.001Z</time></trkpt><trkpt lat="44.60229074421596" lon="7.31990250295086"><ele>1393.0</ele><time>2026-05-01T13:27:05.001Z</time></trkpt><trkpt lat="44.602257058427064" lon="7.319800277158262"><ele>1395.3333333333333</ele><time>2026-05-01T13:27:06.001Z</time></trkpt><trkpt lat="44.60222252481828" lon="7.319676583121888"><ele>1397.6666666666665</ele><time>2026-05-01T13:27:07.001Z</time></trkpt><trkpt lat="44.60218937996722" lon="7.319549069467458"><ele>1400.0</ele><time>2026-05-01T13:27:08.001Z</time></trkpt><trkpt lat="44.60216253335617" lon="7.319438640777369"><ele>1402.3333333333333</ele><time>2026-05-01T13:27:09.001Z</time></trkpt><trkpt lat="44.602137120983926" lon="7.319306416428654"><ele>1404.6666666666667</ele><time>2026-05-01T13:27:10.001Z</time></trkpt><trkpt lat="44.60212311691088" lon="7.319214149346466"><ele>1407.0</ele><time>2026-05-01T13:27:11.001Z</time></trkpt><trkpt lat="44.6021365373441" lon="7.319122764213376"><ele>1407.0</ele><time>2026-05-01T13:27:12.001Z</time></trkpt><trkpt lat="44.602143736681676" lon="7.319015179344256"><ele>1407.0</ele><time>2026-05-01T13:27:13.001Z</time></trkpt><trkpt lat="44.60213748848308" lon="7.318861820356944"><ele>1407.0</ele><time>2026-05-01T13:27:15.001Z</time></trkpt><trkpt lat="44.60211865342768" lon="7.318670883655027"><ele>1407.0</ele><time>2026-05-01T13:27:17.001Z</time></trkpt><trkpt lat="44.60208954346831" lon="7.318545089914111"><ele>1407.0</ele><time>2026-05-01T13:27:18.001Z</time></trkpt><trkpt lat="44.60207145586889" lon="7.3184522621398775"><ele>1407.75</ele><time>2026-05-01T13:27:19.001Z</time></trkpt><trkpt lat="44.602041785975956" lon="7.318323058198152"><ele>1408.5</ele><time>2026-05-01T13:27:21.001Z</time></trkpt><trkpt lat="44.60199292881329" lon="7.318147402968805"><ele>1409.25</ele><time>2026-05-01T13:27:23.001Z</time></trkpt><trkpt lat="44.601922930666284" lon="7.317973652944271"><ele>1410.0</ele><time>2026-05-01T13:27:25.001Z</time></trkpt><trkpt lat="44.601888232716085" lon="7.317820225683282"><ele>1406.6</ele><time>2026-05-01T13:27:26.001Z</time></trkpt><trkpt lat="44.60182295291911" lon="7.317655591466482"><ele>1403.2</ele><time>2026-05-01T13:27:27.002Z</time></trkpt><trkpt lat="44.60175511460242" lon="7.317514965254095"><ele>1399.8000000000002</ele><time>2026-05-01T13:27:28.002Z</time></trkpt><trkpt lat="44.60169816324846" lon="7.317407644537649"><ele>1396.4</ele><time>2026-05-01T13:27:29.002Z</time></trkpt><trkpt lat="44.60163811684968" lon="7.3173030217289"><ele>1393.0</ele><time>2026-05-01T13:27:30.002Z</time></trkpt><trkpt lat="44.60157821017551" lon="7.317209623170229"><ele>1392.4</ele><time>2026-05-01T13:27:31.002Z</time></trkpt><trkpt lat="44.601519133640956" lon="7.3171337060478"><ele>1391.8000000000002</ele><time>2026-05-01T13:27:32.002Z</time></trkpt><trkpt lat="44.6014368667313" lon="7.31706659221649"><ele>1391.2</ele><time>2026-05-01T13:27:33.002Z</time></trkpt><trkpt lat="44.601335946984904" lon="7.316962624317522"><ele>1390.6</ele><time>2026-05-01T13:27:35.002Z</time></trkpt><trkpt lat="44.6012857356058" lon="7.316880906639041"><ele>1390.0</ele><time>2026-05-01T13:27:37.002Z</time></trkpt><trkpt lat="44.60120784437408" lon="7.316817244425973"><ele>1391.2</ele><time>2026-05-01T13:28:26Z</time></trkpt><trkpt lat="44.60111358986333" lon="7.316775207226876"><ele>1392.4</ele><time>2026-05-01T13:28:28Z</time></trkpt><trkpt lat="44.60109243897643" lon="7.316661673962615"><ele>1393.6</ele><time>2026-05-01T13:28:30Z</time></trkpt><trkpt lat="44.60108154742436" lon="7.316487106381472"><ele>1394.8</ele><time>2026-05-01T13:28:32Z</time></trkpt><trkpt lat="44.601053467004306" lon="7.316340897511368"><ele>1396.0</ele><time>2026-05-01T13:28:34Z</time></trkpt><trkpt lat="44.60100350280224" lon="7.316225068203733"><ele>1396.0</ele><time>2026-05-01T13:28:36Z</time></trkpt><trkpt lat="44.60096556703356" lon="7.316148034976502"><ele>1396.0</ele><time>2026-05-01T13:28:37Z</time></trkpt><trkpt lat="44.60091750568202" lon="7.316068590873884"><ele>1396.0</ele><time>2026-05-01T13:28:38Z</time></trkpt><trkpt lat="44.60086425910272" lon="7.315987593707505"><ele>1396.0</ele><time>2026-05-01T13:28:39Z</time></trkpt><trkpt lat="44.60081246916114" lon="7.31591529675293"><ele>1396.0</ele><time>2026-05-01T13:28:40.001Z</time></trkpt><trkpt lat="44.60071897397783" lon="7.315794111059554"><ele>1396.0</ele><time>2026-05-01T13:28:42.001Z</time></trkpt><trkpt lat="44.60066346418382" lon="7.3157302227022605"><ele>1396.0</ele><time>2026-05-01T13:28:43.001Z</time></trkpt><trkpt lat="44.60060221236522" lon="7.315667441271974"><ele>1396.0</ele><time>2026-05-01T13:28:44.001Z</time></trkpt><trkpt lat="44.600523102562505" lon="7.31558881528827"><ele>1396.0</ele><time>2026-05-01T13:28:46.001Z</time></trkpt><trkpt lat="44.60043199024012" lon="7.315497012245142"><ele>1396.0</ele><time>2026-05-01T13:28:56.001Z</time></trkpt><trkpt lat="44.60035278346098" lon="7.315411229904002"><ele>1396.0</ele><time>2026-05-01T13:28:57.001Z</time></trkpt><trkpt lat="44.60030294193039" lon="7.315339517929604"><ele>1398.8</ele><time>2026-05-01T13:28:58.001Z</time></trkpt><trkpt lat="44.60024808896372" lon="7.315252152717315"><ele>1401.6</ele><time>2026-05-01T13:28:59.001Z</time></trkpt><trkpt lat="44.600176118237286" lon="7.315122927689749"><ele>1404.4</ele><time>2026-05-01T13:29:00.001Z</time></trkpt><trkpt lat="44.60012302749402" lon="7.315006086164919"><ele>1407.2</ele><time>2026-05-01T13:29:01.001Z</time></trkpt><trkpt lat="44.600073115058855" lon="7.314879276627927"><ele>1410.0</ele><time>2026-05-01T13:29:02.001Z</time></trkpt><trkpt lat="44.60002879626824" lon="7.314764374098273"><ele>1408.8333333333333</ele><time>2026-05-01T13:29:03.001Z</time></trkpt><trkpt lat="44.59998498327541" lon="7.314647345115214"><ele>1407.6666666666667</ele><time>2026-05-01T13:29:04.001Z</time></trkpt><trkpt lat="44.599935653934104" lon="7.314549987316538"><ele>1406.5</ele><time>2026-05-01T13:29:05.001Z</time></trkpt><trkpt lat="44.59990457136538" lon="7.314466541092136"><ele>1405.3333333333335</ele><time>2026-05-01T13:29:06.001Z</time></trkpt><trkpt lat="44.599847540050064" lon="7.314361449914669"><ele>1404.1666666666667</ele><time>2026-05-01T13:29:07.001Z</time></trkpt><trkpt lat="44.59980982016849" lon="7.314268204341215"><ele>1403.0</ele><time>2026-05-01T13:29:08.001Z</time></trkpt><trkpt lat="44.59981861145125" lon="7.314137914983199"><ele>1403.0</ele><time>2026-05-01T13:29:09.001Z</time></trkpt><trkpt lat="44.59980271971931" lon="7.314025837110822"><ele>1403.0</ele><time>2026-05-01T13:29:10.001Z</time></trkpt><trkpt lat="44.59978544559024" lon="7.3139305098937015"><ele>1403.0</ele><time>2026-05-01T13:29:11.001Z</time></trkpt><trkpt lat="44.599720393016476" lon="7.313791665823164"><ele>1403.0</ele><time>2026-05-01T13:29:13.001Z</time></trkpt><trkpt lat="44.599664903370574" lon="7.313683279652862"><ele>1403.0</ele><time>2026-05-01T13:29:15.001Z</time></trkpt><trkpt lat="44.59960792115314" lon="7.313633085260234"><ele>1403.0</ele><time>2026-05-01T13:29:32.002Z</time></trkpt><trkpt lat="44.59954180255924" lon="7.313475629738575"><ele>1406.0</ele><time>2026-05-01T13:29:34.002Z</time></trkpt><trkpt lat="44.5994805929474" lon="7.313378024708712"><ele>1409.0</ele><time>2026-05-01T13:29:35.002Z</time></trkpt><trkpt lat="44.59939253326632" lon="7.31326390224827"><ele>1412.0</ele><time>2026-05-01T13:29:36.002Z</time></trkpt><trkpt lat="44.599341363634714" lon="7.313208460922074"><ele>1415.0</ele><time>2026-05-01T13:29:37.002Z</time></trkpt><trkpt lat="44.59923802162498" lon="7.313118043755633"><ele>1418.0</ele><time>2026-05-01T13:29:39.002Z</time></trkpt><trkpt lat="44.5991258005406" lon="7.313049122559809"><ele>1422.8000000000002</ele><time>2026-05-01T13:29:41.002Z</time></trkpt><trkpt lat="44.598995414860056" lon="7.31301656681985"><ele>1427.6</ele><time>2026-05-01T13:29:43.002Z</time></trkpt><trkpt lat="44.59888937427769" lon="7.313013678214157"><ele>1432.4</ele><time>2026-05-01T13:29:52.002Z</time></trkpt><trkpt lat="44.59880624300234" lon="7.3130255949148655"><ele>1437.1999999999998</ele><time>2026-05-01T13:29:54.002Z</time></trkpt><trkpt lat="44.598727978425444" lon="7.312997750407844"><ele>1442.0</ele><time>2026-05-01T13:29:56.002Z</time></trkpt><trkpt lat="44.59864294239609" lon="7.312985440634629"><ele>1442.0</ele><time>2026-05-01T13:29:58.002Z</time></trkpt><trkpt lat="44.59856555544467" lon="7.312977146010707"><ele>1442.0</ele><time>2026-05-01T13:30:00.002Z</time></trkpt><trkpt lat="44.59848730697844" lon="7.312969313920592"><ele>1442.0</ele><time>2026-05-01T13:30:01.002Z</time></trkpt><trkpt lat="44.598389981100226" lon="7.312967069014985"><ele>1442.0</ele><time>2026-05-01T13:30:03Z</time></trkpt><trkpt lat="44.59827371447043" lon="7.312970089796414"><ele>1442.0</ele><time>2026-05-01T13:30:05Z</time></trkpt><trkpt lat="44.59817796635917" lon="7.312973473552445"><ele>1442.0</ele><time>2026-05-01T13:30:07Z</time></trkpt><trkpt lat="44.59809804345148" lon="7.3129788874111075"><ele>1442.0</ele><time>2026-05-01T13:30:09Z</time></trkpt><trkpt lat="44.59801883605686" lon="7.312955793819922"><ele>1442.0</ele><time>2026-05-01T13:30:11Z</time></trkpt><trkpt lat="44.59793317469685" lon="7.312847868298991"><ele>1442.0</ele><time>2026-05-01T13:30:13Z</time></trkpt><trkpt lat="44.59784036566648" lon="7.312789545972599"><ele>1442.0</ele><time>2026-05-01T13:30:15Z</time></trkpt><trkpt lat="44.59776054719903" lon="7.312776125270572"><ele>1436.3999999999999</ele><time>2026-05-01T13:30:17Z</time></trkpt><trkpt lat="44.597670026597186" lon="7.3127514592507215"><ele>1430.8</ele><time>2026-05-01T13:30:21Z</time></trkpt><trkpt lat="44.5976010214502" lon="7.31274338063662"><ele>1425.2</ele><time>2026-05-01T13:30:24Z</time></trkpt><trkpt lat="44.59748924742435" lon="7.312738984905905"><ele>1419.6</ele><time>2026-05-01T13:30:26Z</time></trkpt><trkpt lat="44.59737532956651" lon="7.312742094955138"><ele>1414.0</ele><time>2026-05-01T13:30:28Z</time></trkpt><trkpt lat="44.59730728027263" lon="7.312711980803878"><ele>1414.0</ele><time>2026-05-01T13:30:29Z</time></trkpt><trkpt lat="44.5972136131572" lon="7.312686642943238"><ele>1414.0</ele><time>2026-05-01T13:30:31Z</time></trkpt><trkpt lat="44.59712975900997" lon="7.312596621803537"><ele>1414.0</ele><time>2026-05-01T13:30:33Z</time></trkpt><trkpt lat="44.59705717488031" lon="7.3125251090404895"><ele>1414.0</ele><time>2026-05-01T13:30:35Z</time></trkpt><trkpt lat="44.597023517172886" lon="7.312399061795053"><ele>1414.0</ele><time>2026-05-01T13:30:37Z</time></trkpt><trkpt lat="44.597013251334374" lon="7.312263746102067"><ele>1415.6666666666665</ele><time>2026-05-01T13:30:39Z</time></trkpt><trkpt lat="44.59702092137725" lon="7.312134825223897"><ele>1417.3333333333333</ele><time>2026-05-01T13:30:41.001Z</time></trkpt><trkpt lat="44.596994057198614" lon="7.31198448639051"><ele>1419.0</ele><time>2026-05-01T13:30:43.001Z</time></trkpt><trkpt lat="44.59697393583746" lon="7.31189307543134"><ele>1420.6666666666667</ele><time>2026-05-01T13:30:45.001Z</time></trkpt><trkpt lat="44.596968966239714" lon="7.31179142254269"><ele>1422.3333333333335</ele><time>2026-05-01T13:31:47.002Z</time></trkpt><trkpt lat="44.596990261349305" lon="7.3116925500255165"><ele>1424.0</ele><time>2026-05-01T13:31:50.002Z</time></trkpt><trkpt lat="44.59701420146337" lon="7.311567806315241"><ele>1423.9999999999998</ele><time>2026-05-01T13:32:05.002Z</time></trkpt><trkpt lat="44.597034849791626" lon="7.311473476260149"><ele>1424.0</ele><time>2026-05-01T13:32:13Z</time></trkpt><trkpt lat="44.5970485045497" lon="7.3113706890972034"><ele>1424.0</ele><time>2026-05-01T13:32:16Z</time></trkpt><trkpt lat="44.59704548776402" lon="7.3112700912249124"><ele>1424.0</ele><time>2026-05-01T13:32:18Z</time></trkpt><trkpt lat="44.597045980786696" lon="7.311181122472443"><ele>1424.0</ele><time>2026-05-01T13:32:20Z</time></trkpt><trkpt lat="44.5970584083094" lon="7.311059743823235"><ele>1423.9999999999998</ele><time>2026-05-01T13:32:23Z</time></trkpt><trkpt lat="44.59706223052388" lon="7.310949688616436"><ele>1424.0</ele><time>2026-05-01T13:32:26Z</time></trkpt><trkpt lat="44.59708975030499" lon="7.310831523937819"><ele>1423.0</ele><time>2026-05-01T13:32:28Z</time></trkpt><trkpt lat="44.59709592865368" lon="7.310702223536869"><ele>1422.0</ele><time>2026-05-01T13:32:30Z</time></trkpt><trkpt lat="44.597092303858325" lon="7.31059916918107"><ele>1421.0</ele><time>2026-05-01T13:32:34Z</time></trkpt><trkpt lat="44.597094238939775" lon="7.310493619211846"><ele>1420.0</ele><time>2026-05-01T13:32:38Z</time></trkpt><trkpt lat="44.59708883884462" lon="7.310398648059715"><ele>1419.0</ele><time>2026-05-01T13:32:43Z</time></trkpt><trkpt lat="44.597046333743116" lon="7.310318747878561"><ele>1418.0</ele><time>2026-05-01T13:33:10.001Z</time></trkpt><trkpt lat="44.59706757518186" lon="7.310418517758009"><ele>1418.0</ele><time>2026-05-01T13:35:56.002Z</time></trkpt><trkpt lat="44.59707082622608" lon="7.310529424684991"><ele>1418.0</ele><time>2026-05-01T13:35:59.002Z</time></trkpt><trkpt lat="44.597066856558094" lon="7.31063181121061"><ele>1418.0</ele><time>2026-05-01T13:36:01.002Z</time></trkpt><trkpt lat="44.59705260689037" lon="7.3107281739678"><ele>1418.0</ele><time>2026-05-01T13:36:04.002Z</time></trkpt><trkpt lat="44.59704779667719" lon="7.3108492532529326"><ele>1418.0</ele><time>2026-05-01T13:36:06.002Z</time></trkpt><trkpt lat="44.5970475062346" lon="7.310979405454703"><ele>1418.0</ele><time>2026-05-01T13:36:08.002Z</time></trkpt><trkpt lat="44.59703936598043" lon="7.311097332457116"><ele>1418.0</ele><time>2026-05-01T13:36:10.002Z</time></trkpt><trkpt lat="44.59703268396244" lon="7.31122623430798"><ele>1418.0</ele><time>2026-05-01T13:36:12.002Z</time></trkpt><trkpt lat="44.59707277294213" lon="7.3112991315175755"><ele>1418.0</ele><time>2026-05-01T13:36:15.002Z</time></trkpt><trkpt lat="44.597053104503864" lon="7.3114143887239145"><ele>1418.0</ele><time>2026-05-01T13:36:16.002Z</time></trkpt><trkpt lat="44.59703219459351" lon="7.311508247989194"><ele>1418.0</ele><time>2026-05-01T13:36:17.002Z</time></trkpt><trkpt lat="44.59700938190402" lon="7.311603476247961"><ele>1418.0</ele><time>2026-05-01T13:36:19.002Z</time></trkpt><trkpt lat="44.596978987999194" lon="7.3116951054370105"><ele>1412.1666666666667</ele><time>2026-05-01T13:36:21.999Z</time></trkpt><trkpt lat="44.596947232867144" lon="7.311791135262634"><ele>1406.3333333333335</ele><time>2026-05-01T13:36:23.999Z</time></trkpt><trkpt lat="44.59692306778934" lon="7.3119166443473995"><ele>1400.5</ele><time>2026-05-01T13:36:29.999Z</time></trkpt><trkpt lat="44.59693036477569" lon="7.312062093872756"><ele>1394.6666666666667</ele><time>2026-05-01T13:36:48Z</time></trkpt><trkpt lat="44.59685366536043" lon="7.312147789286385"><ele>1388.8333333333333</ele><time>2026-05-01T13:36:54Z</time></trkpt><trkpt lat="44.596797844148895" lon="7.312217023389257"><ele>1383.0</ele><time>2026-05-01T13:36:59Z</time></trkpt><trkpt lat="44.596735229640885" lon="7.312295968233263"><ele>1383.0</ele><time>2026-05-01T13:37:02Z</time></trkpt><trkpt lat="44.596654446026555" lon="7.312362175934664"><ele>1383.0</ele><time>2026-05-01T13:37:05Z</time></trkpt><trkpt lat="44.5965986703703" lon="7.312427211540523"><ele>1383.0</ele><time>2026-05-01T13:37:07Z</time></trkpt><trkpt lat="44.59654385001676" lon="7.312516420377008"><ele>1383.0</ele><time>2026-05-01T13:37:09.001Z</time></trkpt><trkpt lat="44.596508899921126" lon="7.312610975739056"><ele>1383.0</ele><time>2026-05-01T13:37:11.001Z</time></trkpt><trkpt lat="44.5964487257044" lon="7.312668103914675"><ele>1383.0</ele><time>2026-05-01T13:37:45.001Z</time></trkpt><trkpt lat="44.59638333376535" lon="7.312686394737281"><ele>1383.0</ele><time>2026-05-01T13:40:39.999Z</time></trkpt></trkseg><trkseg><trkpt lat="44.59647163973629" lon="7.312607295385572"><ele>1383.0</ele><time>2026-05-01T14:12:09.001Z</time></trkpt><trkpt lat="44.596529689007774" lon="7.312556574983455"><ele>1383.0</ele><time>2026-05-01T14:13:16.002Z</time></trkpt><trkpt lat="44.59658241757398" lon="7.312428100208046"><ele>1383.0</ele><time>2026-05-01T14:13:19.002Z</time></trkpt><trkpt lat="44.596648727639106" lon="7.3123523098987"><ele>1383.0</ele><time>2026-05-01T14:13:20.002Z</time></trkpt><trkpt lat="44.59671092304702" lon="7.31229531674139"><ele>1383.0</ele><time>2026-05-01T14:13:21.002Z</time></trkpt><trkpt lat="44.59679131802652" lon="7.312208655822174"><ele>1383.0</ele><time>2026-05-01T14:13:23.002Z</time></trkpt><trkpt lat="44.59683326308029" lon="7.312140740892376"><ele>1383.0</ele><time>2026-05-01T14:13:25.002Z</time></trkpt><trkpt lat="44.5968833496714" lon="7.312071661420354"><ele>1383.0</ele><time>2026-05-01T14:13:27.002Z</time></trkpt><trkpt lat="44.59693716390332" lon="7.3120239073803415"><ele>1383.0</ele><time>2026-05-01T14:13:30.002Z</time></trkpt><trkpt lat="44.59697694538686" lon="7.312106679655716"><ele>1383.0</ele><time>2026-05-01T14:13:34.002Z</time></trkpt><trkpt lat="44.59697756226122" lon="7.312252347187747"><ele>1383.0</ele><time>2026-05-01T14:13:36.002Z</time></trkpt><trkpt lat="44.596982133965305" lon="7.312342321740087"><ele>1383.0</ele><time>2026-05-01T14:13:38.002Z</time></trkpt><trkpt lat="44.59699563459813" lon="7.3124810884353195"><ele>1389.2</ele><time>2026-05-01T14:13:40.002Z</time></trkpt><trkpt lat="44.597016339298435" lon="7.312581488253788"><ele>1395.4</ele><time>2026-05-01T14:13:42.002Z</time></trkpt><trkpt lat="44.59708532742524" lon="7.31265667970911"><ele>1401.6000000000001</ele><time>2026-05-01T14:13:44.002Z</time></trkpt><trkpt lat="44.59718961671228" lon="7.31272282393402"><ele>1407.8000000000002</ele><time>2026-05-01T14:13:46.002Z</time></trkpt><trkpt lat="44.597290380854524" lon="7.312729021133724"><ele>1414.0</ele><time>2026-05-01T14:13:48.002Z</time></trkpt><trkpt lat="44.59737634220952" lon="7.312729034558419"><ele>1414.0</ele><time>2026-05-01T14:13:49.002Z</time></trkpt><trkpt lat="44.597492235217985" lon="7.312653246429867"><ele>1414.0</ele><time>2026-05-01T14:13:51.002Z</time></trkpt><trkpt lat="44.59758698383658" lon="7.3127085264083735"><ele>1414.0</ele><time>2026-05-01T14:13:53.002Z</time></trkpt><trkpt lat="44.59766578631238" lon="7.312795013254368"><ele>1414.0</ele><time>2026-05-01T14:13:55.002Z</time></trkpt><trkpt lat="44.597734675104846" lon="7.312794096009841"><ele>1414.0</ele><time>2026-05-01T14:13:57.002Z</time></trkpt><trkpt lat="44.59778773131328" lon="7.312853317849331"><ele>1419.6</ele><time>2026-05-01T14:14:00Z</time></trkpt><trkpt lat="44.59789552257045" lon="7.31289328262869"><ele>1425.2</ele><time>2026-05-01T14:14:02Z</time></trkpt><trkpt lat="44.597976171733734" lon="7.312934793659471"><ele>1430.8</ele><time>2026-05-01T14:14:04Z</time></trkpt><trkpt lat="44.59804628966397" lon="7.313031096027692"><ele>1436.3999999999999</ele><time>2026-05-01T14:14:06Z</time></trkpt><trkpt lat="44.59811214525007" lon="7.31302242140389"><ele>1442.0</ele><time>2026-05-01T14:14:08Z</time></trkpt><trkpt lat="44.59820358924419" lon="7.313036664195186"><ele>1442.0</ele><time>2026-05-01T14:14:10Z</time></trkpt><trkpt lat="44.598278793448316" lon="7.313014890318496"><ele>1442.0</ele><time>2026-05-01T14:14:12Z</time></trkpt><trkpt lat="44.59836054582786" lon="7.313014410803444"><ele>1442.0</ele><time>2026-05-01T14:14:14Z</time></trkpt><trkpt lat="44.59846916158473" lon="7.312986231998296"><ele>1442.0</ele><time>2026-05-01T14:14:16Z</time></trkpt><trkpt lat="44.5985527605397" lon="7.3130261792553615"><ele>1442.0</ele><time>2026-05-01T14:14:18Z</time></trkpt><trkpt lat="44.59865790152443" lon="7.313024484129926"><ele>1445.1999999999998</ele><time>2026-05-01T14:14:20Z</time></trkpt><trkpt lat="44.59876696255246" lon="7.313046725524677"><ele>1448.4</ele><time>2026-05-01T14:14:22Z</time></trkpt><trkpt lat="44.598871847400545" lon="7.313039092198568"><ele>1451.6</ele><time>2026-05-01T14:14:24Z</time></trkpt><trkpt lat="44.59897692286325" lon="7.313093005613942"><ele>1454.8000000000002</ele><time>2026-05-01T14:14:26Z</time></trkpt><trkpt lat="44.59907024004151" lon="7.313100722056896"><ele>1458.0</ele><time>2026-05-01T14:14:27Z</time></trkpt><trkpt lat="44.59915024943438" lon="7.313157852856874"><ele>1451.3333333333333</ele><time>2026-05-01T14:14:29Z</time></trkpt><trkpt lat="44.59921428063912" lon="7.3131873871985675"><ele>1444.6666666666667</ele><time>2026-05-01T14:14:30Z</time></trkpt><trkpt lat="44.59931995264196" lon="7.313264512477994"><ele>1438.0</ele><time>2026-05-01T14:14:32Z</time></trkpt><trkpt lat="44.59936638955706" lon="7.313324548188786"><ele>1431.3333333333335</ele><time>2026-05-01T14:14:33Z</time></trkpt><trkpt lat="44.599418945070234" lon="7.313416779993571"><ele>1424.6666666666667</ele><time>2026-05-01T14:14:35Z</time></trkpt><trkpt lat="44.59946588401913" lon="7.313483254137709"><ele>1418.0</ele><time>2026-05-01T14:14:37Z</time></trkpt><trkpt lat="44.59953819131573" lon="7.3135499886992426"><ele>1417.2857142857144</ele><time>2026-05-01T14:14:39Z</time></trkpt><trkpt lat="44.599587210948506" lon="7.313618418823348"><ele>1416.5714285714287</ele><time>2026-05-01T14:14:41Z</time></trkpt><trkpt lat="44.59962820487353" lon="7.3137240610550185"><ele>1415.857142857143</ele><time>2026-05-01T14:14:43.001Z</time></trkpt><trkpt lat="44.59967070345122" lon="7.313806988727322"><ele>1415.1428571428573</ele><time>2026-05-01T14:14:46.001Z</time></trkpt><trkpt lat="44.599714450690136" lon="7.313884552630479"><ele>1414.4285714285716</ele><time>2026-05-01T14:14:49.001Z</time></trkpt><trkpt lat="44.5997642690461" lon="7.313948647500052"><ele>1413.7142857142858</ele><time>2026-05-01T14:14:52.001Z</time></trkpt><trkpt lat="44.59977838858286" lon="7.314040933936423"><ele>1413.0</ele><time>2026-05-01T14:14:54.001Z</time></trkpt><trkpt lat="44.59978647124961" lon="7.314172639303151"><ele>1412.5</ele><time>2026-05-01T14:14:57.001Z</time></trkpt><trkpt lat="44.59979385724708" lon="7.314302053438876"><ele>1412.0</ele><time>2026-05-01T14:17:05.001Z</time></trkpt><trkpt lat="44.59983562876027" lon="7.314376386315937"><ele>1411.5</ele><time>2026-05-01T14:17:06.001Z</time></trkpt><trkpt lat="44.59986997768157" lon="7.31447084033013"><ele>1411.0</ele><time>2026-05-01T14:17:07.001Z</time></trkpt><trkpt lat="44.59990421764993" lon="7.314555514594295"><ele>1410.5</ele><time>2026-05-01T14:17:08.001Z</time></trkpt><trkpt lat="44.599960086931034" lon="7.314685522824444"><ele>1410.0</ele><time>2026-05-01T14:17:10.001Z</time></trkpt><trkpt lat="44.59998105480602" lon="7.314771440655497"><ele>1410.0</ele><time>2026-05-01T14:17:11.001Z</time></trkpt><trkpt lat="44.60004333952105" lon="7.31492944849715"><ele>1410.0</ele><time>2026-05-01T14:17:13.001Z</time></trkpt><trkpt lat="44.600106071090536" lon="7.315066259166995"><ele>1410.0</ele><time>2026-05-01T14:17:15.001Z</time></trkpt><trkpt lat="44.60017089140129" lon="7.315201975760031"><ele>1410.0</ele><time>2026-05-01T14:17:17.001Z</time></trkpt><trkpt lat="44.60020472321612" lon="7.315277616752627"><ele>1410.0</ele><time>2026-05-01T14:17:18.001Z</time></trkpt><trkpt lat="44.600285053497394" lon="7.315390599113917"><ele>1407.6666666666667</ele><time>2026-05-01T14:17:20.001Z</time></trkpt><trkpt lat="44.60033677606625" lon="7.315447741160567"><ele>1405.3333333333333</ele><time>2026-05-01T14:17:21.001Z</time></trkpt><trkpt lat="44.60041061176379" lon="7.315542402181565"><ele>1403.0</ele><time>2026-05-01T14:17:23.001Z</time></trkpt><trkpt lat="44.60048887974357" lon="7.315623842922412"><ele>1400.6666666666665</ele><time>2026-05-01T14:17:25.001Z</time></trkpt><trkpt lat="44.600554340294906" lon="7.315676132372189"><ele>1398.3333333333333</ele><time>2026-05-01T14:17:27.001Z</time></trkpt><trkpt lat="44.60063467656549" lon="7.315762111306523"><ele>1396.0</ele><time>2026-05-01T14:17:29.001Z</time></trkpt><trkpt lat="44.60070168516123" lon="7.31588646925968"><ele>1396.0</ele><time>2026-05-01T14:17:31.001Z</time></trkpt><trkpt lat="44.60077633990309" lon="7.315965588460719"><ele>1396.0</ele><time>2026-05-01T14:17:33.001Z</time></trkpt><trkpt lat="44.60084472045939" lon="7.316062412871013"><ele>1396.0</ele><time>2026-05-01T14:17:35.001Z</time></trkpt><trkpt lat="44.60091122489556" lon="7.316159876171538"><ele>1396.0</ele><time>2026-05-01T14:17:37.001Z</time></trkpt><trkpt lat="44.6009763044671" lon="7.316249303982555"><ele>1396.0</ele><time>2026-05-01T14:17:39.001Z</time></trkpt><trkpt lat="44.60102289658862" lon="7.316343061552214"><ele>1396.1999999999998</ele><time>2026-05-01T14:17:41.002Z</time></trkpt><trkpt lat="44.60103190882497" lon="7.316457040087507"><ele>1396.3999999999999</ele><time>2026-05-01T14:17:43.002Z</time></trkpt><trkpt lat="44.60102467219678" lon="7.316585797505881"><ele>1396.6</ele><time>2026-05-01T14:17:45.002Z</time></trkpt><trkpt lat="44.60107981439689" lon="7.316732449535156"><ele>1396.8</ele><time>2026-05-01T14:17:47.002Z</time></trkpt><trkpt lat="44.60112458345036" lon="7.316844720572003"><ele>1397.0</ele><time>2026-05-01T14:17:49.002Z</time></trkpt><trkpt lat="44.60123522046557" lon="7.316868695490578"><ele>1396.3333333333335</ele><time>2026-05-01T14:17:51.002Z</time></trkpt><trkpt lat="44.60129999038545" lon="7.31690224002879"><ele>1395.6666666666667</ele><time>2026-05-01T14:17:53.002Z</time></trkpt><trkpt lat="44.60132770257511" lon="7.317017251830546"><ele>1395.0</ele><time>2026-05-01T14:18:09.002Z</time></trkpt><trkpt lat="44.60138999560799" lon="7.3170847795848655"><ele>1394.3333333333333</ele><time>2026-05-01T14:18:10.002Z</time></trkpt><trkpt lat="44.60146599619609" lon="7.317144403275054"><ele>1393.6666666666665</ele><time>2026-05-01T14:18:12Z</time></trkpt><trkpt lat="44.60155295425988" lon="7.317222382613017"><ele>1393.0</ele><time>2026-05-01T14:18:15Z</time></trkpt><trkpt lat="44.601606764490214" lon="7.317324303914887"><ele>1393.0</ele><time>2026-05-01T14:18:18Z</time></trkpt><trkpt lat="44.60166249975353" lon="7.317419640219312"><ele>1393.0</ele><time>2026-05-01T14:18:20Z</time></trkpt><trkpt lat="44.601722023038924" lon="7.317530159948806"><ele>1393.0</ele><time>2026-05-01T14:18:22Z</time></trkpt><trkpt lat="44.60176110782911" lon="7.317605163109576"><ele>1393.0</ele><time>2026-05-01T14:18:24Z</time></trkpt><trkpt lat="44.60208893763725" lon="7.317388683996882"><ele>1394.8333333333333</ele><time>2026-05-01T14:18:26Z</time></trkpt><trkpt lat="44.602141226219906" lon="7.3174634334105475"><ele>1396.6666666666665</ele><time>2026-05-01T14:18:28Z</time></trkpt><trkpt lat="44.60221576764515" lon="7.317535618634231"><ele>1398.5</ele><time>2026-05-01T14:18:37Z</time></trkpt><trkpt lat="44.60228801279952" lon="7.317612330007212"><ele>1400.3333333333333</ele><time>2026-05-01T14:18:39Z</time></trkpt><trkpt lat="44.60235129090984" lon="7.317681211044368"><ele>1402.1666666666667</ele><time>2026-05-01T14:18:41Z</time></trkpt><trkpt lat="44.6024033841576" lon="7.317781434477371"><ele>1404.0</ele><time>2026-05-01T14:18:45Z</time></trkpt><trkpt lat="44.60247750368511" lon="7.317897051444843"><ele>1404.0</ele><time>2026-05-01T14:18:51Z</time></trkpt><trkpt lat="44.6025348880183" lon="7.3179716909861465"><ele>1404.0</ele><time>2026-05-01T14:18:52Z</time></trkpt><trkpt lat="44.60260327250829" lon="7.318070896940548"><ele>1404.0</ele><time>2026-05-01T14:18:54Z</time></trkpt><trkpt lat="44.602664254364576" lon="7.318176838595404"><ele>1404.0</ele><time>2026-05-01T14:18:56.001Z</time></trkpt><trkpt lat="44.60270648584781" lon="7.318282213272382"><ele>1404.0</ele><time>2026-05-01T14:18:58.001Z</time></trkpt><trkpt lat="44.60273561868589" lon="7.318438656454832"><ele>1405.2</ele><time>2026-05-01T14:19:01.001Z</time></trkpt><trkpt lat="44.60281759547589" lon="7.3185706733013705"><ele>1406.4</ele><time>2026-05-01T14:19:03.001Z</time></trkpt><trkpt lat="44.60288211622019" lon="7.318646548508706"><ele>1407.6</ele><time>2026-05-01T14:19:06.001Z</time></trkpt><trkpt lat="44.60293954143004" lon="7.318708643014189"><ele>1408.8</ele><time>2026-05-01T14:19:20.001Z</time></trkpt><trkpt lat="44.60299906561308" lon="7.318771919229994"><ele>1410.0</ele><time>2026-05-01T14:19:44.002Z</time></trkpt><trkpt lat="44.60305692911605" lon="7.3188820222251"><ele>1411.9999999999998</ele><time>2026-05-01T14:19:46.002Z</time></trkpt><trkpt lat="44.60309081640046" lon="7.318961156696068"><ele>1414.0</ele><time>2026-05-01T14:19:47.002Z</time></trkpt><trkpt lat="44.60313840683014" lon="7.319029768073083"><ele>1416.0</ele><time>2026-05-01T14:19:49.002Z</time></trkpt><trkpt lat="44.603197371410246" lon="7.31906916332848"><ele>1418.0</ele><time>2026-05-01T14:19:51.002Z</time></trkpt><trkpt lat="44.60323067751839" lon="7.3191443782574535"><ele>1420.0</ele><time>2026-05-01T14:19:53.002Z</time></trkpt><trkpt lat="44.603260249667386" lon="7.319225601118434"><ele>1421.9999999999998</ele><time>2026-05-01T14:19:55.002Z</time></trkpt><trkpt lat="44.60330347282197" lon="7.319308527224192"><ele>1424.0</ele><time>2026-05-01T14:19:57.002Z</time></trkpt><trkpt lat="44.60335334600472" lon="7.3193834728854705"><ele>1424.0</ele><time>2026-05-01T14:20:00.002Z</time></trkpt><trkpt lat="44.60340827970147" lon="7.319463243764198"><ele>1424.0</ele><time>2026-05-01T14:20:03.002Z</time></trkpt><trkpt lat="44.603451575438704" lon="7.319539225864644"><ele>1424.0</ele><time>2026-05-01T14:20:05.002Z</time></trkpt><trkpt lat="44.60349383177512" lon="7.319617627483255"><ele>1424.0</ele><time>2026-05-01T14:20:07.002Z</time></trkpt><trkpt lat="44.603599389137045" lon="7.319701139737578"><ele>1424.0</ele><time>2026-05-01T14:20:10.002Z</time></trkpt><trkpt lat="44.60366897018538" lon="7.319735743119716"><ele>1424.0</ele><time>2026-05-01T14:20:11.002Z</time></trkpt><trkpt lat="44.603738615550704" lon="7.319785831825547"><ele>1421.8333333333335</ele><time>2026-05-01T14:20:14.002Z</time></trkpt><trkpt lat="44.60380200073736" lon="7.319816051504115"><ele>1419.6666666666667</ele><time>2026-05-01T14:20:16.002Z</time></trkpt><trkpt lat="44.6038632452443" lon="7.319866774542663"><ele>1417.5</ele><time>2026-05-01T14:20:18.999Z</time></trkpt><trkpt lat="44.60392846548473" lon="7.319948395570645"><ele>1415.3333333333333</ele><time>2026-05-01T14:20:21.999Z</time></trkpt><trkpt lat="44.60397571993134" lon="7.320054265193098"><ele>1413.1666666666665</ele><time>2026-05-01T14:20:24.999Z</time></trkpt><trkpt lat="44.604041789917254" lon="7.3200919276818714"><ele>1411.0</ele><time>2026-05-01T14:20:43Z</time></trkpt><trkpt lat="44.604024705164605" lon="7.320005083093946"><ele>1411.0</ele><time>2026-05-01T14:20:57Z</time></trkpt><trkpt lat="44.60396538484439" lon="7.319946820308189"><ele>1411.0</ele><time>2026-05-01T14:21:18.001Z</time></trkpt><trkpt lat="44.60391606093498" lon="7.319879813080735"><ele>1411.0</ele><time>2026-05-01T14:21:20.001Z</time></trkpt><trkpt lat="44.60382047250552" lon="7.319815807985776"><ele>1411.0</ele><time>2026-05-01T14:21:24.001Z</time></trkpt><trkpt lat="44.60374545908168" lon="7.319791583371721"><ele>1411.0</ele><time>2026-05-01T14:21:26.001Z</time></trkpt><trkpt lat="44.60366827452021" lon="7.319748096099635"><ele>1411.0</ele><time>2026-05-01T14:21:28.001Z</time></trkpt><trkpt lat="44.603550488750486" lon="7.319697316492851"><ele>1413.1666666666665</ele><time>2026-05-01T14:21:30.001Z</time></trkpt><trkpt lat="44.60350369361451" lon="7.319595638007036"><ele>1415.3333333333333</ele><time>2026-05-01T14:21:32.001Z</time></trkpt><trkpt lat="44.60343239440312" lon="7.319453118581136"><ele>1417.5</ele><time>2026-05-01T14:21:34.001Z</time></trkpt><trkpt lat="44.603363187270176" lon="7.319387026255928"><ele>1419.6666666666667</ele><time>2026-05-01T14:21:36.001Z</time></trkpt><trkpt lat="44.60329758956837" lon="7.319316439998723"><ele>1421.8333333333335</ele><time>2026-05-01T14:21:38.001Z</time></trkpt><trkpt lat="44.603261824549314" lon="7.319235559919578"><ele>1424.0</ele><time>2026-05-01T14:21:40.001Z</time></trkpt><trkpt lat="44.60323167669111" lon="7.31915114448151"><ele>1424.0</ele><time>2026-05-01T14:21:43.001Z</time></trkpt><trkpt lat="44.60319901357264" lon="7.3190723694968645"><ele>1424.0</ele><time>2026-05-01T14:21:44.002Z</time></trkpt><trkpt lat="44.60313010259493" lon="7.318998492537598"><ele>1424.0</ele><time>2026-05-01T14:21:46.002Z</time></trkpt><trkpt lat="44.60305147419117" lon="7.318941910417053"><ele>1424.0</ele><time>2026-05-01T14:21:48.002Z</time></trkpt><trkpt lat="44.60300767377513" lon="7.3188191362937305"><ele>1424.0</ele><time>2026-05-01T14:21:50.002Z</time></trkpt><trkpt lat="44.60296989329649" lon="7.318731922603889"><ele>1424.0</ele><time>2026-05-01T14:21:52.002Z</time></trkpt><trkpt lat="44.602900523447516" lon="7.31867739785444"><ele>1421.6666666666667</ele><time>2026-05-01T14:21:54.002Z</time></trkpt><trkpt lat="44.60284281084654" lon="7.318608975674188"><ele>1419.3333333333335</ele><time>2026-05-01T14:21:56.002Z</time></trkpt><trkpt lat="44.602787347937195" lon="7.318502277602485"><ele>1417.0</ele><time>2026-05-01T14:21:59.002Z</time></trkpt><trkpt lat="44.6027579954746" lon="7.318406896035158"><ele>1414.6666666666667</ele><time>2026-05-01T14:22:01.002Z</time></trkpt><trkpt lat="44.60272915423067" lon="7.318299556616094"><ele>1412.3333333333333</ele><time>2026-05-01T14:22:03.002Z</time></trkpt><trkpt lat="44.60267828513191" lon="7.31821450162594"><ele>1410.0</ele><time>2026-05-01T14:22:05.002Z</time></trkpt><trkpt lat="44.6026413525897" lon="7.318119205802565"><ele>1409.0</ele><time>2026-05-01T14:22:07.002Z</time></trkpt><trkpt lat="44.60258559025225" lon="7.318052076136088"><ele>1408.0</ele><time>2026-05-01T14:22:09.002Z</time></trkpt><trkpt lat="44.60253405914228" lon="7.317957351943181"><ele>1407.0</ele><time>2026-05-01T14:22:11.002Z</time></trkpt><trkpt lat="44.60248000466176" lon="7.317877307601353"><ele>1406.0</ele><time>2026-05-01T14:22:13.002Z</time></trkpt><trkpt lat="44.60242114879029" lon="7.3177827851872985"><ele>1405.0</ele><time>2026-05-01T14:22:15.002Z</time></trkpt><trkpt lat="44.60236768770978" lon="7.317706192971391"><ele>1404.0</ele><time>2026-05-01T14:22:17.002Z</time></trkpt><trkpt lat="44.60231742170289" lon="7.317628635730432"><ele>1404.0</ele><time>2026-05-01T14:22:19.002Z</time></trkpt><trkpt lat="44.60224639583219" lon="7.317564896850984"><ele>1404.0</ele><time>2026-05-01T14:22:22.003Z</time></trkpt><trkpt lat="44.60218326577085" lon="7.317500446776089"><ele>1404.0</ele><time>2026-05-01T14:22:23.999Z</time></trkpt><trkpt lat="44.60212510939307" lon="7.317448159125759"><ele>1404.0</ele><time>2026-05-01T14:22:27.999Z</time></trkpt><trkpt lat="44.60204231552794" lon="7.317376199532531"><ele>1404.0</ele><time>2026-05-01T14:22:30.999Z</time></trkpt><trkpt lat="44.60198262204402" lon="7.317314951955629"><ele>1404.0</ele><time>2026-05-01T14:22:32.999Z</time></trkpt><trkpt lat="44.60191526722409" lon="7.317251665640707"><ele>1401.6666666666667</ele><time>2026-05-01T14:22:35.999Z</time></trkpt><trkpt lat="44.60185849972839" lon="7.317184054731898"><ele>1399.3333333333333</ele><time>2026-05-01T14:22:37.999Z</time></trkpt><trkpt lat="44.601797239410914" lon="7.3171219033988235"><ele>1397.0</ele><time>2026-05-01T14:22:39.999Z</time></trkpt><trkpt lat="44.601740716499975" lon="7.317076504839236"><ele>1394.6666666666665</ele><time>2026-05-01T14:22:41.999Z</time></trkpt><trkpt lat="44.601676754736694" lon="7.316985840041263"><ele>1392.3333333333333</ele><time>2026-05-01T14:22:43.999Z</time></trkpt><trkpt lat="44.60160405416209" lon="7.316892053390431"><ele>1390.0</ele><time>2026-05-01T14:22:46Z</time></trkpt><trkpt lat="44.60151681550898" lon="7.316871766673259"><ele>1390.0</ele><time>2026-05-01T14:22:48Z</time></trkpt><trkpt lat="44.60142984596208" lon="7.316858289526652"><ele>1390.0</ele><time>2026-05-01T14:22:50Z</time></trkpt><trkpt lat="44.60136267117011" lon="7.3168586599578935"><ele>1390.0</ele><time>2026-05-01T14:22:52Z</time></trkpt><trkpt lat="44.60130223452626" lon="7.316830141759607"><ele>1390.0</ele><time>2026-05-01T14:22:55Z</time></trkpt><trkpt lat="44.60125954688753" lon="7.316715630327578"><ele>1390.0</ele><time>2026-05-01T14:23:13.001Z</time></trkpt><trkpt lat="44.601239820946184" lon="7.3165772135589515"><ele>1390.0</ele><time>2026-05-01T14:23:15.001Z</time></trkpt><trkpt lat="44.60123802449075" lon="7.316485380336498"><ele>1390.0</ele><time>2026-05-01T14:23:17.001Z</time></trkpt><trkpt lat="44.6012396229695" lon="7.31638339108422"><ele>1390.0</ele><time>2026-05-01T14:23:19.001Z</time></trkpt><trkpt lat="44.60123814892814" lon="7.316280244163291"><ele>1390.0</ele><time>2026-05-01T14:23:22.001Z</time></trkpt><trkpt lat="44.60122716456804" lon="7.316383455900262"><ele>1390.0</ele><time>2026-05-01T14:23:32.001Z</time></trkpt><trkpt lat="44.60125311854211" lon="7.316546307954514"><ele>1390.0</ele><time>2026-05-01T14:23:34.001Z</time></trkpt><trkpt lat="44.60125024421635" lon="7.316639680390903"><ele>1390.0</ele><time>2026-05-01T14:23:35.001Z</time></trkpt><trkpt lat="44.60126350832822" lon="7.316768545904111"><ele>1390.0</ele><time>2026-05-01T14:23:37.001Z</time></trkpt><trkpt lat="44.60124499617149" lon="7.316875153330062"><ele>1390.0</ele><time>2026-05-01T14:23:39.001Z</time></trkpt><trkpt lat="44.60128185658949" lon="7.316949259268301"><ele>1390.0</ele><time>2026-05-01T14:23:50.002Z</time></trkpt><trkpt lat="44.601345239610936" lon="7.317041300959659"><ele>1390.0</ele><time>2026-05-01T14:23:53.002Z</time></trkpt><trkpt lat="44.60142953647299" lon="7.317098150482141"><ele>1390.0</ele><time>2026-05-01T14:23:55.002Z</time></trkpt><trkpt lat="44.60147718457376" lon="7.317169682201362"><ele>1390.0</ele><time>2026-05-01T14:23:56.002Z</time></trkpt><trkpt lat="44.60151946509872" lon="7.317235327158036"><ele>1390.5</ele><time>2026-05-01T14:23:57.002Z</time></trkpt><trkpt lat="44.601580090458526" lon="7.317298890570309"><ele>1391.0</ele><time>2026-05-01T14:23:58.002Z</time></trkpt><trkpt lat="44.60164786503497" lon="7.317382820227768"><ele>1391.5</ele><time>2026-05-01T14:23:59.002Z</time></trkpt><trkpt lat="44.60171352820011" lon="7.31749849686279"><ele>1392.0</ele><time>2026-05-01T14:24:00.002Z</time></trkpt><trkpt lat="44.601752076740134" lon="7.317587934382233"><ele>1392.5</ele><time>2026-05-01T14:24:01.002Z</time></trkpt><trkpt lat="44.60179276002815" lon="7.317674115909046"><ele>1393.0</ele><time>2026-05-01T14:24:02.002Z</time></trkpt><trkpt lat="44.60182706280103" lon="7.31776039932999"><ele>1393.0</ele><time>2026-05-01T14:24:03.002Z</time></trkpt><trkpt lat="44.60187515280669" lon="7.317846551306905"><ele>1393.0</ele><time>2026-05-01T14:24:04.002Z</time></trkpt><trkpt lat="44.60189075436846" lon="7.317936269516468"><ele>1393.0</ele><time>2026-05-01T14:24:05.002Z</time></trkpt><trkpt lat="44.60193401495744" lon="7.318070079225953"><ele>1393.0</ele><time>2026-05-01T14:24:07.002Z</time></trkpt><trkpt lat="44.601969003948156" lon="7.318188897442604"><ele>1393.0</ele><time>2026-05-01T14:24:09.002Z</time></trkpt><trkpt lat="44.60201122765567" lon="7.318297836208141"><ele>1393.0</ele><time>2026-05-01T14:24:11.002Z</time></trkpt><trkpt lat="44.60204622218044" lon="7.318418212226638"><ele>1395.3333333333333</ele><time>2026-05-01T14:24:13.002Z</time></trkpt><trkpt lat="44.60206218745188" lon="7.318516209201202"><ele>1397.6666666666665</ele><time>2026-05-01T14:24:15.002Z</time></trkpt><trkpt lat="44.60207249889531" lon="7.318660899576145"><ele>1400.0</ele><time>2026-05-01T14:24:17.002Z</time></trkpt><trkpt lat="44.60207316728224" lon="7.318777580373157"><ele>1402.3333333333333</ele><time>2026-05-01T14:24:19.003Z</time></trkpt><trkpt lat="44.60208657240392" lon="7.318883097958003"><ele>1404.6666666666667</ele><time>2026-05-01T14:24:21.003Z</time></trkpt><trkpt lat="44.60209577580161" lon="7.3190255916771605"><ele>1407.0</ele><time>2026-05-01T14:24:23.003Z</time></trkpt><trkpt lat="44.60208602846989" lon="7.319159838454606"><ele>1407.0</ele><time>2026-05-01T14:24:26.003Z</time></trkpt><trkpt lat="44.60210104571617" lon="7.319321273597289"><ele>1407.0</ele><time>2026-05-01T14:24:28.003Z</time></trkpt><trkpt lat="44.60211610325866" lon="7.3194514436012446"><ele>1407.0</ele><time>2026-05-01T14:24:29.999Z</time></trkpt><trkpt lat="44.60215492585736" lon="7.319551846438214"><ele>1407.0</ele><time>2026-05-01T14:24:30.999Z</time></trkpt><trkpt lat="44.60217857088199" lon="7.319689544396294"><ele>1407.0</ele><time>2026-05-01T14:24:31.999Z</time></trkpt><trkpt lat="44.60220160021837" lon="7.319783722549129"><ele>1404.1999999999998</ele><time>2026-05-01T14:24:32.999Z</time></trkpt><trkpt lat="44.60222011488316" lon="7.319874753852667"><ele>1401.4</ele><time>2026-05-01T14:24:33.999Z</time></trkpt><trkpt lat="44.602249306626554" lon="7.319955863472078"><ele>1398.6</ele><time>2026-05-01T14:24:34.999Z</time></trkpt><trkpt lat="44.60233380032884" lon="7.320070359696902"><ele>1395.8000000000002</ele><time>2026-05-01T14:24:36.999Z</time></trkpt><trkpt lat="44.60240369631004" lon="7.320164941190569"><ele>1393.0</ele><time>2026-05-01T14:24:38.999Z</time></trkpt><trkpt lat="44.602467556494275" lon="7.320300711644625"><ele>1393.0</ele><time>2026-05-01T14:24:40.999Z</time></trkpt><trkpt lat="44.602510132856104" lon="7.320370876634345"><ele>1393.0</ele><time>2026-05-01T14:24:41.999Z</time></trkpt><trkpt lat="44.60255801904664" lon="7.320450852057134"><ele>1393.0</ele><time>2026-05-01T14:24:42.999Z</time></trkpt><trkpt lat="44.60260034422098" lon="7.32051821774859"><ele>1393.0</ele><time>2026-05-01T14:24:44Z</time></trkpt><trkpt lat="44.602649818648835" lon="7.3206107260543245"><ele>1393.0</ele><time>2026-05-01T14:24:46Z</time></trkpt><trkpt lat="44.60267852735277" lon="7.320712513823133"><ele>1393.0</ele><time>2026-05-01T14:24:49Z</time></trkpt><trkpt lat="44.60268558768224" lon="7.320877317675254"><ele>1388.25</ele><time>2026-05-01T14:24:51Z</time></trkpt><trkpt lat="44.60267835551626" lon="7.321005221721148"><ele>1383.5</ele><time>2026-05-01T14:24:53Z</time></trkpt><trkpt lat="44.60265123522201" lon="7.321205186746115"><ele>1378.75</ele><time>2026-05-01T14:24:55Z</time></trkpt><trkpt lat="44.60263717977558" lon="7.321323427947334"><ele>1374.0</ele><time>2026-05-01T14:24:56Z</time></trkpt><trkpt lat="44.60263330328307" lon="7.321510864415358"><ele>1373.0</ele><time>2026-05-01T14:24:58Z</time></trkpt><trkpt lat="44.60261236160128" lon="7.321631593801307"><ele>1372.0</ele><time>2026-05-01T14:25:00Z</time></trkpt><trkpt lat="44.60259972940709" lon="7.3217607993328215"><ele>1371.0</ele><time>2026-05-01T14:25:02Z</time></trkpt><trkpt lat="44.60259238309958" lon="7.321865839727042"><ele>1370.0</ele><time>2026-05-01T14:25:03Z</time></trkpt><trkpt lat="44.602575266807676" lon="7.32205494782893"><ele>1369.0</ele><time>2026-05-01T14:25:05Z</time></trkpt><trkpt lat="44.60255997296404" lon="7.322188960220779"><ele>1371.75</ele><time>2026-05-01T14:25:06Z</time></trkpt><trkpt lat="44.602519374831786" lon="7.322363495594356"><ele>1374.5</ele><time>2026-05-01T14:25:07Z</time></trkpt><trkpt lat="44.6024826376423" lon="7.322548056023682"><ele>1377.25</ele><time>2026-05-01T14:25:08Z</time></trkpt><trkpt lat="44.602428799556385" lon="7.322694253770801"><ele>1380.0</ele><time>2026-05-01T14:25:09.001Z</time></trkpt><trkpt lat="44.602377790990374" lon="7.322868571158911"><ele>1380.0</ele><time>2026-05-01T14:25:10.001Z</time></trkpt><trkpt lat="44.60233486128544" lon="7.323017351286902"><ele>1380.0</ele><time>2026-05-01T14:25:11.001Z</time></trkpt><trkpt lat="44.60231283809945" lon="7.323141914681797"><ele>1380.0</ele><time>2026-05-01T14:25:12.001Z</time></trkpt><trkpt lat="44.602277405542445" lon="7.323245623732287"><ele>1380.0</ele><time>2026-05-01T14:25:13.001Z</time></trkpt><trkpt lat="44.60224640293798" lon="7.323361873576389"><ele>1380.0</ele><time>2026-05-01T14:25:14.001Z</time></trkpt><trkpt lat="44.602208233024534" lon="7.323488759319943"><ele>1381.4</ele><time>2026-05-01T14:25:15.001Z</time></trkpt><trkpt lat="44.602181174537506" lon="7.323653578198411"><ele>1382.8</ele><time>2026-05-01T14:25:16.001Z</time></trkpt><trkpt lat="44.60214512981307" lon="7.323765273247462"><ele>1384.1999999999998</ele><time>2026-05-01T14:25:17.001Z</time></trkpt><trkpt lat="44.60211048131834" lon="7.323907052684767"><ele>1385.6</ele><time>2026-05-01T14:25:19.001Z</time></trkpt><trkpt lat="44.60208648713173" lon="7.324022285310759"><ele>1387.0</ele><time>2026-05-01T14:25:20.001Z</time></trkpt><trkpt lat="44.60210532831102" lon="7.324145825724264"><ele>1387.0</ele><time>2026-05-01T14:25:21.001Z</time></trkpt><trkpt lat="44.60208772287564" lon="7.32425009206315"><ele>1387.0</ele><time>2026-05-01T14:25:22.001Z</time></trkpt><trkpt lat="44.60207655238959" lon="7.32434856819907"><ele>1387.0</ele><time>2026-05-01T14:25:23.001Z</time></trkpt><trkpt lat="44.602043978335004" lon="7.324434567936556"><ele>1387.0</ele><time>2026-05-01T14:25:25.001Z</time></trkpt><trkpt lat="44.601984462276725" lon="7.324539525559943"><ele>1387.0</ele><time>2026-05-01T14:25:27.001Z</time></trkpt><trkpt lat="44.60194458056934" lon="7.32461689236646"><ele>1387.0</ele><time>2026-05-01T14:25:28.001Z</time></trkpt><trkpt lat="44.6019245118311" lon="7.324753564470326"><ele>1384.1999999999998</ele><time>2026-05-01T14:25:30.001Z</time></trkpt><trkpt lat="44.60196979975077" lon="7.3248827491999835"><ele>1381.4</ele><time>2026-05-01T14:25:32.001Z</time></trkpt><trkpt lat="44.60201288331796" lon="7.324993433919153"><ele>1378.6</ele><time>2026-05-01T14:25:34.001Z</time></trkpt><trkpt lat="44.6020527840153" lon="7.325094816997849"><ele>1375.8000000000002</ele><time>2026-05-01T14:25:36.001Z</time></trkpt><trkpt lat="44.60209859042148" lon="7.32519434361973"><ele>1373.0</ele><time>2026-05-01T14:25:38.001Z</time></trkpt><trkpt lat="44.60211689632059" lon="7.3253515853534585"><ele>1373.0</ele><time>2026-05-01T14:25:40.001Z</time></trkpt><trkpt lat="44.602127647517605" lon="7.3255068814352065"><ele>1373.0</ele><time>2026-05-01T14:25:42.002Z</time></trkpt><trkpt lat="44.6020692055872" lon="7.325591285526105"><ele>1373.0</ele><time>2026-05-01T14:25:44.002Z</time></trkpt><trkpt lat="44.60202017040706" lon="7.325673827194578"><ele>1373.0</ele><time>2026-05-01T14:25:46.002Z</time></trkpt><trkpt lat="44.60191653305982" lon="7.325759241147599"><ele>1373.0</ele><time>2026-05-01T14:25:48.002Z</time></trkpt><trkpt lat="44.601856211423346" lon="7.325827458289861"><ele>1370.5</ele><time>2026-05-01T14:25:49.002Z</time></trkpt><trkpt lat="44.60180680725009" lon="7.325886298055787"><ele>1368.0</ele><time>2026-05-01T14:25:50.002Z</time></trkpt><trkpt lat="44.6017595356638" lon="7.32596348857784"><ele>1365.5</ele><time>2026-05-01T14:25:51.002Z</time></trkpt><trkpt lat="44.60173481057127" lon="7.3260591664324055"><ele>1363.0</ele><time>2026-05-01T14:25:52.002Z</time></trkpt><trkpt lat="44.60172310328396" lon="7.326181159736692"><ele>1360.5</ele><time>2026-05-01T14:25:53.002Z</time></trkpt><trkpt lat="44.601688744494766" lon="7.3262944894376"><ele>1358.0</ele><time>2026-05-01T14:25:54.002Z</time></trkpt><trkpt lat="44.60164208317723" lon="7.326374416408009"><ele>1360.2</ele><time>2026-05-01T14:25:55.002Z</time></trkpt><trkpt lat="44.60156173889265" lon="7.326484006028342"><ele>1362.4</ele><time>2026-05-01T14:25:56.002Z</time></trkpt><trkpt lat="44.601486980663736" lon="7.3266271034991926"><ele>1364.6000000000001</ele><time>2026-05-01T14:25:57.002Z</time></trkpt><trkpt lat="44.60142808119538" lon="7.326707506196375"><ele>1366.8000000000002</ele><time>2026-05-01T14:25:58.002Z</time></trkpt><trkpt lat="44.60137436911218" lon="7.326821334347206"><ele>1369.0</ele><time>2026-05-01T14:25:59.002Z</time></trkpt><trkpt lat="44.60130021921953" lon="7.326975678028868"><ele>1369.0</ele><time>2026-05-01T14:26:00.002Z</time></trkpt><trkpt lat="44.601252156333" lon="7.3271163465935905"><ele>1369.0</ele><time>2026-05-01T14:26:01.002Z</time></trkpt><trkpt lat="44.60118518048588" lon="7.32720897607649"><ele>1369.0</ele><time>2026-05-01T14:26:02.002Z</time></trkpt><trkpt lat="44.6011242302047" lon="7.327300576407302"><ele>1369.0</ele><time>2026-05-01T14:26:03.002Z</time></trkpt><trkpt lat="44.60106447938914" lon="7.32740442344489"><ele>1369.0</ele><time>2026-05-01T14:26:04.002Z</time></trkpt><trkpt lat="44.60100261491304" lon="7.327525603944574"><ele>1368.0</ele><time>2026-05-01T14:26:05.002Z</time></trkpt><trkpt lat="44.60094605612604" lon="7.327644940384559"><ele>1367.0</ele><time>2026-05-01T14:26:06.002Z</time></trkpt><trkpt lat="44.60089907753025" lon="7.327757033096005"><ele>1366.0</ele><time>2026-05-01T14:26:07.002Z</time></trkpt><trkpt lat="44.60085818165607" lon="7.32787609665611"><ele>1365.0</ele><time>2026-05-01T14:26:08.002Z</time></trkpt><trkpt lat="44.6008306043015" lon="7.327987146202992"><ele>1364.0</ele><time>2026-05-01T14:26:09.002Z</time></trkpt><trkpt lat="44.60083540395133" lon="7.328093323233526"><ele>1363.0</ele><time>2026-05-01T14:26:10.002Z</time></trkpt><trkpt lat="44.600878817085" lon="7.328263423288327"><ele>1363.0</ele><time>2026-05-01T14:26:12.002Z</time></trkpt><trkpt lat="44.600950184171495" lon="7.328347929050963"><ele>1363.0</ele><time>2026-05-01T14:26:13.002Z</time></trkpt><trkpt lat="44.60101248213418" lon="7.328468595106626"><ele>1363.0</ele><time>2026-05-01T14:26:14.003Z</time></trkpt><trkpt lat="44.60108921334839" lon="7.328598958062811"><ele>1363.0</ele><time>2026-05-01T14:26:15.003Z</time></trkpt><trkpt lat="44.601138236047625" lon="7.328677056919635"><ele>1363.0</ele><time>2026-05-01T14:26:16.003Z</time></trkpt><trkpt lat="44.601159063922076" lon="7.328760942870047"><ele>1364.5</ele><time>2026-05-01T14:26:17.003Z</time></trkpt><trkpt lat="44.6010690662192" lon="7.328930735379766"><ele>1366.0</ele><time>2026-05-01T14:26:19.003Z</time></trkpt><trkpt lat="44.60103994365074" lon="7.32908284400576"><ele>1367.5</ele><time>2026-05-01T14:26:20.003Z</time></trkpt><trkpt lat="44.60097336048058" lon="7.329252146941257"><ele>1369.0</ele><time>2026-05-01T14:26:21.003Z</time></trkpt><trkpt lat="44.60090738168724" lon="7.329382651922511"><ele>1369.0</ele><time>2026-05-01T14:26:22.003Z</time></trkpt><trkpt lat="44.600840001955795" lon="7.329467350299636"><ele>1369.0</ele><time>2026-05-01T14:26:23.003Z</time></trkpt><trkpt lat="44.60078811763907" lon="7.329526034876448"><ele>1369.0</ele><time>2026-05-01T14:26:24.003Z</time></trkpt><trkpt lat="44.60069479618514" lon="7.329624788169518"><ele>1369.0</ele><time>2026-05-01T14:26:26.003Z</time></trkpt><trkpt lat="44.6006406946532" lon="7.329699857243175"><ele>1369.0</ele><time>2026-05-01T14:26:27.003Z</time></trkpt><trkpt lat="44.6006266206081" lon="7.329858955423311"><ele>1371.4</ele><time>2026-05-01T14:26:28.003Z</time></trkpt><trkpt lat="44.60060388676703" lon="7.330018479874979"><ele>1373.8000000000002</ele><time>2026-05-01T14:26:29.003Z</time></trkpt><trkpt lat="44.600548234766656" lon="7.330152449548535"><ele>1376.1999999999998</ele><time>2026-05-01T14:26:30.003Z</time></trkpt><trkpt lat="44.6004704868908" lon="7.330263962629153"><ele>1378.6</ele><time>2026-05-01T14:26:31.003Z</time></trkpt><trkpt lat="44.60040804984799" lon="7.330382727282334"><ele>1381.0</ele><time>2026-05-01T14:26:32.003Z</time></trkpt><trkpt lat="44.60032714137384" lon="7.330522880716726"><ele>1380.1666666666665</ele><time>2026-05-01T14:26:33.003Z</time></trkpt><trkpt lat="44.6002618074378" lon="7.330604654348491"><ele>1379.3333333333333</ele><time>2026-05-01T14:26:34.003Z</time></trkpt><trkpt lat="44.600200821180465" lon="7.33067378866012"><ele>1378.5</ele><time>2026-05-01T14:26:35.003Z</time></trkpt><trkpt lat="44.6001326778959" lon="7.330755040283401"><ele>1377.6666666666667</ele><time>2026-05-01T14:26:35.999Z</time></trkpt><trkpt lat="44.60006569502708" lon="7.330853869296484"><ele>1376.8333333333335</ele><time>2026-05-01T14:26:36.999Z</time></trkpt><trkpt lat="44.60000883839416" lon="7.330951985370528"><ele>1376.0</ele><time>2026-05-01T14:26:37.999Z</time></trkpt><trkpt lat="44.599950862126434" lon="7.331066662591548"><ele>1376.0</ele><time>2026-05-01T14:26:38.999Z</time></trkpt><trkpt lat="44.59991127113599" lon="7.331176613262974"><ele>1376.0</ele><time>2026-05-01T14:26:39.999Z</time></trkpt><trkpt lat="44.59985546389149" lon="7.331281767270457"><ele>1376.0</ele><time>2026-05-01T14:26:40.999Z</time></trkpt><trkpt lat="44.599832889628054" lon="7.3314050329705545"><ele>1376.0</ele><time>2026-05-01T14:26:41.999Z</time></trkpt><trkpt lat="44.59981814701934" lon="7.33152341678635"><ele>1376.0</ele><time>2026-05-01T14:26:42.999Z</time></trkpt><trkpt lat="44.59981889744277" lon="7.331645526378479"><ele>1376.0</ele><time>2026-05-01T14:26:44Z</time></trkpt><trkpt lat="44.59985332833694" lon="7.331811650827845"><ele>1378.8</ele><time>2026-05-01T14:26:45Z</time></trkpt><trkpt lat="44.599865873279526" lon="7.33200178401519"><ele>1381.6</ele><time>2026-05-01T14:26:46Z</time></trkpt><trkpt lat="44.59987611183048" lon="7.332170457349932"><ele>1384.4</ele><time>2026-05-01T14:26:47Z</time></trkpt><trkpt lat="44.599877493176166" lon="7.332292589158104"><ele>1387.2</ele><time>2026-05-01T14:26:48Z</time></trkpt><trkpt lat="44.59987463191514" lon="7.332389149690322"><ele>1390.0</ele><time>2026-05-01T14:26:49Z</time></trkpt><trkpt lat="44.599810411676515" lon="7.332477847481343"><ele>1390.2</ele><time>2026-05-01T14:26:50Z</time></trkpt><trkpt lat="44.59976133395986" lon="7.332575040052429"><ele>1390.4</ele><time>2026-05-01T14:26:51Z</time></trkpt><trkpt lat="44.599694431982314" lon="7.332660226562487"><ele>1390.6</ele><time>2026-05-01T14:26:52Z</time></trkpt><trkpt lat="44.59965153163825" lon="7.332742494164126"><ele>1390.8</ele><time>2026-05-01T14:26:53Z</time></trkpt><trkpt lat="44.59959549678099" lon="7.332926891799832"><ele>1391.0</ele><time>2026-05-01T14:26:55Z</time></trkpt><trkpt lat="44.59952633321306" lon="7.332974126082351"><ele>1387.0</ele><time>2026-05-01T14:26:56Z</time></trkpt><trkpt lat="44.599448264345064" lon="7.3330344789424755"><ele>1383.0</ele><time>2026-05-01T14:26:57Z</time></trkpt><trkpt lat="44.59934509328834" lon="7.333102406933232"><ele>1379.0</ele><time>2026-05-01T14:26:58Z</time></trkpt><trkpt lat="44.599268169676215" lon="7.333163315352897"><ele>1375.0</ele><time>2026-05-01T14:26:59Z</time></trkpt><trkpt lat="44.599223626689344" lon="7.33324232937796"><ele>1371.0</ele><time>2026-05-01T14:27:00Z</time></trkpt><trkpt lat="44.59914355121866" lon="7.333357545444572"><ele>1371.0</ele><time>2026-05-01T14:27:01Z</time></trkpt><trkpt lat="44.599090477722854" lon="7.333462288744546"><ele>1371.0</ele><time>2026-05-01T14:27:02Z</time></trkpt><trkpt lat="44.59903097207187" lon="7.333543949217053"><ele>1371.0</ele><time>2026-05-01T14:27:03Z</time></trkpt><trkpt lat="44.59899383545096" lon="7.333646191504175"><ele>1371.0</ele><time>2026-05-01T14:27:04Z</time></trkpt><trkpt lat="44.598944821518074" lon="7.333758610863332"><ele>1371.0</ele><time>2026-05-01T14:27:05Z</time></trkpt><trkpt lat="44.598896614662515" lon="7.33387674247772"><ele>1371.0</ele><time>2026-05-01T14:27:06Z</time></trkpt><trkpt lat="44.5988565461366" lon="7.333978193614283"><ele>1371.8</ele><time>2026-05-01T14:27:07Z</time></trkpt><trkpt lat="44.598797934265576" lon="7.3340411578488105"><ele>1372.6</ele><time>2026-05-01T14:27:08Z</time></trkpt><trkpt lat="44.59873926244216" lon="7.334129637250174"><ele>1373.4</ele><time>2026-05-01T14:27:09Z</time></trkpt><trkpt lat="44.59867019598561" lon="7.334260786542838"><ele>1374.2</ele><time>2026-05-01T14:27:11.001Z</time></trkpt><trkpt lat="44.59858408339821" lon="7.334326642213234"><ele>1375.0</ele><time>2026-05-01T14:27:12.001Z</time></trkpt><trkpt lat="44.59847008693559" lon="7.334447487643496"><ele>1374.6</ele><time>2026-05-01T14:27:13.001Z</time></trkpt><trkpt lat="44.59837984387592" lon="7.334559610339897"><ele>1374.2</ele><time>2026-05-01T14:27:14.001Z</time></trkpt><trkpt lat="44.59831497047494" lon="7.33464316470466"><ele>1373.8000000000002</ele><time>2026-05-01T14:27:15.001Z</time></trkpt><trkpt lat="44.59825853449095" lon="7.334747592444158"><ele>1373.4</ele><time>2026-05-01T14:27:16.001Z</time></trkpt><trkpt lat="44.59820036585336" lon="7.334791202591864"><ele>1373.0</ele><time>2026-05-01T14:27:17.001Z</time></trkpt><trkpt lat="44.59812429721411" lon="7.334865447363352"><ele>1373.0</ele><time>2026-05-01T14:27:18.001Z</time></trkpt><trkpt lat="44.59805157732026" lon="7.334917625604878"><ele>1373.0</ele><time>2026-05-01T14:27:19.001Z</time></trkpt><trkpt lat="44.59792967978922" lon="7.334984251909756"><ele>1373.0</ele><time>2026-05-01T14:27:21.001Z</time></trkpt><trkpt lat="44.597847622356596" lon="7.33502532130288"><ele>1373.0</ele><time>2026-05-01T14:27:22.001Z</time></trkpt><trkpt lat="44.59771733681185" lon="7.335092246653162"><ele>1373.0</ele><time>2026-05-01T14:27:23.001Z</time></trkpt><trkpt lat="44.59759745050798" lon="7.335145634277112"><ele>1371.2</ele><time>2026-05-01T14:27:24.001Z</time></trkpt><trkpt lat="44.597503782296975" lon="7.3351797982526055"><ele>1369.4</ele><time>2026-05-01T14:27:25.001Z</time></trkpt><trkpt lat="44.59743759902527" lon="7.335218982376489"><ele>1367.6000000000001</ele><time>2026-05-01T14:27:26.001Z</time></trkpt><trkpt lat="44.597381350617894" lon="7.335270532877279"><ele>1365.8000000000002</ele><time>2026-05-01T14:27:27.001Z</time></trkpt><trkpt lat="44.597306868741875" lon="7.335365087954685"><ele>1364.0</ele><time>2026-05-01T14:27:29.001Z</time></trkpt><trkpt lat="44.597211923228954" lon="7.335486676748093"><ele>1363.2</ele><time>2026-05-01T14:27:31.001Z</time></trkpt><trkpt lat="44.59715115476959" lon="7.335566150376222"><ele>1362.4</ele><time>2026-05-01T14:27:32.001Z</time></trkpt><trkpt lat="44.59709118376641" lon="7.335661947707359"><ele>1361.6</ele><time>2026-05-01T14:27:33.001Z</time></trkpt><trkpt lat="44.59698822221229" lon="7.335734220290648"><ele>1360.8</ele><time>2026-05-01T14:27:34.001Z</time></trkpt><trkpt lat="44.59688829810137" lon="7.335784884346512"><ele>1360.0</ele><time>2026-05-01T14:27:35.001Z</time></trkpt><trkpt lat="44.596824121974855" lon="7.33583472805164"><ele>1360.0</ele><time>2026-05-01T14:27:36.001Z</time></trkpt><trkpt lat="44.596725250675135" lon="7.335892131086797"><ele>1360.0</ele><time>2026-05-01T14:27:38.001Z</time></trkpt><trkpt lat="44.59666955693068" lon="7.3359496509343405"><ele>1360.0</ele><time>2026-05-01T14:27:39.002Z</time></trkpt><trkpt lat="44.596591843254565" lon="7.336033795100516"><ele>1360.0</ele><time>2026-05-01T14:27:40.002Z</time></trkpt><trkpt lat="44.596489768732376" lon="7.336103313276411"><ele>1360.0</ele><time>2026-05-01T14:27:41.002Z</time></trkpt><trkpt lat="44.59638189104386" lon="7.3361334252975245"><ele>1360.0</ele><time>2026-05-01T14:27:42.002Z</time></trkpt><trkpt lat="44.59629190466484" lon="7.336124915348626"><ele>1360.0</ele><time>2026-05-01T14:27:43.002Z</time></trkpt><trkpt lat="44.59620307780131" lon="7.33616646271995"><ele>1360.0</ele><time>2026-05-01T14:27:44.002Z</time></trkpt><trkpt lat="44.59611222825664" lon="7.336263172279188"><ele>1360.0</ele><time>2026-05-01T14:27:45.002Z</time></trkpt><trkpt lat="44.59606436511557" lon="7.33638418697469"><ele>1360.0</ele><time>2026-05-01T14:27:46.002Z</time></trkpt><trkpt lat="44.596042750876805" lon="7.336488162481152"><ele>1358.0</ele><time>2026-05-01T14:27:47.002Z</time></trkpt><trkpt lat="44.59601649585091" lon="7.33657039312519"><ele>1356.0</ele><time>2026-05-01T14:27:48.002Z</time></trkpt><trkpt lat="44.595990522720015" lon="7.33665187059281"><ele>1354.0</ele><time>2026-05-01T14:27:49.002Z</time></trkpt><trkpt lat="44.59586109881044" lon="7.336707281583663"><ele>1352.0</ele><time>2026-05-01T14:27:53.002Z</time></trkpt><trkpt lat="44.59582068200695" lon="7.336820307575581"><ele>1350.0</ele><time>2026-05-01T14:27:56.002Z</time></trkpt><trkpt lat="44.59564540915846" lon="7.3371444840988165"><ele>1350.4</ele><time>2026-05-01T14:27:59.002Z</time></trkpt><trkpt lat="44.595633423708904" lon="7.33736487378566"><ele>1350.8</ele><time>2026-05-01T14:28:00.002Z</time></trkpt><trkpt lat="44.59562922915536" lon="7.337509914140106"><ele>1351.1999999999998</ele><time>2026-05-01T14:28:01.002Z</time></trkpt><trkpt lat="44.59561328213054" lon="7.337617290889048"><ele>1351.6</ele><time>2026-05-01T14:28:02.002Z</time></trkpt><trkpt lat="44.595584905078496" lon="7.337724394188806"><ele>1352.0</ele><time>2026-05-01T14:28:03.002Z</time></trkpt><trkpt lat="44.59550628407282" lon="7.338160562563144"><ele>1352.0</ele><time>2026-05-01T14:28:04.002Z</time></trkpt><trkpt lat="44.595539980281885" lon="7.338328921515977"><ele>1352.0</ele><time>2026-05-01T14:28:05.002Z</time></trkpt><trkpt lat="44.59560469834448" lon="7.338569310010273"><ele>1352.0</ele><time>2026-05-01T14:28:06.002Z</time></trkpt><trkpt lat="44.59565838801842" lon="7.3386919186042165"><ele>1352.0</ele><time>2026-05-01T14:28:07.002Z</time></trkpt><trkpt lat="44.59570186169757" lon="7.3387811859025"><ele>1350.5</ele><time>2026-05-01T14:28:08.002Z</time></trkpt><trkpt lat="44.595684980803235" lon="7.3389375347224"><ele>1349.0</ele><time>2026-05-01T14:28:10.002Z</time></trkpt><trkpt lat="44.595734234302554" lon="7.338992789126677"><ele>1347.5</ele><time>2026-05-01T14:28:11.002Z</time></trkpt><trkpt lat="44.595788762888425" lon="7.339062928915237"><ele>1346.0</ele><time>2026-05-01T14:28:12.003Z</time></trkpt><trkpt lat="44.59584993501184" lon="7.339154852354678"><ele>1344.5</ele><time>2026-05-01T14:28:13.003Z</time></trkpt><trkpt lat="44.595910411371854" lon="7.339240207436959"><ele>1343.0</ele><time>2026-05-01T14:28:14.003Z</time></trkpt><trkpt lat="44.59596229346531" lon="7.339297671567555"><ele>1343.0</ele><time>2026-05-01T14:28:15.003Z</time></trkpt><trkpt lat="44.59605053032187" lon="7.339399683147536"><ele>1343.0</ele><time>2026-05-01T14:28:17.003Z</time></trkpt><trkpt lat="44.596100575976685" lon="7.339458163337227"><ele>1343.0</ele><time>2026-05-01T14:28:18.003Z</time></trkpt><trkpt lat="44.5961440970256" lon="7.339530428557112"><ele>1343.0</ele><time>2026-05-01T14:28:19.003Z</time></trkpt><trkpt lat="44.59618770273703" lon="7.339599174839097"><ele>1343.0</ele><time>2026-05-01T14:28:20.003Z</time></trkpt><trkpt lat="44.59621195851156" lon="7.339719219842672"><ele>1343.0</ele><time>2026-05-01T14:28:21.003Z</time></trkpt><trkpt lat="44.59646420313417" lon="7.339886828710668"><ele>1347.8333333333335</ele><time>2026-05-01T14:28:23.003Z</time></trkpt><trkpt lat="44.59648879868855" lon="7.3399899476792685"><ele>1352.6666666666667</ele><time>2026-05-01T14:28:24.003Z</time></trkpt><trkpt lat="44.596486014258" lon="7.340117927011802"><ele>1357.5</ele><time>2026-05-01T14:28:25.003Z</time></trkpt><trkpt lat="44.596447380672025" lon="7.340232634990735"><ele>1362.3333333333333</ele><time>2026-05-01T14:28:26.003Z</time></trkpt><trkpt lat="44.59641039373475" lon="7.340328454614225"><ele>1367.1666666666665</ele><time>2026-05-01T14:28:27.003Z</time></trkpt><trkpt lat="44.59637648505802" lon="7.340428665359785"><ele>1372.0</ele><time>2026-05-01T14:28:28.003Z</time></trkpt><trkpt lat="44.596326117307" lon="7.340546188553755"><ele>1371.8</ele><time>2026-05-01T14:28:29.003Z</time></trkpt><trkpt lat="44.59629178054112" lon="7.34068310740866"><ele>1371.6</ele><time>2026-05-01T14:28:30.003Z</time></trkpt><trkpt lat="44.59627842586071" lon="7.3408237882189225"><ele>1371.3999999999999</ele><time>2026-05-01T14:28:31.003Z</time></trkpt><trkpt lat="44.596282689568135" lon="7.3409502737629335"><ele>1371.1999999999998</ele><time>2026-05-01T14:28:32.003Z</time></trkpt><trkpt lat="44.596277224692884" lon="7.341068218543837"><ele>1371.0</ele><time>2026-05-01T14:28:33.003Z</time></trkpt><trkpt lat="44.59625310745019" lon="7.341162717109249"><ele>1371.0</ele><time>2026-05-01T14:28:34.003Z</time></trkpt><trkpt lat="44.59619052661348" lon="7.341269683938528"><ele>1371.0</ele><time>2026-05-01T14:28:35.003Z</time></trkpt><trkpt lat="44.59613429792363" lon="7.341359533603511"><ele>1371.0</ele><time>2026-05-01T14:28:36.003Z</time></trkpt><trkpt lat="44.59608915554169" lon="7.3414754497459995"><ele>1371.0</ele><time>2026-05-01T14:28:37.003Z</time></trkpt><trkpt lat="44.59603573184699" lon="7.341593065446132"><ele>1371.0</ele><time>2026-05-01T14:28:38.003Z</time></trkpt><trkpt lat="44.59597966511309" lon="7.3417087738476825"><ele>1367.0</ele><time>2026-05-01T14:28:39.003Z</time></trkpt><trkpt lat="44.59592872041607" lon="7.341806319142209"><ele>1363.0</ele><time>2026-05-01T14:28:40.003Z</time></trkpt><trkpt lat="44.59586982149281" lon="7.341891666345042"><ele>1359.0</ele><time>2026-05-01T14:28:41.003Z</time></trkpt><trkpt lat="44.595860578726295" lon="7.342084017235488"><ele>1355.0</ele><time>2026-05-01T14:28:42.999Z</time></trkpt><trkpt lat="44.5958883778897" lon="7.342226233546423"><ele>1351.0</ele><time>2026-05-01T14:28:43.999Z</time></trkpt><trkpt lat="44.59590361115975" lon="7.342416442874093"><ele>1351.0</ele><time>2026-05-01T14:28:44.999Z</time></trkpt><trkpt lat="44.595918436663275" lon="7.342592871100953"><ele>1351.0</ele><time>2026-05-01T14:28:45.999Z</time></trkpt><trkpt lat="44.59591453770976" lon="7.342716012297396"><ele>1351.0</ele><time>2026-05-01T14:28:46.999Z</time></trkpt><trkpt lat="44.595898576328636" lon="7.342836363006876"><ele>1351.0</ele><time>2026-05-01T14:28:47.999Z</time></trkpt><trkpt lat="44.59587054296446" lon="7.342993092044776"><ele>1351.0</ele><time>2026-05-01T14:28:48.999Z</time></trkpt><trkpt lat="44.595847934914175" lon="7.343146798484949"><ele>1350.8333333333333</ele><time>2026-05-01T14:28:49.999Z</time></trkpt><trkpt lat="44.595849687872324" lon="7.343272269592156"><ele>1350.6666666666665</ele><time>2026-05-01T14:28:50.999Z</time></trkpt><trkpt lat="44.59584422857053" lon="7.343361294376378"><ele>1350.5</ele><time>2026-05-01T14:28:51.999Z</time></trkpt><trkpt lat="44.59583296029393" lon="7.3434661930905625"><ele>1350.3333333333333</ele><time>2026-05-01T14:28:53Z</time></trkpt><trkpt lat="44.59580830697057" lon="7.34363407096895"><ele>1350.1666666666667</ele><time>2026-05-01T14:28:55Z</time></trkpt><trkpt lat="44.59580861144618" lon="7.343740049514642"><ele>1350.0</ele><time>2026-05-01T14:28:56Z</time></trkpt><trkpt lat="44.59578213395915" lon="7.343847186587059"><ele>1350.6</ele><time>2026-05-01T14:28:57Z</time></trkpt><trkpt lat="44.595760281377174" lon="7.343969233494958"><ele>1351.2</ele><time>2026-05-01T14:28:58Z</time></trkpt><trkpt lat="44.59573537563905" lon="7.34412457299393"><ele>1351.8000000000002</ele><time>2026-05-01T14:28:59Z</time></trkpt><trkpt lat="44.59569249370136" lon="7.344281631136855"><ele>1352.4</ele><time>2026-05-01T14:29:00Z</time></trkpt><trkpt lat="44.5956419710484" lon="7.344401646475845"><ele>1353.0</ele><time>2026-05-01T14:29:01Z</time></trkpt><trkpt lat="44.595611619111985" lon="7.344522829802364"><ele>1353.0</ele><time>2026-05-01T14:29:02Z</time></trkpt><trkpt lat="44.595556725324506" lon="7.34463113639589"><ele>1353.0</ele><time>2026-05-01T14:29:03Z</time></trkpt><trkpt lat="44.59548530548069" lon="7.3447470413704234"><ele>1353.0</ele><time>2026-05-01T14:29:04Z</time></trkpt><trkpt lat="44.595404711962914" lon="7.3448485414861535"><ele>1353.0</ele><time>2026-05-01T14:29:05Z</time></trkpt><trkpt lat="44.59532894232027" lon="7.344890511209275"><ele>1353.0</ele><time>2026-05-01T14:29:06Z</time></trkpt><trkpt lat="44.59524059663394" lon="7.344870561877414"><ele>1349.6000000000001</ele><time>2026-05-01T14:29:07Z</time></trkpt><trkpt lat="44.595153912455906" lon="7.344860832376386"><ele>1346.2</ele><time>2026-05-01T14:29:08Z</time></trkpt><trkpt lat="44.595072657003236" lon="7.344894705767369"><ele>1342.8</ele><time>2026-05-01T14:29:10Z</time></trkpt><trkpt lat="44.595030325014136" lon="7.345050112522593"><ele>1339.4</ele><time>2026-05-01T14:29:12Z</time></trkpt><trkpt lat="44.59499572092832" lon="7.34513618895287"><ele>1336.0</ele><time>2026-05-01T14:29:13Z</time></trkpt><trkpt lat="44.59494091522686" lon="7.345315091063124"><ele>1336.0</ele><time>2026-05-01T14:29:15Z</time></trkpt><trkpt lat="44.59490060646488" lon="7.345388070649945"><ele>1336.0</ele><time>2026-05-01T14:29:16Z</time></trkpt><trkpt lat="44.59484488933555" lon="7.345504089278432"><ele>1336.0</ele><time>2026-05-01T14:29:17.001Z</time></trkpt><trkpt lat="44.59483207339262" lon="7.345607507609755"><ele>1336.0</ele><time>2026-05-01T14:29:18.001Z</time></trkpt><trkpt lat="44.59480355944999" lon="7.345700222107325"><ele>1336.0</ele><time>2026-05-01T14:29:19.001Z</time></trkpt><trkpt lat="44.59477236408626" lon="7.345789944285869"><ele>1336.0</ele><time>2026-05-01T14:29:20.001Z</time></trkpt><trkpt lat="44.5947016858835" lon="7.345951272676126"><ele>1336.0</ele><time>2026-05-01T14:29:22.001Z</time></trkpt><trkpt lat="44.59472549563834" lon="7.3460368819306225"><ele>1336.0</ele><time>2026-05-01T14:29:23.001Z</time></trkpt><trkpt lat="44.594775087138935" lon="7.346152103276071"><ele>1336.0</ele><time>2026-05-01T14:29:24.001Z</time></trkpt><trkpt lat="44.59483208706251" lon="7.346280736712311"><ele>1336.0</ele><time>2026-05-01T14:29:25.001Z</time></trkpt><trkpt lat="44.594894738478054" lon="7.3464183138976855"><ele>1336.0</ele><time>2026-05-01T14:29:26.001Z</time></trkpt><trkpt lat="44.59494123651612" lon="7.3465261542559555"><ele>1335.1999999999998</ele><time>2026-05-01T14:29:27.001Z</time></trkpt><trkpt lat="44.594937704508965" lon="7.346639408674811"><ele>1334.3999999999999</ele><time>2026-05-01T14:29:28.001Z</time></trkpt><trkpt lat="44.59490838684644" lon="7.346763953555648"><ele>1333.6</ele><time>2026-05-01T14:29:29.001Z</time></trkpt><trkpt lat="44.59488857913106" lon="7.346883768502017"><ele>1332.8</ele><time>2026-05-01T14:29:30.001Z</time></trkpt><trkpt lat="44.59488876950735" lon="7.34701786832858"><ele>1332.0</ele><time>2026-05-01T14:29:31.001Z</time></trkpt><trkpt lat="44.59488894026132" lon="7.3471948469198605"><ele>1331.0</ele><time>2026-05-01T14:29:32.001Z</time></trkpt><trkpt lat="44.59489413702786" lon="7.347362902510441"><ele>1330.0</ele><time>2026-05-01T14:29:33.001Z</time></trkpt><trkpt lat="44.59489451509396" lon="7.34748053226688"><ele>1329.0</ele><time>2026-05-01T14:29:34.001Z</time></trkpt><trkpt lat="44.59487314246398" lon="7.34758705546992"><ele>1328.0</ele><time>2026-05-01T14:29:35.001Z</time></trkpt><trkpt lat="44.59486037247781" lon="7.3477046482062836"><ele>1327.0</ele><time>2026-05-01T14:29:36.001Z</time></trkpt><trkpt lat="44.59484179792831" lon="7.347868130858537"><ele>1327.0</ele><time>2026-05-01T14:29:37.001Z</time></trkpt><trkpt lat="44.59482299660238" lon="7.3480167485290515"><ele>1327.0</ele><time>2026-05-01T14:29:38.001Z</time></trkpt><trkpt lat="44.594821820025" lon="7.348150540583895"><ele>1327.0</ele><time>2026-05-01T14:29:39.001Z</time></trkpt><trkpt lat="44.59482657905784" lon="7.348282661026923"><ele>1327.0</ele><time>2026-05-01T14:29:40.001Z</time></trkpt><trkpt lat="44.59480547006633" lon="7.34841926309391"><ele>1327.0</ele><time>2026-05-01T14:29:41.001Z</time></trkpt><trkpt lat="44.594785795079645" lon="7.348529724651499"><ele>1326.8</ele><time>2026-05-01T14:29:42.001Z</time></trkpt><trkpt lat="44.59477611480773" lon="7.348619619252781"><ele>1326.6</ele><time>2026-05-01T14:29:43.001Z</time></trkpt><trkpt lat="44.59474561777436" lon="7.348742768534046"><ele>1326.3999999999999</ele><time>2026-05-01T14:29:45.001Z</time></trkpt><trkpt lat="44.59469475710886" lon="7.348893401637463"><ele>1326.1999999999998</ele><time>2026-05-01T14:29:47.002Z</time></trkpt><trkpt lat="44.59466599998726" lon="7.348983946361364"><ele>1326.0</ele><time>2026-05-01T14:29:48.002Z</time></trkpt><trkpt lat="44.594624498220035" lon="7.3491243751327175"><ele>1324.25</ele><time>2026-05-01T14:29:50.002Z</time></trkpt><trkpt lat="44.594557413051525" lon="7.349265580609602"><ele>1322.5</ele><time>2026-05-01T14:29:52.002Z</time></trkpt><trkpt lat="44.59446775802916" lon="7.3493794544298865"><ele>1320.75</ele><time>2026-05-01T14:29:54.002Z</time></trkpt><trkpt lat="44.59438181342213" lon="7.349466233236833"><ele>1319.0</ele><time>2026-05-01T14:29:56.002Z</time></trkpt><trkpt lat="44.594324858498595" lon="7.3495876306959556"><ele>1316.8333333333335</ele><time>2026-05-01T14:29:58.002Z</time></trkpt><trkpt lat="44.59426271225624" lon="7.349693423982432"><ele>1314.6666666666667</ele><time>2026-05-01T14:30:00.002Z</time></trkpt><trkpt lat="44.59422396460602" lon="7.349769955398282"><ele>1312.5</ele><time>2026-05-01T14:30:01.002Z</time></trkpt><trkpt lat="44.594209205331225" lon="7.349880352618283"><ele>1310.3333333333333</ele><time>2026-05-01T14:30:03.002Z</time></trkpt><trkpt lat="44.59426098082924" lon="7.349979428668039"><ele>1308.1666666666665</ele><time>2026-05-01T14:30:08.002Z</time></trkpt><trkpt lat="44.59435557025024" lon="7.350073287878066"><ele>1306.0</ele><time>2026-05-01T14:30:10.002Z</time></trkpt><trkpt lat="44.59449439950445" lon="7.350112634372887"><ele>1305.4</ele><time>2026-05-01T14:30:12.002Z</time></trkpt><trkpt lat="44.59458220511895" lon="7.3501612334949"><ele>1304.8</ele><time>2026-05-01T14:30:13.002Z</time></trkpt><trkpt lat="44.594655456838666" lon="7.3501761368396155"><ele>1304.2</ele><time>2026-05-01T14:30:14.002Z</time></trkpt><trkpt lat="44.59476664630154" lon="7.350203199934086"><ele>1303.6000000000001</ele><time>2026-05-01T14:30:16.002Z</time></trkpt><trkpt lat="44.5948747225774" lon="7.350231477960104"><ele>1303.0</ele><time>2026-05-01T14:30:18.002Z</time></trkpt><trkpt lat="44.594967450768394" lon="7.35031563533601"><ele>1303.0</ele><time>2026-05-01T14:30:20.003Z</time></trkpt><trkpt lat="44.595027680699715" lon="7.350368271110084"><ele>1303.0</ele><time>2026-05-01T14:30:21.003Z</time></trkpt><trkpt lat="44.59507558412852" lon="7.350430283625275"><ele>1303.0</ele><time>2026-05-01T14:30:22.003Z</time></trkpt><trkpt lat="44.59513165528272" lon="7.350536275449572"><ele>1303.0</ele><time>2026-05-01T14:30:24.003Z</time></trkpt><trkpt lat="44.59521784132282" lon="7.350671750590255"><ele>1303.0</ele><time>2026-05-01T14:30:25.003Z</time></trkpt><trkpt lat="44.59528905447408" lon="7.350834827499044"><ele>1299.0</ele><time>2026-05-01T14:30:27.003Z</time></trkpt><trkpt lat="44.59532491525885" lon="7.35093294331552"><ele>1295.0</ele><time>2026-05-01T14:30:28.003Z</time></trkpt><trkpt lat="44.59538853039288" lon="7.351066357040461"><ele>1291.0</ele><time>2026-05-01T14:30:30.003Z</time></trkpt><trkpt lat="44.595459185399754" lon="7.351186057441153"><ele>1287.0</ele><time>2026-05-01T14:30:32.003Z</time></trkpt><trkpt lat="44.59554423657901" lon="7.351310768398887"><ele>1283.0</ele><time>2026-05-01T14:30:34.003Z</time></trkpt><trkpt lat="44.595603480632036" lon="7.3513618825996545"><ele>1279.6666666666667</ele><time>2026-05-01T14:30:35.003Z</time></trkpt><trkpt lat="44.59569904756657" lon="7.351471200899447"><ele>1276.3333333333335</ele><time>2026-05-01T14:30:37.003Z</time></trkpt><trkpt lat="44.59573784627078" lon="7.351552208267896"><ele>1273.0</ele><time>2026-05-01T14:30:38.003Z</time></trkpt><trkpt lat="44.59580180108531" lon="7.351667796171701"><ele>1269.6666666666667</ele><time>2026-05-01T14:30:40.003Z</time></trkpt><trkpt lat="44.59585863722582" lon="7.351730891199391"><ele>1266.3333333333333</ele><time>2026-05-01T14:30:41.003Z</time></trkpt><trkpt lat="44.59593094751426" lon="7.351717165052906"><ele>1263.0</ele><time>2026-05-01T14:30:43.003Z</time></trkpt><trkpt lat="44.59598819327158" lon="7.3516057746267895"><ele>1263.0</ele><time>2026-05-01T14:30:45.003Z</time></trkpt><trkpt lat="44.596053352374845" lon="7.351481123706604"><ele>1263.0</ele><time>2026-05-01T14:30:47.003Z</time></trkpt><trkpt lat="44.59614741956494" lon="7.351344554809271"><ele>1263.0</ele><time>2026-05-01T14:30:48.999Z</time></trkpt><trkpt lat="44.59619888004403" lon="7.351277712492691"><ele>1263.0</ele><time>2026-05-01T14:30:49.999Z</time></trkpt><trkpt lat="44.59633049850887" lon="7.351172900694793"><ele>1262.6</ele><time>2026-05-01T14:30:51.999Z</time></trkpt><trkpt lat="44.596434835778915" lon="7.351068879904917"><ele>1262.1999999999998</ele><time>2026-05-01T14:30:54Z</time></trkpt><trkpt lat="44.596487029085544" lon="7.351011671550898"><ele>1261.8</ele><time>2026-05-01T14:30:55Z</time></trkpt><trkpt lat="44.59658076797929" lon="7.350891961434496"><ele>1261.3999999999999</ele><time>2026-05-01T14:30:57Z</time></trkpt><trkpt lat="44.59665195130168" lon="7.35080368450618"><ele>1261.0</ele><time>2026-05-01T14:30:59Z</time></trkpt><trkpt lat="44.59671577583094" lon="7.3506838513447565"><ele>1261.0</ele><time>2026-05-01T14:31:01Z</time></trkpt><trkpt lat="44.59680383819667" lon="7.350597593954425"><ele>1261.0</ele><time>2026-05-01T14:31:04Z</time></trkpt><trkpt lat="44.596868598329806" lon="7.350626217777595"><ele>1261.0</ele><time>2026-05-01T14:31:06Z</time></trkpt><trkpt lat="44.596956982011804" lon="7.3506639858319875"><ele>1261.0</ele><time>2026-05-01T14:31:08Z</time></trkpt><trkpt lat="44.5970637933928" lon="7.350707152595726"><ele>1261.0</ele><time>2026-05-01T14:31:10Z</time></trkpt><trkpt lat="44.59718525046517" lon="7.3507572691981515"><ele>1260.1666666666665</ele><time>2026-05-01T14:31:13Z</time></trkpt><trkpt lat="44.59725435624098" lon="7.350785279597517"><ele>1259.3333333333333</ele><time>2026-05-01T14:31:14Z</time></trkpt><trkpt lat="44.59731739407637" lon="7.350818885960129"><ele>1258.5</ele><time>2026-05-01T14:31:15Z</time></trkpt><trkpt lat="44.597380924026375" lon="7.350841584742353"><ele>1257.6666666666667</ele><time>2026-05-01T14:31:16Z</time></trkpt><trkpt lat="44.597487330071964" lon="7.3508968587633134"><ele>1256.8333333333335</ele><time>2026-05-01T14:31:18Z</time></trkpt><trkpt lat="44.59754595583209" lon="7.350966854465425"><ele>1256.0</ele><time>2026-05-01T14:31:19Z</time></trkpt><trkpt lat="44.5976648090997" lon="7.351032813539613"><ele>1256.0</ele><time>2026-05-01T14:31:21.001Z</time></trkpt><trkpt lat="44.59777351876404" lon="7.3510683486860335"><ele>1256.0</ele><time>2026-05-01T14:31:23.001Z</time></trkpt><trkpt lat="44.59783641456413" lon="7.351107664476953"><ele>1256.0</ele><time>2026-05-01T14:31:24.001Z</time></trkpt><trkpt lat="44.597941821150876" lon="7.351171084499776"><ele>1256.0</ele><time>2026-05-01T14:31:26.001Z</time></trkpt><trkpt lat="44.59801016129811" lon="7.351287480975483"><ele>1256.0</ele><time>2026-05-01T14:31:29.001Z</time></trkpt><trkpt lat="44.59808851459573" lon="7.351336535052394"><ele>1250.8</ele><time>2026-05-01T14:31:30.001Z</time></trkpt><trkpt lat="44.59814914767942" lon="7.351390683393201"><ele>1245.6</ele><time>2026-05-01T14:31:31.001Z</time></trkpt><trkpt lat="44.598261168406566" lon="7.351495948746035"><ele>1240.4</ele><time>2026-05-01T14:31:33.001Z</time></trkpt><trkpt lat="44.59831773984552" lon="7.351558375633068"><ele>1235.2</ele><time>2026-05-01T14:31:34.001Z</time></trkpt><trkpt lat="44.59841898750015" lon="7.351580220820967"><ele>1230.0</ele><time>2026-05-01T14:31:36.001Z</time></trkpt><trkpt lat="44.59849716671272" lon="7.351616724819775"><ele>1230.0</ele><time>2026-05-01T14:31:37.001Z</time></trkpt><trkpt lat="44.59856144348516" lon="7.351653245058102"><ele>1230.0</ele><time>2026-05-01T14:31:38.001Z</time></trkpt><trkpt lat="44.598616474930466" lon="7.351700866502367"><ele>1230.0</ele><time>2026-05-01T14:31:39.001Z</time></trkpt><trkpt lat="44.59865925879319" lon="7.351767362418818"><ele>1230.0</ele><time>2026-05-01T14:31:40.001Z</time></trkpt><trkpt lat="44.59871038544119" lon="7.351905421531547"><ele>1230.0</ele><time>2026-05-01T14:31:42.001Z</time></trkpt><trkpt lat="44.59877037167714" lon="7.352039234247773"><ele>1230.0</ele><time>2026-05-01T14:31:44.001Z</time></trkpt><trkpt lat="44.598685840106434" lon="7.352140822032167"><ele>1230.0</ele><time>2026-05-01T14:31:46.001Z</time></trkpt><trkpt lat="44.598581897697144" lon="7.352108311704267"><ele>1230.0</ele><time>2026-05-01T14:31:48.001Z</time></trkpt><trkpt lat="44.59856207728511" lon="7.3519882933837915"><ele>1230.0</ele><time>2026-05-01T14:31:51.002Z</time></trkpt><trkpt lat="44.59842391367597" lon="7.351986130244567"><ele>1230.0</ele><time>2026-05-01T14:31:53.002Z</time></trkpt><trkpt lat="44.598337299350845" lon="7.351981999123077"><ele>1230.0</ele><time>2026-05-01T14:31:54.002Z</time></trkpt><trkpt lat="44.598248869757924" lon="7.3519903911436755"><ele>1230.0</ele><time>2026-05-01T14:31:55.002Z</time></trkpt><trkpt lat="44.598179176418405" lon="7.351997636581067"><ele>1230.0</ele><time>2026-05-01T14:31:56.002Z</time></trkpt><trkpt lat="44.598113175151504" lon="7.351945200827863"><ele>1230.0</ele><time>2026-05-01T14:31:58.002Z</time></trkpt><trkpt lat="44.59801905350783" lon="7.351939623833742"><ele>1230.0</ele><time>2026-05-01T14:32:00.002Z</time></trkpt><trkpt lat="44.597922773561926" lon="7.351938591375338"><ele>1230.0</ele><time>2026-05-01T14:32:02.002Z</time></trkpt><trkpt lat="44.597853473665765" lon="7.351944594514687"><ele>1230.0</ele><time>2026-05-01T14:32:03.002Z</time></trkpt><trkpt lat="44.597772849494156" lon="7.351970932664004"><ele>1227.8333333333333</ele><time>2026-05-01T14:32:04.002Z</time></trkpt><trkpt lat="44.59770979278709" lon="7.352006793810539"><ele>1225.6666666666667</ele><time>2026-05-01T14:32:05.002Z</time></trkpt><trkpt lat="44.5976487664108" lon="7.352031768396637"><ele>1223.5</ele><time>2026-05-01T14:32:06.002Z</time></trkpt><trkpt lat="44.5975460898125" lon="7.352016000990838"><ele>1221.3333333333335</ele><time>2026-05-01T14:32:08.002Z</time></trkpt><trkpt lat="44.59744554743456" lon="7.351922556816701"><ele>1219.1666666666667</ele><time>2026-05-01T14:32:10.002Z</time></trkpt><trkpt lat="44.59736101471021" lon="7.351880932363818"><ele>1217.0</ele><time>2026-05-01T14:32:11.002Z</time></trkpt><trkpt lat="44.59726588578084" lon="7.351908588966015"><ele>1217.0</ele><time>2026-05-01T14:32:13.002Z</time></trkpt><trkpt lat="44.59720576746863" lon="7.35197882861794"><ele>1217.0</ele><time>2026-05-01T14:32:15.002Z</time></trkpt><trkpt lat="44.597204810423996" lon="7.352090744583032"><ele>1217.0</ele><time>2026-05-01T14:32:17.002Z</time></trkpt><trkpt lat="44.597205303319086" lon="7.352237119743076"><ele>1217.0</ele><time>2026-05-01T14:32:19.002Z</time></trkpt><trkpt lat="44.59715517262085" lon="7.352387219775729"><ele>1217.0</ele><time>2026-05-01T14:32:21.002Z</time></trkpt><trkpt lat="44.59710947289203" lon="7.352521811351873"><ele>1217.3333333333335</ele><time>2026-05-01T14:32:22.002Z</time></trkpt><trkpt lat="44.597082245697784" lon="7.352646340491736"><ele>1217.6666666666667</ele><time>2026-05-01T14:32:23.003Z</time></trkpt><trkpt lat="44.59703075070785" lon="7.3527262057585085"><ele>1218.0</ele><time>2026-05-01T14:32:24.003Z</time></trkpt><trkpt lat="44.5969978721866" lon="7.352810883135689"><ele>1218.3333333333333</ele><time>2026-05-01T14:32:25.003Z</time></trkpt><trkpt lat="44.59695645731398" lon="7.352908282932132"><ele>1218.6666666666665</ele><time>2026-05-01T14:32:26.003Z</time></trkpt><trkpt lat="44.596926317496504" lon="7.353019813460077"><ele>1219.0</ele><time>2026-05-01T14:32:27.003Z</time></trkpt><trkpt lat="44.59689004386206" lon="7.353137465096853"><ele>1215.4</ele><time>2026-05-01T14:32:28.003Z</time></trkpt><trkpt lat="44.59685733891311" lon="7.353234081084324"><ele>1211.8000000000002</ele><time>2026-05-01T14:32:29.003Z</time></trkpt><trkpt lat="44.596832747334666" lon="7.353357638690783"><ele>1208.1999999999998</ele><time>2026-05-01T14:32:30.003Z</time></trkpt><trkpt lat="44.59679272198301" lon="7.353481832468699"><ele>1204.6</ele><time>2026-05-01T14:32:31.003Z</time></trkpt><trkpt lat="44.596765900171995" lon="7.353610759522315"><ele>1201.0</ele><time>2026-05-01T14:32:32.003Z</time></trkpt><trkpt lat="44.59677266472202" lon="7.353760712743768"><ele>1199.1666666666665</ele><time>2026-05-01T14:32:33.003Z</time></trkpt><trkpt lat="44.59678051516726" lon="7.3539163829532335"><ele>1197.3333333333333</ele><time>2026-05-01T14:32:34.003Z</time></trkpt><trkpt lat="44.596786007901045" lon="7.3540141512164485"><ele>1195.5</ele><time>2026-05-01T14:32:35.003Z</time></trkpt><trkpt lat="44.596789535846305" lon="7.354106051335361"><ele>1193.6666666666667</ele><time>2026-05-01T14:32:36.003Z</time></trkpt><trkpt lat="44.59676222945689" lon="7.354188247079273"><ele>1191.8333333333335</ele><time>2026-05-01T14:32:37.003Z</time></trkpt><trkpt lat="44.59673477367361" lon="7.354279771117581"><ele>1190.0</ele><time>2026-05-01T14:32:38.003Z</time></trkpt><trkpt lat="44.59670604457647" lon="7.354376316335587"><ele>1190.0</ele><time>2026-05-01T14:32:39.003Z</time></trkpt><trkpt lat="44.59667417995044" lon="7.354464557062221"><ele>1190.0</ele><time>2026-05-01T14:32:40.003Z</time></trkpt><trkpt lat="44.59665326367473" lon="7.354567254913306"><ele>1190.0</ele><time>2026-05-01T14:32:41.003Z</time></trkpt><trkpt lat="44.59662992745071" lon="7.354679781875317"><ele>1190.0</ele><time>2026-05-01T14:32:42.003Z</time></trkpt><trkpt lat="44.59664597711017" lon="7.354799730190323"><ele>1190.0</ele><time>2026-05-01T14:32:43.003Z</time></trkpt><trkpt lat="44.59666961794146" lon="7.354905832936613"><ele>1190.0</ele><time>2026-05-01T14:32:44.003Z</time></trkpt><trkpt lat="44.596696310597714" lon="7.35500061354878"><ele>1188.3333333333335</ele><time>2026-05-01T14:32:45.003Z</time></trkpt><trkpt lat="44.59672127529863" lon="7.355100263779582"><ele>1186.6666666666667</ele><time>2026-05-01T14:32:46.003Z</time></trkpt><trkpt lat="44.596768944871705" lon="7.355201441941632"><ele>1185.0</ele><time>2026-05-01T14:32:47.003Z</time></trkpt><trkpt lat="44.596796444389675" lon="7.355305402994389"><ele>1183.3333333333333</ele><time>2026-05-01T14:32:48.003Z</time></trkpt><trkpt lat="44.596823909308384" lon="7.3553903182033515"><ele>1181.6666666666665</ele><time>2026-05-01T14:32:49.003Z</time></trkpt><trkpt lat="44.59685921689702" lon="7.355467770935705"><ele>1180.0</ele><time>2026-05-01T14:32:50.003Z</time></trkpt><trkpt lat="44.59689304762098" lon="7.355565532949733"><ele>1177.6666666666665</ele><time>2026-05-01T14:32:51.003Z</time></trkpt><trkpt lat="44.59690210445564" lon="7.355672063388659"><ele>1175.3333333333333</ele><time>2026-05-01T14:32:52.003Z</time></trkpt><trkpt lat="44.596885129011284" lon="7.355763577444437"><ele>1173.0</ele><time>2026-05-01T14:32:53.003Z</time></trkpt><trkpt lat="44.59687840438376" lon="7.355861885659687"><ele>1170.6666666666667</ele><time>2026-05-01T14:32:53.999Z</time></trkpt><trkpt lat="44.596838080781836" lon="7.35593384308483"><ele>1168.3333333333335</ele><time>2026-05-01T14:32:54.999Z</time></trkpt><trkpt lat="44.5967866624263" lon="7.356049573532656"><ele>1166.0</ele><time>2026-05-01T14:32:56Z</time></trkpt><trkpt lat="44.5967225595783" lon="7.3561801620150575"><ele>1166.0</ele><time>2026-05-01T14:32:58Z</time></trkpt><trkpt lat="44.59663253478841" lon="7.356259809593832"><ele>1166.0</ele><time>2026-05-01T14:33:01Z</time></trkpt><trkpt lat="44.59655761718006" lon="7.356333807367476"><ele>1166.0</ele><time>2026-05-01T14:33:04Z</time></trkpt><trkpt lat="44.596505690112295" lon="7.356392112835205"><ele>1166.0</ele><time>2026-05-01T14:33:07Z</time></trkpt><trkpt lat="44.59646040190724" lon="7.356467320987399"><ele>1166.0</ele><time>2026-05-01T14:33:12Z</time></trkpt><trkpt lat="44.596421770403175" lon="7.356592424207755"><ele>1166.0</ele><time>2026-05-01T14:33:16Z</time></trkpt><trkpt lat="44.59634602048568" lon="7.356722039158101"><ele>1164.6</ele><time>2026-05-01T14:33:18Z</time></trkpt><trkpt lat="44.59629636777226" lon="7.356813272551796"><ele>1163.1999999999998</ele><time>2026-05-01T14:33:19Z</time></trkpt><trkpt lat="44.59623547502073" lon="7.356886423093372"><ele>1161.8000000000002</ele><time>2026-05-01T14:33:20Z</time></trkpt><trkpt lat="44.59618473301625" lon="7.356950147431954"><ele>1160.4</ele><time>2026-05-01T14:33:21Z</time></trkpt><trkpt lat="44.59612286801621" lon="7.357073596928292"><ele>1159.0</ele><time>2026-05-01T14:33:23Z</time></trkpt><trkpt lat="44.5960892314208" lon="7.357239506624228"><ele>1155.75</ele><time>2026-05-01T14:33:25Z</time></trkpt><trkpt lat="44.59604809466134" lon="7.357411440930536"><ele>1152.5</ele><time>2026-05-01T14:33:27Z</time></trkpt><trkpt lat="44.595974793176296" lon="7.357555637285154"><ele>1149.25</ele><time>2026-05-01T14:33:29.001Z</time></trkpt><trkpt lat="44.59586611068095" lon="7.357658385783409"><ele>1146.0</ele><time>2026-05-01T14:33:31.001Z</time></trkpt><trkpt lat="44.59578862978933" lon="7.357784019641279"><ele>1146.0</ele><time>2026-05-01T14:33:33.001Z</time></trkpt><trkpt lat="44.595760223967304" lon="7.357873400714784"><ele>1146.0</ele><time>2026-05-01T14:33:34.001Z</time></trkpt><trkpt lat="44.595737309455835" lon="7.357972034968428"><ele>1146.0</ele><time>2026-05-01T14:33:35.001Z</time></trkpt><trkpt lat="44.59570049786956" lon="7.3580643499252325"><ele>1146.0</ele><time>2026-05-01T14:33:36.001Z</time></trkpt><trkpt lat="44.595695128086334" lon="7.3582585336542605"><ele>1146.0</ele><time>2026-05-01T14:33:38.001Z</time></trkpt><trkpt lat="44.595717539114105" lon="7.358371928728921"><ele>1146.0</ele><time>2026-05-01T14:33:39.001Z</time></trkpt><trkpt lat="44.595746372532446" lon="7.358480554209886"><ele>1146.0</ele><time>2026-05-01T14:33:40.001Z</time></trkpt><trkpt lat="44.59577111518849" lon="7.358606487319513"><ele>1146.0</ele><time>2026-05-01T14:33:41.001Z</time></trkpt><trkpt lat="44.59578087103059" lon="7.358720733525411"><ele>1146.0</ele><time>2026-05-01T14:33:42.001Z</time></trkpt><trkpt lat="44.59576837507432" lon="7.358849396194137"><ele>1146.0</ele><time>2026-05-01T14:33:43.001Z</time></trkpt><trkpt lat="44.595742588848985" lon="7.3589568394820315"><ele>1146.0</ele><time>2026-05-01T14:33:44.001Z</time></trkpt><trkpt lat="44.59569553626608" lon="7.359031420219336"><ele>1146.0</ele><time>2026-05-01T14:33:45.001Z</time></trkpt><trkpt lat="44.595677976253285" lon="7.359119675453166"><ele>1144.5</ele><time>2026-05-01T14:33:46.001Z</time></trkpt><trkpt lat="44.595643719297925" lon="7.359209031019055"><ele>1143.0</ele><time>2026-05-01T14:33:47.001Z</time></trkpt><trkpt lat="44.595634092895935" lon="7.359310442105652"><ele>1141.5</ele><time>2026-05-01T14:33:48.001Z</time></trkpt><trkpt lat="44.59558045893011" lon="7.359391151737969"><ele>1140.0</ele><time>2026-05-01T14:33:49.001Z</time></trkpt><trkpt lat="44.595544431616865" lon="7.359494098931766"><ele>1138.5</ele><time>2026-05-01T14:33:50.001Z</time></trkpt><trkpt lat="44.5955133839043" lon="7.359594142837578"><ele>1137.0</ele><time>2026-05-01T14:33:51.001Z</time></trkpt><trkpt lat="44.59549608068847" lon="7.359686756828573"><ele>1134.6</ele><time>2026-05-01T14:33:52.001Z</time></trkpt><trkpt lat="44.595426772989676" lon="7.359824980750829"><ele>1132.2</ele><time>2026-05-01T14:33:54.001Z</time></trkpt><trkpt lat="44.595379834417514" lon="7.359948927183374"><ele>1129.8</ele><time>2026-05-01T14:33:56.001Z</time></trkpt><trkpt lat="44.59531732156404" lon="7.360078523494636"><ele>1127.4</ele><time>2026-05-01T14:33:58.001Z</time></trkpt><trkpt lat="44.59525166916548" lon="7.360209808350707"><ele>1125.0</ele><time>2026-05-01T14:34:00.002Z</time></trkpt><trkpt lat="44.595194628915095" lon="7.360353621198649"><ele>1122.0</ele><time>2026-05-01T14:34:02.002Z</time></trkpt><trkpt lat="44.59516609204691" lon="7.360435745183531"><ele>1119.0</ele><time>2026-05-01T14:34:03.002Z</time></trkpt><trkpt lat="44.59512552348762" lon="7.360513263595578"><ele>1116.0</ele><time>2026-05-01T14:34:04.002Z</time></trkpt><trkpt lat="44.5950405693649" lon="7.360624898892694"><ele>1113.0</ele><time>2026-05-01T14:34:06.002Z</time></trkpt><trkpt lat="44.59495348228902" lon="7.360708006156552"><ele>1110.0</ele><time>2026-05-01T14:34:08.002Z</time></trkpt><trkpt lat="44.5948533151043" lon="7.360698866529141"><ele>1110.0</ele><time>2026-05-01T14:34:10.002Z</time></trkpt><trkpt lat="44.5948087416353" lon="7.360556969985886"><ele>1110.0</ele><time>2026-05-01T14:34:12.002Z</time></trkpt><trkpt lat="44.5948359819939" lon="7.360416729556281"><ele>1110.0</ele><time>2026-05-01T14:34:14.002Z</time></trkpt><trkpt lat="44.594874130036445" lon="7.360301994195182"><ele>1110.0</ele><time>2026-05-01T14:34:16.002Z</time></trkpt><trkpt lat="44.594915296065835" lon="7.360169082281672"><ele>1110.0</ele><time>2026-05-01T14:34:18.002Z</time></trkpt><trkpt lat="44.595002234230606" lon="7.360046717429626"><ele>1110.0</ele><time>2026-05-01T14:34:20.002Z</time></trkpt><trkpt lat="44.59499785980283" lon="7.35994332974208"><ele>1110.0</ele><time>2026-05-01T14:34:22.002Z</time></trkpt><trkpt lat="44.59490203401351" lon="7.359970697024467"><ele>1110.0</ele><time>2026-05-01T14:34:24.002Z</time></trkpt><trkpt lat="44.59485279256919" lon="7.36003545193723"><ele>1110.0</ele><time>2026-05-01T14:34:25.002Z</time></trkpt><trkpt lat="44.59476453304902" lon="7.360135636427269"><ele>1110.0</ele><time>2026-05-01T14:34:27.002Z</time></trkpt><trkpt lat="44.59464976212637" lon="7.360203216368827"><ele>1110.0</ele><time>2026-05-01T14:34:29.002Z</time></trkpt><trkpt lat="44.5945862312686" lon="7.360245417070321"><ele>1110.0</ele><time>2026-05-01T14:34:30.002Z</time></trkpt><trkpt lat="44.59453435704659" lon="7.360298921187489"><ele>1110.0</ele><time>2026-05-01T14:34:31.002Z</time></trkpt><trkpt lat="44.594471534358064" lon="7.360423288211818"><ele>1110.0</ele><time>2026-05-01T14:34:33.003Z</time></trkpt><trkpt lat="44.594430547637764" lon="7.360530927089835"><ele>1110.0</ele><time>2026-05-01T14:34:35.003Z</time></trkpt><trkpt lat="44.59438237643117" lon="7.360690907713242"><ele>1104.3333333333333</ele><time>2026-05-01T14:34:37.003Z</time></trkpt><trkpt lat="44.59435222068163" lon="7.360791852660483"><ele>1098.6666666666667</ele><time>2026-05-01T14:34:38.003Z</time></trkpt><trkpt lat="44.59432268812852" lon="7.360880872861295"><ele>1093.0</ele><time>2026-05-01T14:34:39.003Z</time></trkpt><trkpt lat="44.59429379379597" lon="7.360973484593443"><ele>1087.3333333333335</ele><time>2026-05-01T14:34:40.003Z</time></trkpt><trkpt lat="44.59428542732749" lon="7.361090560809879"><ele>1081.6666666666667</ele><time>2026-05-01T14:34:41.003Z</time></trkpt><trkpt lat="44.594260932586394" lon="7.361247617849272"><ele>1076.0</ele><time>2026-05-01T14:34:42.003Z</time></trkpt><trkpt lat="44.59426332407383" lon="7.361346945340497"><ele>1076.0</ele><time>2026-05-01T14:34:43.003Z</time></trkpt><trkpt lat="44.59429030175707" lon="7.361517311784418"><ele>1076.0</ele><time>2026-05-01T14:34:45.003Z</time></trkpt><trkpt lat="44.59432493017998" lon="7.361592528096251"><ele>1076.0</ele><time>2026-05-01T14:34:46.003Z</time></trkpt><trkpt lat="44.594411783528734" lon="7.36170493538691"><ele>1076.0</ele><time>2026-05-01T14:34:48.003Z</time></trkpt><trkpt lat="44.594457573269445" lon="7.361770316067055"><ele>1076.0</ele><time>2026-05-01T14:34:49.003Z</time></trkpt><trkpt lat="44.594533708656485" lon="7.361882850217354"><ele>1075.0</ele><time>2026-05-01T14:34:51.003Z</time></trkpt><trkpt lat="44.594539445137904" lon="7.361986167848925"><ele>1074.0</ele><time>2026-05-01T14:34:52.003Z</time></trkpt><trkpt lat="44.59451259047523" lon="7.362108897153065"><ele>1073.0</ele><time>2026-05-01T14:34:54.003Z</time></trkpt><trkpt lat="44.59452398296633" lon="7.362208981527995"><ele>1072.0</ele><time>2026-05-01T14:34:57.003Z</time></trkpt><trkpt lat="44.59460819766094" lon="7.362164201132605"><ele>1071.0</ele><time>2026-05-01T14:34:59.003Z</time></trkpt><trkpt lat="44.594666736729366" lon="7.362082357003356"><ele>1070.0</ele><time>2026-05-01T14:34:59.999Z</time></trkpt><trkpt lat="44.59476026164861" lon="7.361931237812935"><ele>1070.0</ele><time>2026-05-01T14:35:02Z</time></trkpt><trkpt lat="44.59480154453938" lon="7.361859189961531"><ele>1070.0</ele><time>2026-05-01T14:35:03Z</time></trkpt><trkpt lat="44.59485724203147" lon="7.361701317448652"><ele>1070.0</ele><time>2026-05-01T14:35:05Z</time></trkpt><trkpt lat="44.59494992684642" lon="7.361660270791634"><ele>1070.0</ele><time>2026-05-01T14:35:07Z</time></trkpt><trkpt lat="44.595028894964486" lon="7.36166549651256"><ele>1070.0</ele><time>2026-05-01T14:35:08Z</time></trkpt><trkpt lat="44.595103335582145" lon="7.3616496799239215"><ele>1070.0</ele><time>2026-05-01T14:35:09Z</time></trkpt><trkpt lat="44.59518691922873" lon="7.361705646627072"><ele>1070.0</ele><time>2026-05-01T14:35:11Z</time></trkpt><trkpt lat="44.595265457031196" lon="7.361669683845485"><ele>1070.0</ele><time>2026-05-01T14:35:13Z</time></trkpt><trkpt lat="44.595343490969626" lon="7.361628092680229"><ele>1070.0</ele><time>2026-05-01T14:35:15Z</time></trkpt><trkpt lat="44.59541459094232" lon="7.361642087686938"><ele>1070.0</ele><time>2026-05-01T14:35:16Z</time></trkpt><trkpt lat="44.59551107118934" lon="7.361667024097458"><ele>1070.0</ele><time>2026-05-01T14:35:18Z</time></trkpt><trkpt lat="44.59559635272997" lon="7.361611261972213"><ele>1070.0</ele><time>2026-05-01T14:35:23Z</time></trkpt><trkpt lat="44.59573099227749" lon="7.361647457785499"><ele>1066.3333333333335</ele><time>2026-05-01T14:35:27Z</time></trkpt><trkpt lat="44.59579951716139" lon="7.361632012271133"><ele>1062.6666666666667</ele><time>2026-05-01T14:35:29Z</time></trkpt><trkpt lat="44.59587191542553" lon="7.361603393473317"><ele>1059.0</ele><time>2026-05-01T14:35:30Z</time></trkpt><trkpt lat="44.59595267725157" lon="7.361553768898481"><ele>1055.3333333333333</ele><time>2026-05-01T14:35:31Z</time></trkpt><trkpt lat="44.596039998871916" lon="7.361566878974093"><ele>1051.6666666666665</ele><time>2026-05-01T14:35:32.001Z</time></trkpt><trkpt lat="44.59616165561176" lon="7.361578936005963"><ele>1048.0</ele><time>2026-05-01T14:35:33.001Z</time></trkpt><trkpt lat="44.59628995455231" lon="7.361617939186581"><ele>1045.6666666666665</ele><time>2026-05-01T14:35:34.001Z</time></trkpt><trkpt lat="44.59636866946172" lon="7.361650869692269"><ele>1043.3333333333333</ele><time>2026-05-01T14:35:35.001Z</time></trkpt><trkpt lat="44.59645502806229" lon="7.361644449536696"><ele>1041.0</ele><time>2026-05-01T14:35:36.001Z</time></trkpt><trkpt lat="44.59651823501335" lon="7.361606077793881"><ele>1038.6666666666667</ele><time>2026-05-01T14:35:37.001Z</time></trkpt><trkpt lat="44.596579587813224" lon="7.361566135620766"><ele>1036.3333333333335</ele><time>2026-05-01T14:35:38.001Z</time></trkpt><trkpt lat="44.59666862990407" lon="7.361469836372783"><ele>1034.0</ele><time>2026-05-01T14:35:40.001Z</time></trkpt><trkpt lat="44.5967394536793" lon="7.361418289963691"><ele>1035.6666666666667</ele><time>2026-05-01T14:35:41.001Z</time></trkpt><trkpt lat="44.59679734746564" lon="7.361339809954415"><ele>1037.3333333333335</ele><time>2026-05-01T14:35:42.001Z</time></trkpt><trkpt lat="44.596850218384155" lon="7.361254637727124"><ele>1039.0</ele><time>2026-05-01T14:35:43.001Z</time></trkpt><trkpt lat="44.59688912443435" lon="7.361174119817273"><ele>1040.6666666666667</ele><time>2026-05-01T14:35:44.001Z</time></trkpt><trkpt lat="44.596930903374265" lon="7.3610823445549105"><ele>1042.3333333333333</ele><time>2026-05-01T14:35:45.001Z</time></trkpt><trkpt lat="44.59697605383145" lon="7.361000880477042"><ele>1044.0</ele><time>2026-05-01T14:35:46.001Z</time></trkpt><trkpt lat="44.597099509157275" lon="7.360859376384959"><ele>1044.0</ele><time>2026-05-01T14:35:48.001Z</time></trkpt><trkpt lat="44.597188942252" lon="7.360754607422765"><ele>1044.0</ele><time>2026-05-01T14:35:49.001Z</time></trkpt><trkpt lat="44.59728736069825" lon="7.360668272195054"><ele>1044.0</ele><time>2026-05-01T14:35:50.001Z</time></trkpt><trkpt lat="44.59735779454928" lon="7.360611249404325"><ele>1044.0</ele><time>2026-05-01T14:35:51.001Z</time></trkpt><trkpt lat="44.5974280258917" lon="7.360583289518065"><ele>1044.0</ele><time>2026-05-01T14:35:52.001Z</time></trkpt><trkpt lat="44.59751186687757" lon="7.36057666971392"><ele>1044.0</ele><time>2026-05-01T14:35:54.001Z</time></trkpt><trkpt lat="44.59764596528688" lon="7.360605803806172"><ele>1044.0</ele><time>2026-05-01T14:35:56.001Z</time></trkpt><trkpt lat="44.59776995130964" lon="7.3607137507326295"><ele>1044.0</ele><time>2026-05-01T14:35:58.001Z</time></trkpt><trkpt lat="44.5978312634494" lon="7.360759332742815"><ele>1044.0</ele><time>2026-05-01T14:35:59.001Z</time></trkpt><trkpt lat="44.59789778137094" lon="7.360759545460666"><ele>1044.0</ele><time>2026-05-01T14:36:00.001Z</time></trkpt><trkpt lat="44.59797746155703" lon="7.36073661789896"><ele>1044.8333333333333</ele><time>2026-05-01T14:36:01.001Z</time></trkpt><trkpt lat="44.59805267320102" lon="7.360711999444002"><ele>1045.6666666666667</ele><time>2026-05-01T14:36:02.001Z</time></trkpt><trkpt lat="44.59814637855796" lon="7.3606990404303"><ele>1046.5</ele><time>2026-05-01T14:36:04.002Z</time></trkpt><trkpt lat="44.59825010386858" lon="7.360791149952746"><ele>1047.3333333333335</ele><time>2026-05-01T14:36:06.002Z</time></trkpt><trkpt lat="44.598287572176545" lon="7.360881277845739"><ele>1048.1666666666667</ele><time>2026-05-01T14:36:07.002Z</time></trkpt><trkpt lat="44.598353894987014" lon="7.360922179553698"><ele>1049.0</ele><time>2026-05-01T14:36:08.002Z</time></trkpt><trkpt lat="44.59844485418652" lon="7.360981485857652"><ele>1049.0</ele><time>2026-05-01T14:36:09.002Z</time></trkpt><trkpt lat="44.598550343831235" lon="7.361081365928226"><ele>1049.0</ele><time>2026-05-01T14:36:10.002Z</time></trkpt><trkpt lat="44.598626719947866" lon="7.361114337204742"><ele>1049.0</ele><time>2026-05-01T14:36:11.002Z</time></trkpt><trkpt lat="44.59870865768194" lon="7.361127895120837"><ele>1049.0</ele><time>2026-05-01T14:36:12.002Z</time></trkpt><trkpt lat="44.5988356647853" lon="7.361130699874485"><ele>1049.0</ele><time>2026-05-01T14:36:13.002Z</time></trkpt><trkpt lat="44.59892584310466" lon="7.361133518361278"><ele>1046.6000000000001</ele><time>2026-05-01T14:36:14.002Z</time></trkpt><trkpt lat="44.599013956713705" lon="7.361128440747109"><ele>1044.2</ele><time>2026-05-01T14:36:15.002Z</time></trkpt><trkpt lat="44.59910578506284" lon="7.3611807189379554"><ele>1041.8000000000002</ele><time>2026-05-01T14:36:16.002Z</time></trkpt><trkpt lat="44.59917820515454" lon="7.361288440167352"><ele>1039.4</ele><time>2026-05-01T14:36:17.002Z</time></trkpt><trkpt lat="44.59925173405551" lon="7.3614381839894865"><ele>1037.0</ele><time>2026-05-01T14:36:18.002Z</time></trkpt><trkpt lat="44.59935014094008" lon="7.361572392646604"><ele>1037.0</ele><time>2026-05-01T14:36:19.002Z</time></trkpt><trkpt lat="44.59944428285843" lon="7.361703033929554"><ele>1037.0</ele><time>2026-05-01T14:36:20.002Z</time></trkpt><trkpt lat="44.599550191065255" lon="7.361808751426239"><ele>1037.0</ele><time>2026-05-01T14:36:21.002Z</time></trkpt><trkpt lat="44.59964495155166" lon="7.361930100192806"><ele>1037.0</ele><time>2026-05-01T14:36:22.002Z</time></trkpt><trkpt lat="44.59974309156135" lon="7.36204126794581"><ele>1037.0</ele><time>2026-05-01T14:36:23.002Z</time></trkpt><trkpt lat="44.59982998034134" lon="7.362110871487292"><ele>1037.0</ele><time>2026-05-01T14:36:24.002Z</time></trkpt><trkpt lat="44.59991856069727" lon="7.362178596978623"><ele>1037.0</ele><time>2026-05-01T14:36:25.002Z</time></trkpt><trkpt lat="44.59997765104868" lon="7.3622545341381525"><ele>1037.0</ele><time>2026-05-01T14:36:26.002Z</time></trkpt><trkpt lat="44.600068233778636" lon="7.362219560068742"><ele>1037.0</ele><time>2026-05-01T14:36:28.002Z</time></trkpt><trkpt lat="44.60015545839754" lon="7.362238877668731"><ele>1037.0</ele><time>2026-05-01T14:36:29.002Z</time></trkpt><trkpt lat="44.60022523524499" lon="7.362273981366491"><ele>1037.0</ele><time>2026-05-01T14:36:30.002Z</time></trkpt><trkpt lat="44.60028209164312" lon="7.362376691906981"><ele>1037.0</ele><time>2026-05-01T14:36:31.002Z</time></trkpt><trkpt lat="44.600362455813254" lon="7.362451441483919"><ele>1037.0</ele><time>2026-05-01T14:36:32.002Z</time></trkpt><trkpt lat="44.600426381661016" lon="7.3624765378259545"><ele>1037.0</ele><time>2026-05-01T14:36:33.002Z</time></trkpt><trkpt lat="44.60049885347206" lon="7.362497533523952"><ele>1037.0</ele><time>2026-05-01T14:36:34.002Z</time></trkpt><trkpt lat="44.60056534267996" lon="7.362497934580404"><ele>1037.6666666666667</ele><time>2026-05-01T14:36:35.002Z</time></trkpt><trkpt lat="44.600612206305904" lon="7.362563888173396"><ele>1038.3333333333335</ele><time>2026-05-01T14:36:36.003Z</time></trkpt><trkpt lat="44.60062675779842" lon="7.362668255174911"><ele>1039.0</ele><time>2026-05-01T14:36:38.003Z</time></trkpt><trkpt lat="44.600674131106665" lon="7.362592849327765"><ele>1039.6666666666667</ele><time>2026-05-01T14:36:40.003Z</time></trkpt><trkpt lat="44.60072024299267" lon="7.362485652795368"><ele>1040.3333333333333</ele><time>2026-05-01T14:36:41.003Z</time></trkpt><trkpt lat="44.60079460020585" lon="7.362332981320556"><ele>1041.0</ele><time>2026-05-01T14:36:42.003Z</time></trkpt><trkpt lat="44.60085538161311" lon="7.36224717009217"><ele>1043.2</ele><time>2026-05-01T14:36:43.003Z</time></trkpt><trkpt lat="44.600925277578696" lon="7.362186526287815"><ele>1045.3999999999999</ele><time>2026-05-01T14:36:44.003Z</time></trkpt><trkpt lat="44.601040368150066" lon="7.362098038568642"><ele>1047.6</ele><time>2026-05-01T14:36:46.003Z</time></trkpt><trkpt lat="44.60109170089194" lon="7.362045756583048"><ele>1049.8</ele><time>2026-05-01T14:36:47.003Z</time></trkpt><trkpt lat="44.60116912625514" lon="7.361935283069814"><ele>1052.0</ele><time>2026-05-01T14:36:49.003Z</time></trkpt><trkpt lat="44.60121380597088" lon="7.361846535737654"><ele>1044.6</ele><time>2026-05-01T14:36:51.003Z</time></trkpt><trkpt lat="44.601270735213234" lon="7.361789869011269"><ele>1037.2</ele><time>2026-05-01T14:36:52.003Z</time></trkpt><trkpt lat="44.60132881990186" lon="7.361666467524832"><ele>1029.8</ele><time>2026-05-01T14:36:54.003Z</time></trkpt><trkpt lat="44.60138413540336" lon="7.36155050673627"><ele>1022.4</ele><time>2026-05-01T14:36:56.003Z</time></trkpt><trkpt lat="44.60144616657954" lon="7.361428998466655"><ele>1015.0</ele><time>2026-05-01T14:36:58.003Z</time></trkpt><trkpt lat="44.60148241038818" lon="7.361290185179197"><ele>1014.4</ele><time>2026-05-01T14:37:00.003Z</time></trkpt><trkpt lat="44.60150402410021" lon="7.3611402950904825"><ele>1013.8</ele><time>2026-05-01T14:37:02.003Z</time></trkpt><trkpt lat="44.60155939926664" lon="7.360998294147136"><ele>1013.2</ele><time>2026-05-01T14:37:04.003Z</time></trkpt><trkpt lat="44.6016101786562" lon="7.3608712647449135"><ele>1012.6</ele><time>2026-05-01T14:37:06Z</time></trkpt><trkpt lat="44.601634362098345" lon="7.360770852221374"><ele>1012.0</ele><time>2026-05-01T14:37:08Z</time></trkpt><trkpt lat="44.60169709926588" lon="7.360668507932499"><ele>1011.9999999999999</ele><time>2026-05-01T14:37:10Z</time></trkpt><trkpt lat="44.60172466547085" lon="7.360523497521228"><ele>1012.0</ele><time>2026-05-01T14:37:12Z</time></trkpt><trkpt lat="44.60172623812731" lon="7.360423964064116"><ele>1012.0</ele><time>2026-05-01T14:37:13Z</time></trkpt><trkpt lat="44.60171859321512" lon="7.360317727742614"><ele>1012.0</ele><time>2026-05-01T14:37:14Z</time></trkpt><trkpt lat="44.60172388845979" lon="7.360220174217914"><ele>1011.9999999999999</ele><time>2026-05-01T14:37:15Z</time></trkpt><trkpt lat="44.60173222061041" lon="7.360076636419625"><ele>1012.0</ele><time>2026-05-01T14:37:17Z</time></trkpt><trkpt lat="44.60175674909615" lon="7.359943591531572"><ele>1011.9999999999999</ele><time>2026-05-01T14:37:19Z</time></trkpt><trkpt lat="44.60179323976103" lon="7.359809153617167"><ele>1012.0</ele><time>2026-05-01T14:37:21Z</time></trkpt><trkpt lat="44.60179817584863" lon="7.359668685582433"><ele>1012.0</ele><time>2026-05-01T14:37:23Z</time></trkpt><trkpt lat="44.60176341019893" lon="7.359554180453562"><ele>1012.0</ele><time>2026-05-01T14:37:25Z</time></trkpt><trkpt lat="44.601775199679935" lon="7.359433381877378"><ele>1011.9999999999999</ele><time>2026-05-01T14:37:28Z</time></trkpt><trkpt lat="44.60181228791024" lon="7.3593526269102645"><ele>1012.0</ele><time>2026-05-01T14:38:47.003Z</time></trkpt><trkpt lat="44.60189749610834" lon="7.3593565415996975"><ele>1010.6</ele><time>2026-05-01T14:38:50.003Z</time></trkpt><trkpt lat="44.60196694491812" lon="7.359370940922116"><ele>1009.2</ele><time>2026-05-01T14:38:52.003Z</time></trkpt><trkpt lat="44.60204987409007" lon="7.359332813371399"><ele>1007.8</ele><time>2026-05-01T14:38:55.003Z</time></trkpt><trkpt lat="44.60215236822206" lon="7.35931331792731"><ele>1006.4</ele><time>2026-05-01T14:38:58.003Z</time></trkpt><trkpt lat="44.602249036087805" lon="7.359306074185929"><ele>1005.0</ele><time>2026-05-01T14:39:02.003Z</time></trkpt><trkpt lat="44.60233187163161" lon="7.359369168844371"><ele>999.5</ele><time>2026-05-01T14:39:05.003Z</time></trkpt><trkpt lat="44.60238949877455" lon="7.359408890362202"><ele>994.0</ele><time>2026-05-01T14:39:07.003Z</time></trkpt><trkpt lat="44.602454042640716" lon="7.3594495924960395"><ele>988.5</ele><time>2026-05-01T14:39:09.003Z</time></trkpt><trkpt lat="44.6025506038863" lon="7.359540074902552"><ele>983.0</ele><time>2026-05-01T14:39:11.003Z</time></trkpt><trkpt lat="44.60261737434992" lon="7.359532847187009"><ele>977.5</ele><time>2026-05-01T14:39:12Z</time></trkpt><trkpt lat="44.60268588787588" lon="7.359568005538958"><ele>972.0</ele><time>2026-05-01T14:39:14Z</time></trkpt><trkpt lat="44.60277091764586" lon="7.359653381653999"><ele>973.5</ele><time>2026-05-01T14:39:17Z</time></trkpt><trkpt lat="44.60283649764643" lon="7.359736551874357"><ele>975.0</ele><time>2026-05-01T14:39:20Z</time></trkpt><trkpt lat="44.60290407796934" lon="7.359785417851665"><ele>976.5</ele><time>2026-05-01T14:39:22Z</time></trkpt><trkpt lat="44.602967376054174" lon="7.359818101509797"><ele>978.0</ele><time>2026-05-01T14:39:23Z</time></trkpt><trkpt lat="44.603056791587136" lon="7.359867689803619"><ele>979.5</ele><time>2026-05-01T14:39:25Z</time></trkpt><trkpt lat="44.60313864139119" lon="7.359869732766238"><ele>981.0</ele><time>2026-05-01T14:39:27Z</time></trkpt><trkpt lat="44.60321935202389" lon="7.359895667873618"><ele>981.0</ele><time>2026-05-01T14:39:31Z</time></trkpt><trkpt lat="44.60329647801322" lon="7.359872326168713"><ele>981.0</ele><time>2026-05-01T14:39:35Z</time></trkpt><trkpt lat="44.60335807732936" lon="7.359892098050103"><ele>981.0</ele><time>2026-05-01T14:39:37Z</time></trkpt><trkpt lat="44.60342868916241" lon="7.359890126829086"><ele>981.0</ele><time>2026-05-01T14:39:39Z</time></trkpt><trkpt lat="44.60350482927139" lon="7.359871283175169"><ele>981.0</ele><time>2026-05-01T14:39:41Z</time></trkpt><trkpt lat="44.60357681979834" lon="7.3598790023570855"><ele>981.0</ele><time>2026-05-01T14:39:44.001Z</time></trkpt><trkpt lat="44.6036256401334" lon="7.3599579347058235"><ele>981.0</ele><time>2026-05-01T14:39:47.001Z</time></trkpt><trkpt lat="44.60370894583823" lon="7.359938664776964"><ele>976.0</ele><time>2026-05-01T14:39:49.001Z</time></trkpt><trkpt lat="44.60380371134619" lon="7.3599770161312215"><ele>970.9999999999999</ele><time>2026-05-01T14:39:51.001Z</time></trkpt><trkpt lat="44.603910944100726" lon="7.359992095925722"><ele>965.9999999999999</ele><time>2026-05-01T14:39:53.001Z</time></trkpt><trkpt lat="44.603978266445345" lon="7.3598832008003825"><ele>961.0</ele><time>2026-05-01T14:39:55.001Z</time></trkpt><trkpt lat="44.60404737511999" lon="7.3598726701372605"><ele>956.0</ele><time>2026-05-01T14:39:57.001Z</time></trkpt><trkpt lat="44.604119931226435" lon="7.35994339146592"><ele>956.0000000000001</ele><time>2026-05-01T14:39:59.001Z</time></trkpt><trkpt lat="44.60418336737014" lon="7.359979534782581"><ele>956.0</ele><time>2026-05-01T14:40:01.001Z</time></trkpt><trkpt lat="44.60424178168396" lon="7.360014310345072"><ele>956.0</ele><time>2026-05-01T14:40:03.001Z</time></trkpt><trkpt lat="44.60432785244123" lon="7.360000806052267"><ele>956.0</ele><time>2026-05-01T14:40:07.001Z</time></trkpt><trkpt lat="44.604398669592904" lon="7.360013812453552"><ele>956.0000000000001</ele><time>2026-05-01T14:40:10.001Z</time></trkpt><trkpt lat="44.604494481013425" lon="7.36001597832043"><ele>956.0</ele><time>2026-05-01T14:40:12.001Z</time></trkpt><trkpt lat="44.604560211268705" lon="7.360021185946044"><ele>952.1999999999999</ele><time>2026-05-01T14:40:13.001Z</time></trkpt><trkpt lat="44.60468002113529" lon="7.3599834586602"><ele>948.3999999999999</ele><time>2026-05-01T14:40:15.001Z</time></trkpt><trkpt lat="44.604759356168614" lon="7.359983281080423"><ele>944.6</ele><time>2026-05-01T14:40:17.001Z</time></trkpt><trkpt lat="44.60485630354508" lon="7.35999386376837"><ele>940.8</ele><time>2026-05-01T14:40:19.001Z</time></trkpt><trkpt lat="44.60496180859451" lon="7.360012275790273"><ele>937.0</ele><time>2026-05-01T14:40:21.002Z</time></trkpt><trkpt lat="44.605031188615904" lon="7.360034013410816"><ele>937.0</ele><time>2026-05-01T14:40:22.002Z</time></trkpt><trkpt lat="44.60513270214763" lon="7.3600384219589685"><ele>937.0</ele><time>2026-05-01T14:40:24.002Z</time></trkpt><trkpt lat="44.60523266294902" lon="7.360078946514049"><ele>937.0</ele><time>2026-05-01T14:40:26.002Z</time></trkpt><trkpt lat="44.60531558930437" lon="7.3600959383546085"><ele>937.0</ele><time>2026-05-01T14:40:28.002Z</time></trkpt><trkpt lat="44.60540262753626" lon="7.360116266874283"><ele>937.0</ele><time>2026-05-01T14:40:31.002Z</time></trkpt><trkpt lat="44.60547517737233" lon="7.36002597982823"><ele>936.9999999999999</ele><time>2026-05-01T14:40:41.002Z</time></trkpt><trkpt lat="44.60542026118041" lon="7.35997805898531"><ele>937.0</ele><time>2026-05-01T14:40:44.002Z</time></trkpt><trkpt lat="44.60528823420335" lon="7.359911095901764"><ele>937.0</ele><time>2026-05-01T14:40:46.002Z</time></trkpt><trkpt lat="44.605209603381574" lon="7.359894865219716"><ele>937.0</ele><time>2026-05-01T14:40:47.002Z</time></trkpt><trkpt lat="44.60514367561765" lon="7.359878236428644"><ele>936.9999999999999</ele><time>2026-05-01T14:40:48.002Z</time></trkpt><trkpt lat="44.60504984039958" lon="7.359858673567818"><ele>937.0</ele><time>2026-05-01T14:40:50.002Z</time></trkpt><trkpt lat="44.60496721877492" lon="7.359842696012085"><ele>937.0</ele><time>2026-05-01T14:40:52.002Z</time></trkpt><trkpt lat="44.6048793981117" lon="7.359821382649406"><ele>937.0</ele><time>2026-05-01T14:40:54.002Z</time></trkpt><trkpt lat="44.6047926426148" lon="7.359787567414674"><ele>937.0</ele><time>2026-05-01T14:40:57.003Z</time></trkpt><trkpt lat="44.60467006712957" lon="7.359786316574425"><ele>937.0</ele><time>2026-05-01T14:40:59.003Z</time></trkpt><trkpt lat="44.60459665208535" lon="7.359791166078677"><ele>937.0</ele><time>2026-05-01T14:41:00.003Z</time></trkpt><trkpt lat="44.60451640334233" lon="7.359796205087803"><ele>940.1666666666666</ele><time>2026-05-01T14:41:01.003Z</time></trkpt><trkpt lat="44.604430817075354" lon="7.359766124269423"><ele>943.3333333333333</ele><time>2026-05-01T14:41:02.003Z</time></trkpt><trkpt lat="44.604347115275516" lon="7.359739098993996"><ele>946.5</ele><time>2026-05-01T14:41:04.003Z</time></trkpt><trkpt lat="44.604320526401864" lon="7.359653781757412"><ele>949.6666666666667</ele><time>2026-05-01T14:41:05.003Z</time></trkpt><trkpt lat="44.60426934786159" lon="7.359590532431386"><ele>952.8333333333334</ele><time>2026-05-01T14:41:06.003Z</time></trkpt><trkpt lat="44.60418504069883" lon="7.359518381715249"><ele>956.0</ele><time>2026-05-01T14:41:08.003Z</time></trkpt><trkpt lat="44.604093301234236" lon="7.359456787103307"><ele>949.5000000000001</ele><time>2026-05-01T14:41:10.003Z</time></trkpt><trkpt lat="44.60401582089912" lon="7.359408342694561"><ele>943.0</ele><time>2026-05-01T14:41:12.003Z</time></trkpt><trkpt lat="44.603947208209036" lon="7.359280410621407"><ele>936.5</ele><time>2026-05-01T14:41:14.003Z</time></trkpt><trkpt lat="44.60390124484311" lon="7.359211831584272"><ele>930.0</ele><time>2026-05-01T14:41:15.003Z</time></trkpt><trkpt lat="44.60384707176804" lon="7.359143927801417"><ele>923.5000000000001</ele><time>2026-05-01T14:41:16.003Z</time></trkpt><trkpt lat="44.60376099383076" lon="7.359070080768082"><ele>917.0</ele><time>2026-05-01T14:41:18Z</time></trkpt><trkpt lat="44.60369321990517" lon="7.359035068665672"><ele>921.8</ele><time>2026-05-01T14:41:20Z</time></trkpt><trkpt lat="44.603622266259904" lon="7.359028691604374"><ele>926.6</ele><time>2026-05-01T14:41:22Z</time></trkpt><trkpt lat="44.60354779652714" lon="7.359035265327905"><ele>931.3999999999999</ele><time>2026-05-01T14:41:24Z</time></trkpt><trkpt lat="44.60343898728186" lon="7.359018122899294"><ele>936.1999999999999</ele><time>2026-05-01T14:41:26Z</time></trkpt><trkpt lat="44.60334670391694" lon="7.359023914659609"><ele>941.0</ele><time>2026-05-01T14:41:28Z</time></trkpt><trkpt lat="44.60324827710505" lon="7.358951989617105"><ele>941.0</ele><time>2026-05-01T14:41:30Z</time></trkpt><trkpt lat="44.60319019245528" lon="7.358877584179879"><ele>940.9999999999999</ele><time>2026-05-01T14:41:32Z</time></trkpt><trkpt lat="44.60311524891871" lon="7.358759227248745"><ele>940.9999999999999</ele><time>2026-05-01T14:41:34Z</time></trkpt><trkpt lat="44.6031040523847" lon="7.358615323280471"><ele>941.0</ele><time>2026-05-01T14:41:36Z</time></trkpt><trkpt lat="44.603005094412666" lon="7.358558896784115"><ele>941.0</ele><time>2026-05-01T14:41:39Z</time></trkpt><trkpt lat="44.60292787456976" lon="7.358535683706067"><ele>940.8</ele><time>2026-05-01T14:41:41Z</time></trkpt><trkpt lat="44.60286149293229" lon="7.3584758370252406"><ele>940.5999999999999</ele><time>2026-05-01T14:41:43Z</time></trkpt><trkpt lat="44.602782426097086" lon="7.358380154478121"><ele>940.4</ele><time>2026-05-01T14:41:45Z</time></trkpt><trkpt lat="44.60268488612023" lon="7.358245010323353"><ele>940.2</ele><time>2026-05-01T14:41:47Z</time></trkpt><trkpt lat="44.60257623359387" lon="7.3581630441176165"><ele>940.0</ele><time>2026-05-01T14:41:49Z</time></trkpt><trkpt lat="44.602497449596854" lon="7.3581508508819615"><ele>939.9999999999999</ele><time>2026-05-01T14:41:51Z</time></trkpt><trkpt lat="44.602437526195395" lon="7.358111607364891"><ele>940.0</ele><time>2026-05-01T14:41:54.001Z</time></trkpt><trkpt lat="44.60244952047283" lon="7.357986243252419"><ele>940.0</ele><time>2026-05-01T14:41:57.001Z</time></trkpt><trkpt lat="44.6025037167003" lon="7.357870905758299"><ele>940.0</ele><time>2026-05-01T14:41:59.001Z</time></trkpt><trkpt lat="44.602580807861536" lon="7.357838660119227"><ele>939.9999999999999</ele><time>2026-05-01T14:42:01.001Z</time></trkpt><trkpt lat="44.60261820126515" lon="7.357764778288478"><ele>940.0</ele><time>2026-05-01T14:42:03.001Z</time></trkpt><trkpt lat="44.60265268107676" lon="7.35766796207051"><ele>935.4999999999999</ele><time>2026-05-01T14:42:05.001Z</time></trkpt><trkpt lat="44.602619165207976" lon="7.3575778063451365"><ele>931.0</ele><time>2026-05-01T14:42:08.001Z</time></trkpt><trkpt lat="44.60256380592544" lon="7.357508444104877"><ele>926.5</ele><time>2026-05-01T14:42:10.001Z</time></trkpt><trkpt lat="44.60252026849342" lon="7.357441178498453"><ele>922.0</ele><time>2026-05-01T14:42:12.001Z</time></trkpt><trkpt lat="44.60252510527842" lon="7.357313115209768"><ele>917.4999999999999</ele><time>2026-05-01T14:42:14.001Z</time></trkpt><trkpt lat="44.60251831473464" lon="7.357203072603439"><ele>913.0</ele><time>2026-05-01T14:42:16.001Z</time></trkpt><trkpt lat="44.60249520962249" lon="7.357065448902854"><ele>911.4285714285713</ele><time>2026-05-01T14:42:19.001Z</time></trkpt><trkpt lat="44.60248813753921" lon="7.356976808468916"><ele>909.8571428571429</ele><time>2026-05-01T14:42:21.001Z</time></trkpt><trkpt lat="44.602448204142306" lon="7.356890257026148"><ele>908.2857142857142</ele><time>2026-05-01T14:42:25.001Z</time></trkpt><trkpt lat="44.60240483120048" lon="7.356811692613722"><ele>906.7142857142857</ele><time>2026-05-01T14:42:28.002Z</time></trkpt><trkpt lat="44.60235223126435" lon="7.356718913525556"><ele>905.1428571428571</ele><time>2026-05-01T14:42:30.002Z</time></trkpt><trkpt lat="44.6022811607173" lon="7.3566617096949996"><ele>903.5714285714286</ele><time>2026-05-01T14:42:32.002Z</time></trkpt><trkpt lat="44.602352435505814" lon="7.356659124110521"><ele>902.0</ele><time>2026-05-01T14:42:40.002Z</time></trkpt><trkpt lat="44.60241038028926" lon="7.356700491336682"><ele>902.0000000000001</ele><time>2026-05-01T14:42:43.002Z</time></trkpt><trkpt lat="44.6024732131925" lon="7.356694191661908"><ele>902.0</ele><time>2026-05-01T14:42:46.002Z</time></trkpt><trkpt lat="44.60256470748862" lon="7.356706333546139"><ele>902.0</ele><time>2026-05-01T14:42:50.002Z</time></trkpt><trkpt lat="44.602623636328055" lon="7.3567378277614255"><ele>902.0</ele><time>2026-05-01T14:42:55.002Z</time></trkpt><trkpt lat="44.6026726907488" lon="7.356805887127793"><ele>902.0000000000001</ele><time>2026-05-01T14:42:57.002Z</time></trkpt><trkpt lat="44.6027631218439" lon="7.3567839671668525"><ele>902.0</ele><time>2026-05-01T14:43:00.002Z</time></trkpt><trkpt lat="44.60284817983738" lon="7.3568392187476315"><ele>899.5714285714286</ele><time>2026-05-01T14:43:04.003Z</time></trkpt><trkpt lat="44.60291361112175" lon="7.356853781065814"><ele>897.1428571428572</ele><time>2026-05-01T14:43:05.003Z</time></trkpt><trkpt lat="44.602980164506626" lon="7.3568248408005745"><ele>894.7142857142858</ele><time>2026-05-01T14:43:08.003Z</time></trkpt><trkpt lat="44.6030654648298" lon="7.356847206721297"><ele>892.2857142857142</ele><time>2026-05-01T14:43:11.003Z</time></trkpt><trkpt lat="44.603136072342444" lon="7.356838346707841"><ele>889.8571428571429</ele><time>2026-05-01T14:43:13.003Z</time></trkpt><trkpt lat="44.6032125756515" lon="7.35681017095195"><ele>887.4285714285714</ele><time>2026-05-01T14:43:15.003Z</time></trkpt><trkpt lat="44.603264943039306" lon="7.356758701641777"><ele>885.0</ele><time>2026-05-01T14:43:16.003Z</time></trkpt><trkpt lat="44.60333471641474" lon="7.356754940320038"><ele>885.0</ele><time>2026-05-01T14:43:17.003Z</time></trkpt><trkpt lat="44.60339898295255" lon="7.356730841010468"><ele>885.0</ele><time>2026-05-01T14:43:18.003Z</time></trkpt><trkpt lat="44.60348482290359" lon="7.356711883624851"><ele>885.0</ele><time>2026-05-01T14:43:20.003Z</time></trkpt><trkpt lat="44.603590757352244" lon="7.356695020641572"><ele>885.0</ele><time>2026-05-01T14:43:22.003Z</time></trkpt><trkpt lat="44.603669651414684" lon="7.356658795802581"><ele>885.0</ele><time>2026-05-01T14:43:23.003Z</time></trkpt><trkpt lat="44.60379079051583" lon="7.356675542766027"><ele>883.4</ele><time>2026-05-01T14:43:24.999Z</time></trkpt><trkpt lat="44.60389283554042" lon="7.3566601535958185"><ele>881.8</ele><time>2026-05-01T14:43:26.999Z</time></trkpt><trkpt lat="44.60397397345972" lon="7.356557917942594"><ele>880.2</ele><time>2026-05-01T14:43:28.999Z</time></trkpt><trkpt lat="44.60403570322688" lon="7.35648046561198"><ele>878.6</ele><time>2026-05-01T14:43:30.999Z</time></trkpt><trkpt lat="44.60415467168952" lon="7.356492291257072"><ele>877.0</ele><time>2026-05-01T14:43:32.999Z</time></trkpt><trkpt lat="44.60422596549885" lon="7.356530290514807"><ele>877.0</ele><time>2026-05-01T14:43:33.999Z</time></trkpt><trkpt lat="44.6044086519407" lon="7.356534516040982"><ele>877.0</ele><time>2026-05-01T14:43:35.999Z</time></trkpt><trkpt lat="44.60446947217742" lon="7.356567614759218"><ele>877.0</ele><time>2026-05-01T14:43:36.999Z</time></trkpt><trkpt lat="44.60454784514709" lon="7.35657560515842"><ele>877.0</ele><time>2026-05-01T14:43:37.999Z</time></trkpt><trkpt lat="44.60461477848611" lon="7.356574408407985"><ele>877.0</ele><time>2026-05-01T14:43:38.999Z</time></trkpt><trkpt lat="44.60468560881234" lon="7.356573938813465"><ele>873.4999999999999</ele><time>2026-05-01T14:43:39.999Z</time></trkpt><trkpt lat="44.604746616291" lon="7.356528614540094"><ele>870.0</ele><time>2026-05-01T14:43:45Z</time></trkpt><trkpt lat="44.60478967592402" lon="7.356448427023152"><ele>866.5</ele><time>2026-05-01T14:43:47Z</time></trkpt><trkpt lat="44.60486050765597" lon="7.356404836479266"><ele>863.0</ele><time>2026-05-01T14:43:50Z</time></trkpt><trkpt lat="44.60493416954917" lon="7.35642322920818"><ele>859.4999999999999</ele><time>2026-05-01T14:43:52Z</time></trkpt><trkpt lat="44.605002573509935" lon="7.356468414018136"><ele>856.0</ele><time>2026-05-01T14:43:55Z</time></trkpt><trkpt lat="44.60517213491377" lon="7.356477099710442"><ele>856.0</ele><time>2026-05-01T14:43:57Z</time></trkpt><trkpt lat="44.6053092792153" lon="7.356444480616244"><ele>856.0</ele><time>2026-05-01T14:43:58Z</time></trkpt><trkpt lat="44.60541218072947" lon="7.356396813100083"><ele>856.0</ele><time>2026-05-01T14:43:59Z</time></trkpt><trkpt lat="44.605507310221896" lon="7.35632305744479"><ele>856.0</ele><time>2026-05-01T14:44:00Z</time></trkpt><trkpt lat="44.605534289240495" lon="7.356184277764803"><ele>855.0</ele><time>2026-05-01T14:44:02Z</time></trkpt><trkpt lat="44.60545554312964" lon="7.356053364352965"><ele>853.9999999999999</ele><time>2026-05-01T14:44:04Z</time></trkpt><trkpt lat="44.60542196518639" lon="7.355966133710005"><ele>853.0</ele><time>2026-05-01T14:44:05.001Z</time></trkpt><trkpt lat="44.605397006953375" lon="7.3557780219835704"><ele>852.0</ele><time>2026-05-01T14:44:07.001Z</time></trkpt><trkpt lat="44.60537906269968" lon="7.355613171738503"><ele>851.0</ele><time>2026-05-01T14:44:09.001Z</time></trkpt><trkpt lat="44.60537977726489" lon="7.3555106776208685"><ele>856.6666666666667</ele><time>2026-05-01T14:44:10.001Z</time></trkpt><trkpt lat="44.605353543990205" lon="7.355416262415012"><ele>862.3333333333334</ele><time>2026-05-01T14:44:11.001Z</time></trkpt><trkpt lat="44.605393192697896" lon="7.355258693660592"><ele>868.0</ele><time>2026-05-01T14:44:13.001Z</time></trkpt><trkpt lat="44.60536721379925" lon="7.355126998934804"><ele>873.6666666666667</ele><time>2026-05-01T14:44:15.001Z</time></trkpt><trkpt lat="44.60539637951074" lon="7.355041618699011"><ele>879.3333333333334</ele><time>2026-05-01T14:44:17.001Z</time></trkpt><trkpt lat="44.60545773908976" lon="7.355074029749626"><ele>885.0</ele><time>2026-05-01T14:44:18.001Z</time></trkpt><trkpt lat="44.6055710187392" lon="7.35503835933247"><ele>885.0</ele><time>2026-05-01T14:44:20.001Z</time></trkpt><trkpt lat="44.605687395398604" lon="7.35513058152194"><ele>885.0</ele><time>2026-05-01T14:44:21.001Z</time></trkpt><trkpt lat="44.60576792801664" lon="7.355162552600141"><ele>885.0</ele><time>2026-05-01T14:44:22.001Z</time></trkpt><trkpt lat="44.60586869511491" lon="7.355158583818648"><ele>885.0</ele><time>2026-05-01T14:44:23.001Z</time></trkpt><trkpt lat="44.6059376537864" lon="7.355134745558131"><ele>885.0</ele><time>2026-05-01T14:44:24.001Z</time></trkpt><trkpt lat="44.60601286501001" lon="7.355199389022207"><ele>885.0</ele><time>2026-05-01T14:44:26.001Z</time></trkpt><trkpt lat="44.60611909722892" lon="7.355229186630417"><ele>885.0</ele><time>2026-05-01T14:44:28.001Z</time></trkpt><trkpt lat="44.60619205342637" lon="7.355331882983325"><ele>885.0</ele><time>2026-05-01T14:44:30.001Z</time></trkpt><trkpt lat="44.60627243069623" lon="7.355326544651559"><ele>885.0</ele><time>2026-05-01T14:44:31.001Z</time></trkpt><trkpt lat="44.606353714388995" lon="7.355333718438533"><ele>885.0</ele><time>2026-05-01T14:44:32.001Z</time></trkpt><trkpt lat="44.60642605454086" lon="7.35532234354161"><ele>885.0</ele><time>2026-05-01T14:44:33.001Z</time></trkpt><trkpt lat="44.60649719984552" lon="7.3553471589088675"><ele>884.8333333333334</ele><time>2026-05-01T14:44:34.001Z</time></trkpt><trkpt lat="44.6065616452231" lon="7.355356729098602"><ele>884.6666666666667</ele><time>2026-05-01T14:44:35.001Z</time></trkpt><trkpt lat="44.60667241338353" lon="7.355400055450941"><ele>884.5</ele><time>2026-05-01T14:44:37.002Z</time></trkpt><trkpt lat="44.60675033059134" lon="7.3554813171783335"><ele>884.3333333333334</ele><time>2026-05-01T14:44:39.002Z</time></trkpt><trkpt lat="44.60681883700937" lon="7.355524950173568"><ele>884.1666666666667</ele><time>2026-05-01T14:44:41.002Z</time></trkpt><trkpt lat="44.60682799185343" lon="7.355400774926946"><ele>884.0</ele><time>2026-05-01T14:44:45.002Z</time></trkpt><trkpt lat="44.606917282930226" lon="7.355348333433238"><ele>876.0</ele><time>2026-05-01T14:44:48.002Z</time></trkpt><trkpt lat="44.60708411912027" lon="7.355277678354062"><ele>868.0</ele><time>2026-05-01T14:44:50.002Z</time></trkpt><trkpt lat="44.60717983878837" lon="7.355189683494137"><ele>860.0</ele><time>2026-05-01T14:44:52.002Z</time></trkpt><trkpt lat="44.60727324170911" lon="7.3551900021033605"><ele>852.0</ele><time>2026-05-01T14:44:55.002Z</time></trkpt><trkpt lat="44.60733882241075" lon="7.355145206878441"><ele>852.0</ele><time>2026-05-01T14:44:56.002Z</time></trkpt><trkpt lat="44.60743639620319" lon="7.355154075052174"><ele>852.0</ele><time>2026-05-01T14:44:58.002Z</time></trkpt><trkpt lat="44.60755668260913" lon="7.355100613144386"><ele>852.0</ele><time>2026-05-01T14:45:00.002Z</time></trkpt><trkpt lat="44.60761523013751" lon="7.35506273286495"><ele>852.0</ele><time>2026-05-01T14:45:01.002Z</time></trkpt><trkpt lat="44.60771705337861" lon="7.355059422707247"><ele>852.0</ele><time>2026-05-01T14:45:03.002Z</time></trkpt><trkpt lat="44.60782992946324" lon="7.354987330280841"><ele>846.8</ele><time>2026-05-01T14:45:05.002Z</time></trkpt><trkpt lat="44.60790563222148" lon="7.354942175685444"><ele>841.6</ele><time>2026-05-01T14:45:06.002Z</time></trkpt><trkpt lat="44.60802468916345" lon="7.3549532236256985"><ele>836.4</ele><time>2026-05-01T14:45:07.002Z</time></trkpt><trkpt lat="44.608140067001756" lon="7.354889966071364"><ele>831.1999999999999</ele><time>2026-05-01T14:45:09.003Z</time></trkpt><trkpt lat="44.60821825711374" lon="7.3549044709761935"><ele>826.0</ele><time>2026-05-01T14:45:11.003Z</time></trkpt><trkpt lat="44.608300521303654" lon="7.354960555980817"><ele>825.9999999999999</ele><time>2026-05-01T14:45:57Z</time></trkpt><trkpt lat="44.60838128717281" lon="7.355014667684462"><ele>826.0</ele><time>2026-05-01T14:45:59Z</time></trkpt><trkpt lat="44.608438904870724" lon="7.354942128600118"><ele>826.0</ele><time>2026-05-01T14:46:01Z</time></trkpt><trkpt lat="44.6084713625267" lon="7.354851179402879"><ele>826.0</ele><time>2026-05-01T14:46:02.001Z</time></trkpt><trkpt lat="44.60851924887519" lon="7.3547310284663405"><ele>825.9999999999999</ele><time>2026-05-01T14:46:03.001Z</time></trkpt><trkpt lat="44.60857923618401" lon="7.3546263421463705"><ele>826.0</ele><time>2026-05-01T14:46:04.001Z</time></trkpt><trkpt lat="44.60862863107174" lon="7.354524861984844"><ele>825.5999999999999</ele><time>2026-05-01T14:46:05.001Z</time></trkpt><trkpt lat="44.6086630659668" lon="7.3544341990073905"><ele>825.2</ele><time>2026-05-01T14:46:06.001Z</time></trkpt><trkpt lat="44.60869825990239" lon="7.354324002460253"><ele>824.8</ele><time>2026-05-01T14:46:07.001Z</time></trkpt><trkpt lat="44.60874712862622" lon="7.354223253590746"><ele>824.4000000000001</ele><time>2026-05-01T14:46:08.001Z</time></trkpt><trkpt lat="44.60882153648637" lon="7.3541607697779945"><ele>824.0</ele><time>2026-05-01T14:46:09.001Z</time></trkpt><trkpt lat="44.60895333869075" lon="7.354071977437851"><ele>824.0000000000001</ele><time>2026-05-01T14:46:11.001Z</time></trkpt><trkpt lat="44.609024895247096" lon="7.354037095165532"><ele>824.0</ele><time>2026-05-01T14:46:12.001Z</time></trkpt><trkpt lat="44.609091362787815" lon="7.354057558518586"><ele>824.0</ele><time>2026-05-01T14:46:13.001Z</time></trkpt><trkpt lat="44.60917134091007" lon="7.354067433068663"><ele>824.0</ele><time>2026-05-01T14:46:14.001Z</time></trkpt><trkpt lat="44.60927847386253" lon="7.3540576084521545"><ele>824.0000000000001</ele><time>2026-05-01T14:46:16.001Z</time></trkpt><trkpt lat="44.60935213596293" lon="7.353974137227276"><ele>824.0</ele><time>2026-05-01T14:46:18.001Z</time></trkpt><trkpt lat="44.60937226577539" lon="7.353859512943204"><ele>827.5000000000001</ele><time>2026-05-01T14:46:20.001Z</time></trkpt><trkpt lat="44.609343197168684" lon="7.353727770274764"><ele>831.0</ele><time>2026-05-01T14:46:22.001Z</time></trkpt><trkpt lat="44.60935328163436" lon="7.353624832915321"><ele>834.5</ele><time>2026-05-01T14:46:23.001Z</time></trkpt><trkpt lat="44.609346351141255" lon="7.353536419352101"><ele>838.0</ele><time>2026-05-01T14:46:24.001Z</time></trkpt><trkpt lat="44.609324776146664" lon="7.353410201216225"><ele>841.5000000000001</ele><time>2026-05-01T14:46:25.001Z</time></trkpt><trkpt lat="44.609316454504054" lon="7.353306117072841"><ele>845.0</ele><time>2026-05-01T14:46:26.001Z</time></trkpt><trkpt lat="44.6092888652962" lon="7.353190498698967"><ele>845.0</ele><time>2026-05-01T14:46:28.001Z</time></trkpt><trkpt lat="44.609306743231485" lon="7.353045836035269"><ele>845.0</ele><time>2026-05-01T14:46:31.001Z</time></trkpt><trkpt lat="44.60937607997044" lon="7.352955323007556"><ele>845.0</ele><time>2026-05-01T14:46:33.002Z</time></trkpt><trkpt lat="44.60947606991145" lon="7.3528866873677075"><ele>845.0</ele><time>2026-05-01T14:46:35.002Z</time></trkpt><trkpt lat="44.60954578019516" lon="7.352862456939281"><ele>845.0</ele><time>2026-05-01T14:46:36.002Z</time></trkpt><trkpt lat="44.60963132721845" lon="7.35287728531101"><ele>840.4</ele><time>2026-05-01T14:46:38.002Z</time></trkpt><trkpt lat="44.60971294188985" lon="7.352839807169134"><ele>835.8</ele><time>2026-05-01T14:46:39.002Z</time></trkpt><trkpt lat="44.60976510810158" lon="7.35273170604193"><ele>831.2</ele><time>2026-05-01T14:46:41.002Z</time></trkpt><trkpt lat="44.60981099755082" lon="7.352597854345083"><ele>826.6</ele><time>2026-05-01T14:46:43.002Z</time></trkpt><trkpt lat="44.60990949710249" lon="7.35248350833337"><ele>822.0</ele><time>2026-05-01T14:46:45.002Z</time></trkpt><trkpt lat="44.6100025670593" lon="7.352383571930165"><ele>822.0</ele><time>2026-05-01T14:46:47.002Z</time></trkpt><trkpt lat="44.610028107812916" lon="7.352290129203708"><ele>822.0</ele><time>2026-05-01T14:46:49.002Z</time></trkpt><trkpt lat="44.610085064802014" lon="7.352234884938241"><ele>822.0</ele><time>2026-05-01T14:46:50.002Z</time></trkpt><trkpt lat="44.61019380667125" lon="7.352215057550646"><ele>822.0</ele><time>2026-05-01T14:46:53.002Z</time></trkpt><trkpt lat="44.61026618601665" lon="7.352180729339415"><ele>822.0</ele><time>2026-05-01T14:46:54.002Z</time></trkpt><trkpt lat="44.61038336651849" lon="7.352162600772877"><ele>822.0</ele><time>2026-05-01T14:46:56.002Z</time></trkpt><trkpt lat="44.610441167912576" lon="7.352117908858357"><ele>821.4000000000001</ele><time>2026-05-01T14:46:57.002Z</time></trkpt><trkpt lat="44.61051830878308" lon="7.352101709523807"><ele>820.8000000000001</ele><time>2026-05-01T14:46:59.002Z</time></trkpt><trkpt lat="44.610567337876894" lon="7.351993859595505"><ele>820.2</ele><time>2026-05-01T14:47:01.002Z</time></trkpt><trkpt lat="44.61062619139428" lon="7.351939711766155"><ele>819.6</ele><time>2026-05-01T14:47:02.002Z</time></trkpt><trkpt lat="44.61072969199615" lon="7.351878618873958"><ele>819.0</ele><time>2026-05-01T14:47:04.002Z</time></trkpt><trkpt lat="44.61085456790497" lon="7.351867062867772"><ele>819.0</ele><time>2026-05-01T14:47:06.002Z</time></trkpt><trkpt lat="44.61094571822098" lon="7.351868099202129"><ele>819.0</ele><time>2026-05-01T14:47:08.003Z</time></trkpt><trkpt lat="44.611032004191" lon="7.351808683648629"><ele>819.0</ele><time>2026-05-01T14:47:10.003Z</time></trkpt><trkpt lat="44.61116528266741" lon="7.351818834209311"><ele>819.0</ele><time>2026-05-01T14:47:12.003Z</time></trkpt><trkpt lat="44.61127807328352" lon="7.351832871664739"><ele>819.0</ele><time>2026-05-01T14:47:14.003Z</time></trkpt><trkpt lat="44.61135822421941" lon="7.351799556231564"><ele>814.8333333333334</ele><time>2026-05-01T14:47:16.003Z</time></trkpt><trkpt lat="44.61140312018572" lon="7.3517345531853024"><ele>810.6666666666667</ele><time>2026-05-01T14:47:18.003Z</time></trkpt><trkpt lat="44.61142586242572" lon="7.351600254212537"><ele>806.5</ele><time>2026-05-01T14:47:20.003Z</time></trkpt><trkpt lat="44.61139017574764" lon="7.351478092676151"><ele>802.3333333333334</ele><time>2026-05-01T14:47:22.003Z</time></trkpt><trkpt lat="44.61135573176992" lon="7.35138444485733"><ele>798.1666666666667</ele><time>2026-05-01T14:47:23.003Z</time></trkpt><trkpt lat="44.611346531026854" lon="7.351282451379761"><ele>794.0</ele><time>2026-05-01T14:47:24.003Z</time></trkpt><trkpt lat="44.611302981852496" lon="7.351141386186592"><ele>792.4000000000001</ele><time>2026-05-01T14:47:26.003Z</time></trkpt><trkpt lat="44.61126770917801" lon="7.351006209125382"><ele>790.8</ele><time>2026-05-01T14:47:28.003Z</time></trkpt><trkpt lat="44.61130968695799" lon="7.350890463610214"><ele>789.2</ele><time>2026-05-01T14:47:30.003Z</time></trkpt><trkpt lat="44.611338591642586" lon="7.350794109306569"><ele>787.5999999999999</ele><time>2026-05-01T14:47:31.003Z</time></trkpt><trkpt lat="44.61138549755638" lon="7.35064172363706"><ele>786.0</ele><time>2026-05-01T14:47:33.003Z</time></trkpt><trkpt lat="44.61144349423661" lon="7.350518128559576"><ele>784.5999999999999</ele><time>2026-05-01T14:47:35.003Z</time></trkpt><trkpt lat="44.611510929657484" lon="7.350352271932493"><ele>783.2</ele><time>2026-05-01T14:47:37Z</time></trkpt><trkpt lat="44.611517252846625" lon="7.350261009418684"><ele>781.8</ele><time>2026-05-01T14:47:38Z</time></trkpt><trkpt lat="44.611527942437235" lon="7.350135678958316"><ele>780.4000000000001</ele><time>2026-05-01T14:47:39Z</time></trkpt><trkpt lat="44.61154901530633" lon="7.350026088748824"><ele>779.0</ele><time>2026-05-01T14:47:40Z</time></trkpt><trkpt lat="44.61158811568239" lon="7.349920272489182"><ele>779.0</ele><time>2026-05-01T14:47:41Z</time></trkpt><trkpt lat="44.61154783404283" lon="7.349791497482548"><ele>779.0</ele><time>2026-05-01T14:47:43Z</time></trkpt><trkpt lat="44.611495966948915" lon="7.349719217745078"><ele>779.0</ele><time>2026-05-01T14:47:44Z</time></trkpt><trkpt lat="44.611424600789555" lon="7.349654901551961"><ele>779.0</ele><time>2026-05-01T14:47:45Z</time></trkpt><trkpt lat="44.611358272812865" lon="7.349587408784951"><ele>779.0</ele><time>2026-05-01T14:47:46Z</time></trkpt><trkpt lat="44.6112593802842" lon="7.349511990275397"><ele>778.6</ele><time>2026-05-01T14:47:48Z</time></trkpt><trkpt lat="44.611174721301204" lon="7.349401660166405"><ele>778.2</ele><time>2026-05-01T14:47:50Z</time></trkpt><trkpt lat="44.61110656382568" lon="7.349271689761302"><ele>777.8000000000001</ele><time>2026-05-01T14:47:52Z</time></trkpt><trkpt lat="44.611035143465806" lon="7.349164672025427"><ele>777.4000000000001</ele><time>2026-05-01T14:47:54Z</time></trkpt><trkpt lat="44.61097617967534" lon="7.349121113449717"><ele>777.0</ele><time>2026-05-01T14:47:55Z</time></trkpt><trkpt lat="44.61091771881412" lon="7.349048729458267"><ele>777.0</ele><time>2026-05-01T14:47:56Z</time></trkpt><trkpt lat="44.61085637141265" lon="7.349002475256207"><ele>777.0</ele><time>2026-05-01T14:47:57Z</time></trkpt><trkpt lat="44.61074983520792" lon="7.349018047188901"><ele>777.0</ele><time>2026-05-01T14:47:59Z</time></trkpt><trkpt lat="44.61064747077774" lon="7.348992892115647"><ele>777.0</ele><time>2026-05-01T14:48:01Z</time></trkpt><trkpt lat="44.61055830794253" lon="7.348876268588234"><ele>777.0</ele><time>2026-05-01T14:48:03Z</time></trkpt><trkpt lat="44.61049064840529" lon="7.3488608187541065"><ele>773.4000000000001</ele><time>2026-05-01T14:48:06Z</time></trkpt><trkpt lat="44.61038401654272" lon="7.34883966127051"><ele>769.8000000000001</ele><time>2026-05-01T14:48:08.001Z</time></trkpt><trkpt lat="44.610277415536004" lon="7.34879760072535"><ele>766.2</ele><time>2026-05-01T14:48:11.001Z</time></trkpt><trkpt lat="44.61018818026707" lon="7.34882387995144"><ele>762.6</ele><time>2026-05-01T14:48:12.001Z</time></trkpt><trkpt lat="44.610092442542566" lon="7.348803380915348"><ele>759.0</ele><time>2026-05-01T14:48:13.001Z</time></trkpt><trkpt lat="44.610021239833806" lon="7.348750881947616"><ele>759.0</ele><time>2026-05-01T14:48:14.001Z</time></trkpt><trkpt lat="44.6099587396154" lon="7.348602563337381"><ele>759.0</ele><time>2026-05-01T14:48:18.001Z</time></trkpt><trkpt lat="44.610018975763296" lon="7.348570277861824"><ele>759.0</ele><time>2026-05-01T14:48:19.001Z</time></trkpt><trkpt lat="44.609955864344386" lon="7.348516213323603"><ele>759.0</ele><time>2026-05-01T14:48:21.001Z</time></trkpt><trkpt lat="44.6098293342541" lon="7.348427882642185"><ele>759.0</ele><time>2026-05-01T14:48:23.001Z</time></trkpt><trkpt lat="44.60973835596687" lon="7.348312155693736"><ele>759.0</ele><time>2026-05-01T14:48:24.001Z</time></trkpt><trkpt lat="44.60965064178617" lon="7.348184549509512"><ele>759.0</ele><time>2026-05-01T14:48:25.001Z</time></trkpt><trkpt lat="44.609611885913274" lon="7.348088888205423"><ele>759.0</ele><time>2026-05-01T14:48:26.001Z</time></trkpt><trkpt lat="44.60960488777996" lon="7.3479096187799495"><ele>759.0</ele><time>2026-05-01T14:48:28.001Z</time></trkpt><trkpt lat="44.60956122035268" lon="7.347816486074185"><ele>759.0</ele><time>2026-05-01T14:48:30.001Z</time></trkpt><trkpt lat="44.609507282644685" lon="7.347666330662906"><ele>758.4000000000001</ele><time>2026-05-01T14:48:32.001Z</time></trkpt><trkpt lat="44.60950931897476" lon="7.347468023508948"><ele>757.8</ele><time>2026-05-01T14:48:34.001Z</time></trkpt><trkpt lat="44.609540747598395" lon="7.347350282474148"><ele>757.2</ele><time>2026-05-01T14:48:36.001Z</time></trkpt><trkpt lat="44.60963507461222" lon="7.34726576059386"><ele>756.5999999999999</ele><time>2026-05-01T14:48:38.001Z</time></trkpt><trkpt lat="44.609709607338104" lon="7.347202490490036"><ele>756.0</ele><time>2026-05-01T14:48:40.001Z</time></trkpt><trkpt lat="44.60977748188914" lon="7.347151876205715"><ele>756.0</ele><time>2026-05-01T14:48:42.002Z</time></trkpt><trkpt lat="44.609864221190726" lon="7.347193851774687"><ele>756.0</ele><time>2026-05-01T14:48:44.002Z</time></trkpt><trkpt lat="44.60994749526348" lon="7.347179996311178"><ele>756.0</ele><time>2026-05-01T14:48:45.002Z</time></trkpt><trkpt lat="44.61008048875847" lon="7.347192786149214"><ele>756.0</ele><time>2026-05-01T14:48:47.002Z</time></trkpt><trkpt lat="44.61014657541686" lon="7.347201897684242"><ele>756.0</ele><time>2026-05-01T14:48:48.002Z</time></trkpt><trkpt lat="44.61021235157528" lon="7.347233968874405"><ele>756.0</ele><time>2026-05-01T14:48:49.002Z</time></trkpt><trkpt lat="44.61026115463918" lon="7.347302117904794"><ele>753.0</ele><time>2026-05-01T14:48:50.002Z</time></trkpt><trkpt lat="44.61034638505753" lon="7.347355954627084"><ele>750.0</ele><time>2026-05-01T14:48:52.002Z</time></trkpt><trkpt lat="44.61041249969416" lon="7.34740490667138"><ele>747.0</ele><time>2026-05-01T14:48:53.002Z</time></trkpt><trkpt lat="44.6104881593971" lon="7.347431334888666"><ele>744.0</ele><time>2026-05-01T14:48:54.002Z</time></trkpt><trkpt lat="44.610552295827574" lon="7.347447534945249"><ele>741.0</ele><time>2026-05-01T14:48:55.002Z</time></trkpt><trkpt lat="44.61067498654133" lon="7.347471267991908"><ele>738.0</ele><time>2026-05-01T14:48:57.002Z</time></trkpt><trkpt lat="44.610738450118696" lon="7.347493908655302"><ele>738.0</ele><time>2026-05-01T14:48:58.002Z</time></trkpt><trkpt lat="44.610849034804076" lon="7.347581906548565"><ele>738.0</ele><time>2026-05-01T14:49:00.002Z</time></trkpt><trkpt lat="44.61090154943005" lon="7.3476440009059045"><ele>738.0</ele><time>2026-05-01T14:49:01.002Z</time></trkpt><trkpt lat="44.61095607542397" lon="7.347714404064212"><ele>738.0</ele><time>2026-05-01T14:49:02.002Z</time></trkpt><trkpt lat="44.611013895825096" lon="7.347771919841252"><ele>738.0</ele><time>2026-05-01T14:49:03.002Z</time></trkpt><trkpt lat="44.611123026169736" lon="7.34782297614613"><ele>736.4</ele><time>2026-05-01T14:49:05.002Z</time></trkpt><trkpt lat="44.61124812007503" lon="7.347827543240958"><ele>734.8</ele><time>2026-05-01T14:49:07.002Z</time></trkpt><trkpt lat="44.611309085138295" lon="7.347867175644633"><ele>733.2</ele><time>2026-05-01T14:49:08.002Z</time></trkpt><trkpt lat="44.61140731404188" lon="7.347940449684676"><ele>731.6</ele><time>2026-05-01T14:49:10.002Z</time></trkpt><trkpt lat="44.61149552621497" lon="7.347987378847238"><ele>730.0</ele><time>2026-05-01T14:49:12.002Z</time></trkpt><trkpt lat="44.61157582964987" lon="7.348081488912714"><ele>730.0</ele><time>2026-05-01T14:49:14.003Z</time></trkpt><trkpt lat="44.61167444589071" lon="7.348151387048471"><ele>730.0</ele><time>2026-05-01T14:49:16.003Z</time></trkpt><trkpt lat="44.61171775540632" lon="7.348222181055148"><ele>730.0</ele><time>2026-05-01T14:49:17.003Z</time></trkpt><trkpt lat="44.611771847095774" lon="7.348314225050028"><ele>730.0</ele><time>2026-05-01T14:49:18.003Z</time></trkpt><trkpt lat="44.61183117502842" lon="7.348401340147981"><ele>730.0</ele><time>2026-05-01T14:49:19.003Z</time></trkpt><trkpt lat="44.61187781289969" lon="7.348477573913543"><ele>730.0</ele><time>2026-05-01T14:49:20.003Z</time></trkpt><trkpt lat="44.611949489629275" lon="7.3485254503612065"><ele>725.8333333333334</ele><time>2026-05-01T14:49:21.003Z</time></trkpt><trkpt lat="44.61201886618646" lon="7.348563758319384"><ele>721.6666666666667</ele><time>2026-05-01T14:49:22.003Z</time></trkpt><trkpt lat="44.612098869195364" lon="7.348570920970621"><ele>717.5</ele><time>2026-05-01T14:49:23.003Z</time></trkpt><trkpt lat="44.61218534064998" lon="7.3486006007530795"><ele>713.3333333333334</ele><time>2026-05-01T14:49:24.003Z</time></trkpt><trkpt lat="44.612285858427484" lon="7.348610041248689"><ele>709.1666666666666</ele><time>2026-05-01T14:49:25.003Z</time></trkpt><trkpt lat="44.61238106597636" lon="7.348645992978392"><ele>705.0</ele><time>2026-05-01T14:49:26.003Z</time></trkpt><trkpt lat="44.612468355621004" lon="7.34866134550895"><ele>705.0</ele><time>2026-05-01T14:49:27.003Z</time></trkpt><trkpt lat="44.61256375508735" lon="7.348664673110901"><ele>705.0</ele><time>2026-05-01T14:49:28.003Z</time></trkpt><trkpt lat="44.612663533939035" lon="7.3487017373480406"><ele>705.0</ele><time>2026-05-01T14:49:29.003Z</time></trkpt><trkpt lat="44.61274379830178" lon="7.348757897292794"><ele>705.0</ele><time>2026-05-01T14:49:30.003Z</time></trkpt><trkpt lat="44.61282881080232" lon="7.348776262135665"><ele>705.0</ele><time>2026-05-01T14:49:31.003Z</time></trkpt><trkpt lat="44.61289053455666" lon="7.348812250134155"><ele>705.0</ele><time>2026-05-01T14:49:32.003Z</time></trkpt><trkpt lat="44.61296349703381" lon="7.348839550024106"><ele>701.8333333333334</ele><time>2026-05-01T14:49:33.003Z</time></trkpt><trkpt lat="44.613031624079305" lon="7.348878368042892"><ele>698.6666666666666</ele><time>2026-05-01T14:49:34.003Z</time></trkpt><trkpt lat="44.61309150235392" lon="7.3489223566398065"><ele>695.5</ele><time>2026-05-01T14:49:35.003Z</time></trkpt><trkpt lat="44.61314703724105" lon="7.348969591272931"><ele>692.3333333333333</ele><time>2026-05-01T14:49:36.003Z</time></trkpt><trkpt lat="44.61324292791433" lon="7.349043412553251"><ele>689.1666666666666</ele><time>2026-05-01T14:49:38.003Z</time></trkpt><trkpt lat="44.61331858372317" lon="7.34913169289083"><ele>686.0</ele><time>2026-05-01T14:49:40.003Z</time></trkpt><trkpt lat="44.61340551695877" lon="7.349210188991905"><ele>686.0</ele><time>2026-05-01T14:49:42Z</time></trkpt><trkpt lat="44.61347070744694" lon="7.349284100831623"><ele>686.0</ele><time>2026-05-01T14:49:43Z</time></trkpt><trkpt lat="44.61353860887202" lon="7.349365725616507"><ele>686.0</ele><time>2026-05-01T14:49:44Z</time></trkpt><trkpt lat="44.613609082044334" lon="7.349453567632758"><ele>686.0</ele><time>2026-05-01T14:49:45Z</time></trkpt><trkpt lat="44.6136690656363" lon="7.349530623330465"><ele>686.0</ele><time>2026-05-01T14:49:46Z</time></trkpt><trkpt lat="44.613722438175515" lon="7.349600188054292"><ele>686.0</ele><time>2026-05-01T14:49:47Z</time></trkpt><trkpt lat="44.61380683195958" lon="7.349684785244603"><ele>682.8</ele><time>2026-05-01T14:49:49Z</time></trkpt><trkpt lat="44.61385530492894" lon="7.349796549688459"><ele>679.5999999999999</ele><time>2026-05-01T14:49:50Z</time></trkpt><trkpt lat="44.61391907477287" lon="7.349918174716195"><ele>676.4</ele><time>2026-05-01T14:49:51Z</time></trkpt><trkpt lat="44.61395859397259" lon="7.350000182278028"><ele>673.2</ele><time>2026-05-01T14:49:52Z</time></trkpt><trkpt lat="44.61401735943713" lon="7.350122073298319"><ele>670.0</ele><time>2026-05-01T14:49:54Z</time></trkpt><trkpt lat="44.614093302401244" lon="7.3502490122520685"><ele>670.0</ele><time>2026-05-01T14:49:56Z</time></trkpt><trkpt lat="44.61418965525019" lon="7.350368348906767"><ele>670.0</ele><time>2026-05-01T14:49:58Z</time></trkpt><trkpt lat="44.614240484473605" lon="7.350435871214318"><ele>670.0</ele><time>2026-05-01T14:49:59Z</time></trkpt><trkpt lat="44.61429862612866" lon="7.350505168727212"><ele>670.0</ele><time>2026-05-01T14:50:00Z</time></trkpt><trkpt lat="44.61435761322124" lon="7.350559994957597"><ele>670.0</ele><time>2026-05-01T14:50:01Z</time></trkpt><trkpt lat="44.61446683438061" lon="7.350613369045557"><ele>667.5</ele><time>2026-05-01T14:50:03Z</time></trkpt><trkpt lat="44.614537521116226" lon="7.3505912106332705"><ele>665.0</ele><time>2026-05-01T14:50:04Z</time></trkpt><trkpt lat="44.61465168328411" lon="7.350589405363782"><ele>662.5</ele><time>2026-05-01T14:50:06Z</time></trkpt><trkpt lat="44.614730295558616" lon="7.350578887060396"><ele>660.0</ele><time>2026-05-01T14:50:08Z</time></trkpt><trkpt lat="44.61479315808044" lon="7.350569177439359"><ele>657.5</ele><time>2026-05-01T14:50:09Z</time></trkpt><trkpt lat="44.61490606020541" lon="7.350565271473949"><ele>655.0</ele><time>2026-05-01T14:50:11Z</time></trkpt><trkpt lat="44.61499705537529" lon="7.350530633554076"><ele>655.0</ele><time>2026-05-01T14:50:13Z</time></trkpt><trkpt lat="44.61508228792441" lon="7.350502920480149"><ele>655.0</ele><time>2026-05-01T14:50:15.001Z</time></trkpt><trkpt lat="44.615185087760075" lon="7.350507036417645"><ele>655.0</ele><time>2026-05-01T14:50:17.001Z</time></trkpt><trkpt lat="44.615288895755825" lon="7.350544710444688"><ele>655.0</ele><time>2026-05-01T14:50:19.001Z</time></trkpt><trkpt lat="44.61538325450213" lon="7.350600840600659"><ele>655.0</ele><time>2026-05-01T14:50:21.001Z</time></trkpt><trkpt lat="44.61546420542554" lon="7.350690215696542"><ele>653.0</ele><time>2026-05-01T14:50:23.001Z</time></trkpt><trkpt lat="44.615502345879335" lon="7.350821179441222"><ele>651.0</ele><time>2026-05-01T14:50:25.001Z</time></trkpt><trkpt lat="44.61554659085872" lon="7.350885607329197"><ele>649.0</ele><time>2026-05-01T14:50:26.001Z</time></trkpt><trkpt lat="44.61559885115437" lon="7.351039273817278"><ele>647.0</ele><time>2026-05-01T14:50:28.001Z</time></trkpt><trkpt lat="44.6156898843515" lon="7.351114783626997"><ele>645.0</ele><time>2026-05-01T14:50:30.001Z</time></trkpt><trkpt lat="44.61576541890698" lon="7.35116798015761"><ele>645.0</ele><time>2026-05-01T14:50:32.001Z</time></trkpt><trkpt lat="44.61583260646513" lon="7.3511261130398875"><ele>645.0</ele><time>2026-05-01T14:50:33.001Z</time></trkpt><trkpt lat="44.615923372635656" lon="7.351158254792104"><ele>645.0</ele><time>2026-05-01T14:50:35.001Z</time></trkpt><trkpt lat="44.61601009661862" lon="7.351192430770168"><ele>645.0</ele><time>2026-05-01T14:50:37.001Z</time></trkpt><trkpt lat="44.61609619407192" lon="7.351236613234392"><ele>645.0</ele><time>2026-05-01T14:50:39.001Z</time></trkpt><trkpt lat="44.61616721305057" lon="7.351340320786313"><ele>642.0</ele><time>2026-05-01T14:50:41.001Z</time></trkpt><trkpt lat="44.61623697325057" lon="7.351435427483672"><ele>639.0</ele><time>2026-05-01T14:50:43.001Z</time></trkpt><trkpt lat="44.61630611629483" lon="7.351525542153873"><ele>636.0</ele><time>2026-05-01T14:50:45.001Z</time></trkpt><trkpt lat="44.61638052865952" lon="7.351599097407336"><ele>633.0</ele><time>2026-05-01T14:50:47.002Z</time></trkpt><trkpt lat="44.616448058115004" lon="7.351656291142623"><ele>630.0</ele><time>2026-05-01T14:50:49.002Z</time></trkpt><trkpt lat="44.61654032255984" lon="7.351704084982439"><ele>630.0</ele><time>2026-05-01T14:50:51.002Z</time></trkpt><trkpt lat="44.61663586037316" lon="7.351779945167738"><ele>630.0</ele><time>2026-05-01T14:50:53.002Z</time></trkpt><trkpt lat="44.61673322279283" lon="7.351852342036786"><ele>630.0</ele><time>2026-05-01T14:50:55.002Z</time></trkpt><trkpt lat="44.61683595768099" lon="7.351888968980449"><ele>630.0</ele><time>2026-05-01T14:50:57.002Z</time></trkpt><trkpt lat="44.6169287334862" lon="7.351946735638091"><ele>630.0</ele><time>2026-05-01T14:50:59.002Z</time></trkpt><trkpt lat="44.617008427124276" lon="7.352076341984053"><ele>627.3333333333334</ele><time>2026-05-01T14:51:01.002Z</time></trkpt><trkpt lat="44.61705410782407" lon="7.352138632294978"><ele>624.6666666666666</ele><time>2026-05-01T14:51:02.002Z</time></trkpt><trkpt lat="44.61709995134452" lon="7.352201144567154"><ele>622.0</ele><time>2026-05-01T14:51:03.002Z</time></trkpt><trkpt lat="44.61714887887773" lon="7.352267862189721"><ele>619.3333333333333</ele><time>2026-05-01T14:51:04.002Z</time></trkpt><trkpt lat="44.617209213006596" lon="7.352350984055313"><ele>616.6666666666666</ele><time>2026-05-01T14:51:05.002Z</time></trkpt><trkpt lat="44.61727910621752" lon="7.352437376693392"><ele>614.0</ele><time>2026-05-01T14:51:06.002Z</time></trkpt><trkpt lat="44.61735410952165" lon="7.352513895634404"><ele>613.8333333333333</ele><time>2026-05-01T14:51:07.002Z</time></trkpt><trkpt lat="44.61743069551732" lon="7.352581665459312"><ele>613.6666666666666</ele><time>2026-05-01T14:51:08.002Z</time></trkpt><trkpt lat="44.61750761787127" lon="7.352633183595198"><ele>613.5</ele><time>2026-05-01T14:51:09.002Z</time></trkpt><trkpt lat="44.61758127819686" lon="7.35270098132367"><ele>613.3333333333334</ele><time>2026-05-01T14:51:10.002Z</time></trkpt><trkpt lat="44.61764643437973" lon="7.352768403892265"><ele>613.1666666666667</ele><time>2026-05-01T14:51:11.002Z</time></trkpt><trkpt lat="44.617699786746805" lon="7.352832300138618"><ele>613.0</ele><time>2026-05-01T14:51:12.002Z</time></trkpt><trkpt lat="44.617754886059515" lon="7.35291242442997"><ele>610.5</ele><time>2026-05-01T14:51:13.002Z</time></trkpt><trkpt lat="44.61783276300981" lon="7.352974732389564"><ele>608.0</ele><time>2026-05-01T14:51:14.002Z</time></trkpt><trkpt lat="44.61788286953366" lon="7.35304702052057"><ele>605.5</ele><time>2026-05-01T14:51:15.002Z</time></trkpt><trkpt lat="44.61793002886243" lon="7.353133646044498"><ele>603.0</ele><time>2026-05-01T14:51:16.002Z</time></trkpt><trkpt lat="44.61798790537659" lon="7.353232829419026"><ele>600.5</ele><time>2026-05-01T14:51:17.002Z</time></trkpt><trkpt lat="44.61806075182434" lon="7.3532980285949465"><ele>598.0</ele><time>2026-05-01T14:51:18.002Z</time></trkpt><trkpt lat="44.61812036725797" lon="7.35337776079544"><ele>597.8333333333334</ele><time>2026-05-01T14:51:19.002Z</time></trkpt><trkpt lat="44.61816869374619" lon="7.353446686809348"><ele>597.6666666666667</ele><time>2026-05-01T14:51:20.003Z</time></trkpt><trkpt lat="44.61821778114235" lon="7.353523163471123"><ele>597.5</ele><time>2026-05-01T14:51:21.003Z</time></trkpt><trkpt lat="44.61827871726689" lon="7.353578727958113"><ele>597.3333333333334</ele><time>2026-05-01T14:51:22.003Z</time></trkpt><trkpt lat="44.618314086948935" lon="7.35368422982494"><ele>597.1666666666666</ele><time>2026-05-01T14:51:23.003Z</time></trkpt><trkpt lat="44.618364771553445" lon="7.353775092444752"><ele>597.0</ele><time>2026-05-01T14:51:24.003Z</time></trkpt><trkpt lat="44.61841158585614" lon="7.353850456357579"><ele>597.3333333333334</ele><time>2026-05-01T14:51:25.003Z</time></trkpt><trkpt lat="44.61846258154513" lon="7.353923511337174"><ele>597.6666666666666</ele><time>2026-05-01T14:51:26.003Z</time></trkpt><trkpt lat="44.61852085380312" lon="7.35399882780925"><ele>598.0</ele><time>2026-05-01T14:51:27.003Z</time></trkpt><trkpt lat="44.61858274418335" lon="7.354078301929703"><ele>598.3333333333333</ele><time>2026-05-01T14:51:28.003Z</time></trkpt><trkpt lat="44.61864964180167" lon="7.354157283698476"><ele>598.6666666666666</ele><time>2026-05-01T14:51:29.003Z</time></trkpt><trkpt lat="44.61871806782042" lon="7.354236673204996"><ele>599.0</ele><time>2026-05-01T14:51:30.003Z</time></trkpt><trkpt lat="44.6187859238395" lon="7.354317688552996"><ele>596.3333333333333</ele><time>2026-05-01T14:51:31.003Z</time></trkpt><trkpt lat="44.61883889092764" lon="7.354387483316608"><ele>593.6666666666666</ele><time>2026-05-01T14:51:32.003Z</time></trkpt><trkpt lat="44.61889873882135" lon="7.354455298444459"><ele>591.0</ele><time>2026-05-01T14:51:33.003Z</time></trkpt><trkpt lat="44.618960237237744" lon="7.354522582738771"><ele>588.3333333333334</ele><time>2026-05-01T14:51:34.003Z</time></trkpt><trkpt lat="44.619027449853824" lon="7.354591561750672"><ele>585.6666666666667</ele><time>2026-05-01T14:51:35.003Z</time></trkpt><trkpt lat="44.61909320688978" lon="7.354658935109093"><ele>583.0</ele><time>2026-05-01T14:51:36.003Z</time></trkpt><trkpt lat="44.6191506527181" lon="7.3547314684997716"><ele>582.1666666666667</ele><time>2026-05-01T14:51:37.003Z</time></trkpt><trkpt lat="44.619207335599064" lon="7.354801859460687"><ele>581.3333333333334</ele><time>2026-05-01T14:51:38.003Z</time></trkpt><trkpt lat="44.61926122344305" lon="7.354869414055476"><ele>580.5</ele><time>2026-05-01T14:51:39.003Z</time></trkpt><trkpt lat="44.619315623657805" lon="7.35494401718847"><ele>579.6666666666666</ele><time>2026-05-01T14:51:40.003Z</time></trkpt><trkpt lat="44.619368716574876" lon="7.355022148267288"><ele>578.8333333333333</ele><time>2026-05-01T14:51:41.003Z</time></trkpt><trkpt lat="44.619421501936095" lon="7.355103735527912"><ele>578.0</ele><time>2026-05-01T14:51:42.003Z</time></trkpt><trkpt lat="44.61947093615878" lon="7.355187046653577"><ele>576.1666666666666</ele><time>2026-05-01T14:51:43.003Z</time></trkpt><trkpt lat="44.619524571458655" lon="7.355274837551137"><ele>574.3333333333333</ele><time>2026-05-01T14:51:44.003Z</time></trkpt><trkpt lat="44.619576785951594" lon="7.3553544007625336"><ele>572.5</ele><time>2026-05-01T14:51:45.003Z</time></trkpt><trkpt lat="44.619627816785396" lon="7.355421687185382"><ele>570.6666666666666</ele><time>2026-05-01T14:51:46.003Z</time></trkpt><trkpt lat="44.619677569866454" lon="7.355481038098748"><ele>568.8333333333334</ele><time>2026-05-01T14:51:47.003Z</time></trkpt><trkpt lat="44.6197599661367" lon="7.35560786375432"><ele>567.0</ele><time>2026-05-01T14:51:49Z</time></trkpt><trkpt lat="44.61985393129944" lon="7.35571326299958"><ele>566.4</ele><time>2026-05-01T14:51:51Z</time></trkpt><trkpt lat="44.61997495574666" lon="7.355766928524582"><ele>565.8000000000001</ele><time>2026-05-01T14:51:53Z</time></trkpt><trkpt lat="44.62004110153789" lon="7.355809251904414"><ele>565.2</ele><time>2026-05-01T14:51:54Z</time></trkpt><trkpt lat="44.620116544115554" lon="7.355838038416761"><ele>564.6</ele><time>2026-05-01T14:51:55Z</time></trkpt><trkpt lat="44.62020113573717" lon="7.3558699831032195"><ele>564.0</ele><time>2026-05-01T14:51:56Z</time></trkpt><trkpt lat="44.62029046404413" lon="7.3559037165091725"><ele>562.0</ele><time>2026-05-01T14:51:57Z</time></trkpt><trkpt lat="44.62038113955347" lon="7.35593795865187"><ele>560.0</ele><time>2026-05-01T14:51:58Z</time></trkpt><trkpt lat="44.62048152552132" lon="7.3559536715529354"><ele>558.0</ele><time>2026-05-01T14:51:59Z</time></trkpt><trkpt lat="44.62057337152254" lon="7.356010426057151"><ele>556.0</ele><time>2026-05-01T14:52:00Z</time></trkpt><trkpt lat="44.62066289069215" lon="7.356047809042536"><ele>554.0</ele><time>2026-05-01T14:52:01Z</time></trkpt><trkpt lat="44.620754779319924" lon="7.356086646818683"><ele>554.0</ele><time>2026-05-01T14:52:02Z</time></trkpt><trkpt lat="44.620842177058215" lon="7.356143118633567"><ele>554.0</ele><time>2026-05-01T14:52:03Z</time></trkpt><trkpt lat="44.62092504763241" lon="7.356214336545409"><ele>554.0</ele><time>2026-05-01T14:52:04Z</time></trkpt><trkpt lat="44.621006028519886" lon="7.3562849945677895"><ele>554.0</ele><time>2026-05-01T14:52:05Z</time></trkpt><trkpt lat="44.62107980671569" lon="7.356343554006437"><ele>554.0</ele><time>2026-05-01T14:52:06Z</time></trkpt><trkpt lat="44.62114366700203" lon="7.356400787968756"><ele>554.0</ele><time>2026-05-01T14:52:07Z</time></trkpt><trkpt lat="44.6212056912316" lon="7.356455219522738"><ele>551.6666666666666</ele><time>2026-05-01T14:52:08Z</time></trkpt><trkpt lat="44.62128795184999" lon="7.356559383733055"><ele>549.3333333333333</ele><time>2026-05-01T14:52:10Z</time></trkpt><trkpt lat="44.621295504150304" lon="7.3566637091811025"><ele>547.0</ele><time>2026-05-01T14:52:11Z</time></trkpt><trkpt lat="44.62133736990361" lon="7.356755863135192"><ele>544.6666666666666</ele><time>2026-05-01T14:52:12Z</time></trkpt><trkpt lat="44.621364975662715" lon="7.356854388341824"><ele>542.3333333333334</ele><time>2026-05-01T14:52:13Z</time></trkpt><trkpt lat="44.62139847822237" lon="7.356956267728225"><ele>540.0</ele><time>2026-05-01T14:52:14Z</time></trkpt><trkpt lat="44.621436568726324" lon="7.357041345860047"><ele>540.0</ele><time>2026-05-01T14:52:15Z</time></trkpt><trkpt lat="44.6214851460895" lon="7.357112209353442"><ele>540.0</ele><time>2026-05-01T14:52:16Z</time></trkpt><trkpt lat="44.62155117840879" lon="7.357176334983538"><ele>540.0</ele><time>2026-05-01T14:52:17.001Z</time></trkpt><trkpt lat="44.621609580153304" lon="7.357212422693665"><ele>540.0</ele><time>2026-05-01T14:52:18.001Z</time></trkpt><trkpt lat="44.621682889518496" lon="7.3572411599892495"><ele>540.0</ele><time>2026-05-01T14:52:19.001Z</time></trkpt><trkpt lat="44.62174707380474" lon="7.357239428273256"><ele>540.0</ele><time>2026-05-01T14:52:20.001Z</time></trkpt><trkpt lat="44.62186145865038" lon="7.357191279928761"><ele>540.0</ele><time>2026-05-01T14:52:22.001Z</time></trkpt><trkpt lat="44.621968563724536" lon="7.357146475103617"><ele>540.0</ele><time>2026-05-01T14:52:24.001Z</time></trkpt><trkpt lat="44.622093728786346" lon="7.357120074729827"><ele>540.0</ele><time>2026-05-01T14:52:26.001Z</time></trkpt><trkpt lat="44.62216353839531" lon="7.357120845807971"><ele>540.0</ele><time>2026-05-01T14:52:27.001Z</time></trkpt><trkpt lat="44.62222776424756" lon="7.357139136276723"><ele>540.0</ele><time>2026-05-01T14:52:28.001Z</time></trkpt><trkpt lat="44.62229034180932" lon="7.357217499768375"><ele>538.0</ele><time>2026-05-01T14:52:29.001Z</time></trkpt><trkpt lat="44.62237487915433" lon="7.357304724402812"><ele>536.0</ele><time>2026-05-01T14:52:31.001Z</time></trkpt><trkpt lat="44.62244523755523" lon="7.357412643750159"><ele>534.0</ele><time>2026-05-01T14:52:33.001Z</time></trkpt><trkpt lat="44.622514611990375" lon="7.3575236416512375"><ele>532.0</ele><time>2026-05-01T14:52:35.001Z</time></trkpt><trkpt lat="44.622582947174905" lon="7.3576499288014885"><ele>530.0</ele><time>2026-05-01T14:52:37.001Z</time></trkpt><trkpt lat="44.62265661817825" lon="7.357791655050675"><ele>529.9999999999999</ele><time>2026-05-01T14:52:39.001Z</time></trkpt><trkpt lat="44.62269611901167" lon="7.357860539204089"><ele>530.0</ele><time>2026-05-01T14:52:40.001Z</time></trkpt><trkpt lat="44.622740385732655" lon="7.357931184546008"><ele>530.0</ele><time>2026-05-01T14:52:41.001Z</time></trkpt><trkpt lat="44.622791078759036" lon="7.358007713141642"><ele>530.0</ele><time>2026-05-01T14:52:42.001Z</time></trkpt><trkpt lat="44.622840717114684" lon="7.358093173394132"><ele>530.0</ele><time>2026-05-01T14:52:43.001Z</time></trkpt><trkpt lat="44.62289512245095" lon="7.358178204701094"><ele>529.9999999999999</ele><time>2026-05-01T14:52:44.001Z</time></trkpt><trkpt lat="44.62295550000659" lon="7.358261850375073"><ele>530.0</ele><time>2026-05-01T14:52:45.001Z</time></trkpt><trkpt lat="44.62301786539951" lon="7.358345330713518"><ele>527.6</ele><time>2026-05-01T14:52:46.001Z</time></trkpt><trkpt lat="44.6230912872466" lon="7.358424218402212"><ele>525.2</ele><time>2026-05-01T14:52:47.001Z</time></trkpt><trkpt lat="44.62316941745781" lon="7.358502076304755"><ele>522.8</ele><time>2026-05-01T14:52:48.001Z</time></trkpt><trkpt lat="44.6232498436129" lon="7.3585633314068515"><ele>520.4</ele><time>2026-05-01T14:52:49.001Z</time></trkpt><trkpt lat="44.62334075853693" lon="7.358625758322063"><ele>518.0</ele><time>2026-05-01T14:52:50.002Z</time></trkpt><trkpt lat="44.62343408415437" lon="7.3586865754557"><ele>518.0</ele><time>2026-05-01T14:52:51.002Z</time></trkpt><trkpt lat="44.62352353654217" lon="7.358746954305225"><ele>518.0</ele><time>2026-05-01T14:52:52.002Z</time></trkpt><trkpt lat="44.62359317256262" lon="7.358798867957913"><ele>518.0</ele><time>2026-05-01T14:52:53.002Z</time></trkpt><trkpt lat="44.62366347792691" lon="7.358843486763738"><ele>518.0</ele><time>2026-05-01T14:52:54.002Z</time></trkpt><trkpt lat="44.62372286842518" lon="7.358885163531318"><ele>518.0</ele><time>2026-05-01T14:52:55.002Z</time></trkpt><trkpt lat="44.623788454052814" lon="7.35892829079334"><ele>518.0</ele><time>2026-05-01T14:52:56.002Z</time></trkpt><trkpt lat="44.623824615880736" lon="7.359003928842853"><ele>515.8333333333333</ele><time>2026-05-01T14:52:57.002Z</time></trkpt><trkpt lat="44.623856202142534" lon="7.359081548406687"><ele>513.6666666666666</ele><time>2026-05-01T14:52:58.002Z</time></trkpt><trkpt lat="44.62388521938644" lon="7.359178929255839"><ele>511.5</ele><time>2026-05-01T14:52:59.002Z</time></trkpt><trkpt lat="44.62392288244579" lon="7.359277160021617"><ele>509.33333333333337</ele><time>2026-05-01T14:53:00.002Z</time></trkpt><trkpt lat="44.623953737887405" lon="7.359389798192392"><ele>507.1666666666667</ele><time>2026-05-01T14:53:01.002Z</time></trkpt><trkpt lat="44.623991548026105" lon="7.359505383693536"><ele>505.0</ele><time>2026-05-01T14:53:02.002Z</time></trkpt><trkpt lat="44.62403202977182" lon="7.359619663417986"><ele>504.0</ele><time>2026-05-01T14:53:03.002Z</time></trkpt><trkpt lat="44.624074354165636" lon="7.359735795146714"><ele>503.0</ele><time>2026-05-01T14:53:04.002Z</time></trkpt><trkpt lat="44.624116044256084" lon="7.35985759352413"><ele>502.0</ele><time>2026-05-01T14:53:05.002Z</time></trkpt><trkpt lat="44.62414895490354" lon="7.359985134085376"><ele>501.0</ele><time>2026-05-01T14:53:06.002Z</time></trkpt><trkpt lat="44.62415945799756" lon="7.360131095067614"><ele>500.0</ele><time>2026-05-01T14:53:07.002Z</time></trkpt><trkpt lat="44.624175586255845" lon="7.3602734227637665"><ele>500.0</ele><time>2026-05-01T14:53:08.002Z</time></trkpt><trkpt lat="44.624200307614224" lon="7.360425768681752"><ele>500.0</ele><time>2026-05-01T14:53:09.002Z</time></trkpt><trkpt lat="44.6242231227855" lon="7.360570860242468"><ele>500.0</ele><time>2026-05-01T14:53:10.002Z</time></trkpt><trkpt lat="44.62426299481855" lon="7.360704329511535"><ele>500.0</ele><time>2026-05-01T14:53:11.002Z</time></trkpt><trkpt lat="44.62432005986465" lon="7.360825694092919"><ele>500.0</ele><time>2026-05-01T14:53:12.002Z</time></trkpt><trkpt lat="44.62440088588566" lon="7.360923200005899"><ele>496.75</ele><time>2026-05-01T14:53:13.002Z</time></trkpt><trkpt lat="44.62448667636863" lon="7.361012524261444"><ele>493.5</ele><time>2026-05-01T14:53:14.002Z</time></trkpt><trkpt lat="44.62458658884134" lon="7.361098768457781"><ele>490.25</ele><time>2026-05-01T14:53:15.002Z</time></trkpt><trkpt lat="44.62468013271426" lon="7.361188487447645"><ele>487.0</ele><time>2026-05-01T14:53:16.002Z</time></trkpt><trkpt lat="44.624768336215844" lon="7.361299884305604"><ele>486.8</ele><time>2026-05-01T14:53:17.002Z</time></trkpt><trkpt lat="44.62485458123832" lon="7.361411347503863"><ele>486.6</ele><time>2026-05-01T14:53:18.002Z</time></trkpt><trkpt lat="44.624941609362374" lon="7.36152342253774"><ele>486.40000000000003</ele><time>2026-05-01T14:53:19.002Z</time></trkpt><trkpt lat="44.625026432111305" lon="7.361629211613044"><ele>486.20000000000005</ele><time>2026-05-01T14:53:20.002Z</time></trkpt><trkpt lat="44.625097778654386" lon="7.36171396495907"><ele>486.0</ele><time>2026-05-01T14:53:21.002Z</time></trkpt><trkpt lat="44.62514676050055" lon="7.361783762654249"><ele>486.0</ele><time>2026-05-01T14:53:22.002Z</time></trkpt><trkpt lat="44.62516933981655" lon="7.361883805034922"><ele>486.0</ele><time>2026-05-01T14:53:23.003Z</time></trkpt><trkpt lat="44.62520340650287" lon="7.361969276442351"><ele>486.0</ele><time>2026-05-01T14:53:24.003Z</time></trkpt><trkpt lat="44.62524572971957" lon="7.362118199873223"><ele>486.0</ele><time>2026-05-01T14:53:26.003Z</time></trkpt><trkpt lat="44.625271348565256" lon="7.362264057137375"><ele>486.0</ele><time>2026-05-01T14:53:28.003Z</time></trkpt><trkpt lat="44.62529066782078" lon="7.362418614576039"><ele>485.1666666666667</ele><time>2026-05-01T14:53:30.003Z</time></trkpt><trkpt lat="44.62531086943951" lon="7.362581604371645"><ele>484.33333333333337</ele><time>2026-05-01T14:53:32.003Z</time></trkpt><trkpt lat="44.625331665477056" lon="7.362673035439951"><ele>483.5</ele><time>2026-05-01T14:53:33.003Z</time></trkpt><trkpt lat="44.62533531210207" lon="7.362762306783876"><ele>482.6666666666667</ele><time>2026-05-01T14:53:34.003Z</time></trkpt><trkpt lat="44.62534005177876" lon="7.362854947251706"><ele>481.83333333333337</ele><time>2026-05-01T14:53:35.003Z</time></trkpt><trkpt lat="44.62534809268434" lon="7.362956863548356"><ele>481.0</ele><time>2026-05-01T14:53:36.003Z</time></trkpt><trkpt lat="44.62534432594982" lon="7.363057603442697"><ele>479.1666666666667</ele><time>2026-05-01T14:53:37.003Z</time></trkpt><trkpt lat="44.6253515204244" lon="7.363162436541813"><ele>477.33333333333337</ele><time>2026-05-01T14:53:38.003Z</time></trkpt><trkpt lat="44.625354578571205" lon="7.363272116658036"><ele>475.5</ele><time>2026-05-01T14:53:39.003Z</time></trkpt><trkpt lat="44.6253621447844" lon="7.363386825004386"><ele>473.66666666666663</ele><time>2026-05-01T14:53:40.003Z</time></trkpt><trkpt lat="44.625376682700676" lon="7.36348398016644"><ele>471.8333333333333</ele><time>2026-05-01T14:53:41.003Z</time></trkpt><trkpt lat="44.62541238497003" lon="7.363652461539981"><ele>470.0</ele><time>2026-05-01T14:53:43.003Z</time></trkpt><trkpt lat="44.62543055937545" lon="7.3638148019851775"><ele>469.49999999999994</ele><time>2026-05-01T14:53:45.003Z</time></trkpt><trkpt lat="44.62544390248707" lon="7.363964716647343"><ele>469.0</ele><time>2026-05-01T14:53:47.003Z</time></trkpt><trkpt lat="44.62548148524683" lon="7.364043032919087"><ele>468.5</ele><time>2026-05-01T14:53:48.003Z</time></trkpt><trkpt lat="44.62552443419608" lon="7.364109171536437"><ele>468.0</ele><time>2026-05-01T14:53:49.003Z</time></trkpt><trkpt lat="44.62557842892403" lon="7.364170858178484"><ele>467.49999999999994</ele><time>2026-05-01T14:53:50.003Z</time></trkpt><trkpt lat="44.62564188669449" lon="7.364248584865337"><ele>467.0</ele><time>2026-05-01T14:53:51.003Z</time></trkpt><trkpt lat="44.62570454029571" lon="7.36426399655836"><ele>467.0</ele><time>2026-05-01T14:53:52.003Z</time></trkpt><trkpt lat="44.62576402582845" lon="7.36432024096081"><ele>467.00000000000006</ele><time>2026-05-01T14:53:53.003Z</time></trkpt><trkpt lat="44.625848365347224" lon="7.3643675110135725"><ele>467.00000000000006</ele><time>2026-05-01T14:53:55.001Z</time></trkpt><trkpt lat="44.62596476149185" lon="7.364448733930717"><ele>467.0</ele><time>2026-05-01T14:53:57.001Z</time></trkpt><trkpt lat="44.62604698640733" lon="7.364363076719162"><ele>467.0</ele><time>2026-05-01T14:53:58.001Z</time></trkpt><trkpt lat="44.6261335301349" lon="7.364271806996091"><ele>465.8</ele><time>2026-05-01T14:54:00.001Z</time></trkpt><trkpt lat="44.626222316013674" lon="7.364190818391914"><ele>464.6</ele><time>2026-05-01T14:54:02.001Z</time></trkpt><trkpt lat="44.62628670263667" lon="7.364133513570032"><ele>463.40000000000003</ele><time>2026-05-01T14:54:04.001Z</time></trkpt><trkpt lat="44.62632281676437" lon="7.36425328372353"><ele>462.20000000000005</ele><time>2026-05-01T14:54:06Z</time></trkpt><trkpt lat="44.62639598760933" lon="7.364353132761426"><ele>461.0</ele><time>2026-05-01T14:54:08Z</time></trkpt><trkpt lat="44.62644385347267" lon="7.364430513678251"><ele>461.0</ele><time>2026-05-01T14:54:09Z</time></trkpt><trkpt lat="44.62648176505112" lon="7.364562030999063"><ele>461.0</ele><time>2026-05-01T14:54:12Z</time></trkpt><trkpt lat="44.626538838659606" lon="7.364612187074371"><ele>461.0</ele><time>2026-05-01T14:54:13Z</time></trkpt><trkpt lat="44.62665163796524" lon="7.364680360502035"><ele>461.0</ele><time>2026-05-01T14:54:15Z</time></trkpt><trkpt lat="44.6267011667538" lon="7.364737332158129"><ele>461.0</ele><time>2026-05-01T14:54:16Z</time></trkpt><trkpt lat="44.62680245040382" lon="7.364774847420003"><ele>460.6</ele><time>2026-05-01T14:54:18Z</time></trkpt><trkpt lat="44.62690695426989" lon="7.364756581997006"><ele>460.20000000000005</ele><time>2026-05-01T14:54:20.001Z</time></trkpt><trkpt lat="44.62702039319305" lon="7.36472907130203"><ele>459.79999999999995</ele><time>2026-05-01T14:54:22.001Z</time></trkpt><trkpt lat="44.62711951470809" lon="7.364763784485874"><ele>459.4</ele><time>2026-05-01T14:54:24.001Z</time></trkpt><trkpt lat="44.62717198579011" lon="7.364830152120449"><ele>459.0</ele><time>2026-05-01T14:54:25.001Z</time></trkpt><trkpt lat="44.627217759341065" lon="7.364896023636202"><ele>457.0</ele><time>2026-05-01T14:54:26.001Z</time></trkpt><trkpt lat="44.62725578246435" lon="7.364969153091249"><ele>455.0</ele><time>2026-05-01T14:54:27.001Z</time></trkpt><trkpt lat="44.62732684420678" lon="7.365101204076633"><ele>453.0</ele><time>2026-05-01T14:54:28.001Z</time></trkpt><trkpt lat="44.62743643896044" lon="7.365239867160253"><ele>451.0</ele><time>2026-05-01T14:54:29.001Z</time></trkpt><trkpt lat="44.62750888847357" lon="7.365376803771958"><ele>450.4</ele><time>2026-05-01T14:54:30.001Z</time></trkpt><trkpt lat="44.627558414880326" lon="7.365532671143942"><ele>449.8</ele><time>2026-05-01T14:54:31.001Z</time></trkpt><trkpt lat="44.62759356662324" lon="7.365677009700359"><ele>449.19999999999993</ele><time>2026-05-01T14:54:32.001Z</time></trkpt><trkpt lat="44.62762446447945" lon="7.36578646559257"><ele>448.59999999999997</ele><time>2026-05-01T14:54:33.001Z</time></trkpt><trkpt lat="44.62767990677575" lon="7.365890440816593"><ele>448.0</ele><time>2026-05-01T14:54:34.001Z</time></trkpt><trkpt lat="44.62775106624971" lon="7.3659620776855785"><ele>448.00000000000006</ele><time>2026-05-01T14:54:35.001Z</time></trkpt><trkpt lat="44.6278029845608" lon="7.3660323582363025"><ele>448.0</ele><time>2026-05-01T14:54:36.001Z</time></trkpt><trkpt lat="44.62786619606033" lon="7.366135769337931"><ele>448.0</ele><time>2026-05-01T14:54:38.001Z</time></trkpt><trkpt lat="44.627911749542" lon="7.366199326342702"><ele>448.0</ele><time>2026-05-01T14:54:54.001Z</time></trkpt><trkpt lat="44.627930506225084" lon="7.366315294474394"><ele>448.00000000000006</ele><time>2026-05-01T14:54:56.001Z</time></trkpt><trkpt lat="44.62790755437932" lon="7.3664743934088355"><ele>448.0</ele><time>2026-05-01T14:54:58.001Z</time></trkpt><trkpt lat="44.62789561912088" lon="7.3665883207965726"><ele>446.33333333333337</ele><time>2026-05-01T14:54:59.001Z</time></trkpt><trkpt lat="44.62788386744468" lon="7.366700936414363"><ele>444.6666666666667</ele><time>2026-05-01T14:55:00.001Z</time></trkpt><trkpt lat="44.62787400792066" lon="7.366795478342475"><ele>443.0</ele><time>2026-05-01T14:55:01.001Z</time></trkpt><trkpt lat="44.627865866380375" lon="7.366895927815976"><ele>441.33333333333337</ele><time>2026-05-01T14:55:02.001Z</time></trkpt><trkpt lat="44.627857003707625" lon="7.366998570740469"><ele>439.6666666666667</ele><time>2026-05-01T14:55:03.001Z</time></trkpt><trkpt lat="44.62785324608879" lon="7.367089824955758"><ele>438.0</ele><time>2026-05-01T14:55:04.001Z</time></trkpt><trkpt lat="44.62785193439045" lon="7.367259046038092"><ele>437.2</ele><time>2026-05-01T14:55:06.001Z</time></trkpt><trkpt lat="44.62785062005371" lon="7.367430624429414"><ele>436.4</ele><time>2026-05-01T14:55:08.001Z</time></trkpt><trkpt lat="44.6278498011209" lon="7.367612244668947"><ele>435.59999999999997</ele><time>2026-05-01T14:55:10.002Z</time></trkpt><trkpt lat="44.62785628239749" lon="7.367715842196743"><ele>434.79999999999995</ele><time>2026-05-01T14:55:11.002Z</time></trkpt><trkpt lat="44.6278637172111" lon="7.367840457237062"><ele>434.0</ele><time>2026-05-01T14:55:12.002Z</time></trkpt><trkpt lat="44.627876431627406" lon="7.36798243756442"><ele>433.2</ele><time>2026-05-01T14:55:13.002Z</time></trkpt><trkpt lat="44.627895896779435" lon="7.3681316342297105"><ele>432.4</ele><time>2026-05-01T14:55:14.002Z</time></trkpt><trkpt lat="44.62791561292459" lon="7.368272037151214"><ele>431.6</ele><time>2026-05-01T14:55:15.002Z</time></trkpt><trkpt lat="44.627941989335746" lon="7.368415806897305"><ele>430.8</ele><time>2026-05-01T14:55:16.002Z</time></trkpt><trkpt lat="44.62796840068277" lon="7.368550997386394"><ele>430.0</ele><time>2026-05-01T14:55:17.002Z</time></trkpt><trkpt lat="44.62800295310854" lon="7.368697755617126"><ele>430.0</ele><time>2026-05-01T14:55:18.002Z</time></trkpt><trkpt lat="44.6280328873341" lon="7.36882792520137"><ele>430.0</ele><time>2026-05-01T14:55:19.002Z</time></trkpt><trkpt lat="44.62806078328004" lon="7.368966188159585"><ele>430.0</ele><time>2026-05-01T14:55:20.002Z</time></trkpt><trkpt lat="44.62808855318068" lon="7.369108655015415"><ele>430.0</ele><time>2026-05-01T14:55:21.002Z</time></trkpt><trkpt lat="44.628126747279495" lon="7.369256111855418"><ele>430.0</ele><time>2026-05-01T14:55:22.002Z</time></trkpt><trkpt lat="44.62815385406692" lon="7.369387509725503"><ele>429.50000000000006</ele><time>2026-05-01T14:55:23.002Z</time></trkpt><trkpt lat="44.62818590047955" lon="7.369516673033872"><ele>429.0</ele><time>2026-05-01T14:55:24.002Z</time></trkpt><trkpt lat="44.628220143586745" lon="7.369644858956416"><ele>428.5</ele><time>2026-05-01T14:55:25.002Z</time></trkpt><trkpt lat="44.62825521646905" lon="7.3697582047931105"><ele>428.0</ele><time>2026-05-01T14:55:26.002Z</time></trkpt><trkpt lat="44.62828697576253" lon="7.369855103370958"><ele>427.50000000000006</ele><time>2026-05-01T14:55:27.002Z</time></trkpt><trkpt lat="44.62831401647873" lon="7.36996892118175"><ele>427.0</ele><time>2026-05-01T14:55:28.002Z</time></trkpt><trkpt lat="44.62833724931336" lon="7.370077331667506"><ele>426.14285714285717</ele><time>2026-05-01T14:55:29.002Z</time></trkpt><trkpt lat="44.62833779884715" lon="7.370178998301181"><ele>425.2857142857143</ele><time>2026-05-01T14:55:30.002Z</time></trkpt><trkpt lat="44.62834294193988" lon="7.370283240148551"><ele>424.42857142857144</ele><time>2026-05-01T14:55:31.002Z</time></trkpt><trkpt lat="44.6283641671335" lon="7.370381690148015"><ele>423.57142857142856</ele><time>2026-05-01T14:55:32.002Z</time></trkpt><trkpt lat="44.628407402375494" lon="7.370453234285841"><ele>422.7142857142857</ele><time>2026-05-01T14:55:33.002Z</time></trkpt><trkpt lat="44.628470531581975" lon="7.3705000694774405"><ele>421.8571428571429</ele><time>2026-05-01T14:55:34.002Z</time></trkpt><trkpt lat="44.62854046592091" lon="7.3704900784055205"><ele>421.0</ele><time>2026-05-01T14:55:35.002Z</time></trkpt><trkpt lat="44.62862002274634" lon="7.370557655969097"><ele>420.1666666666667</ele><time>2026-05-01T14:55:36.002Z</time></trkpt><trkpt lat="44.62869122312139" lon="7.370614927614552"><ele>419.33333333333337</ele><time>2026-05-01T14:55:37.002Z</time></trkpt><trkpt lat="44.62876103083403" lon="7.370669274669794"><ele>418.5</ele><time>2026-05-01T14:55:38.002Z</time></trkpt><trkpt lat="44.628831376420884" lon="7.37072445661939"><ele>417.66666666666663</ele><time>2026-05-01T14:55:39.002Z</time></trkpt><trkpt lat="44.6289014811732" lon="7.370781499952176"><ele>416.8333333333333</ele><time>2026-05-01T14:55:40.002Z</time></trkpt><trkpt lat="44.628971989928125" lon="7.370842168008605"><ele>416.0</ele><time>2026-05-01T14:55:41.002Z</time></trkpt><trkpt lat="44.62904469189854" lon="7.370903173607786"><ele>416.0</ele><time>2026-05-01T14:55:42.002Z</time></trkpt><trkpt lat="44.629118364286825" lon="7.370962671652504"><ele>416.0</ele><time>2026-05-01T14:55:43.002Z</time></trkpt><trkpt lat="44.629194649855044" lon="7.371025745127674"><ele>416.0</ele><time>2026-05-01T14:55:44.002Z</time></trkpt><trkpt lat="44.62927762769847" lon="7.371095151461938"><ele>416.0</ele><time>2026-05-01T14:55:45.002Z</time></trkpt><trkpt lat="44.62935657752045" lon="7.3711644010775155"><ele>416.0</ele><time>2026-05-01T14:55:46.002Z</time></trkpt><trkpt lat="44.629430949762" lon="7.371233623534505"><ele>415.0</ele><time>2026-05-01T14:55:47.002Z</time></trkpt><trkpt lat="44.62951004297847" lon="7.371301393589956"><ele>414.0</ele><time>2026-05-01T14:55:48.002Z</time></trkpt><trkpt lat="44.62959151274453" lon="7.3713678845536705"><ele>413.0</ele><time>2026-05-01T14:55:49.002Z</time></trkpt><trkpt lat="44.62967023956051" lon="7.371436010792448"><ele>412.0</ele><time>2026-05-01T14:55:50.002Z</time></trkpt><trkpt lat="44.6297538829348" lon="7.371506712950347"><ele>411.0</ele><time>2026-05-01T14:55:51.002Z</time></trkpt><trkpt lat="44.62983724586778" lon="7.3715764599185984"><ele>410.4</ele><time>2026-05-01T14:55:52.002Z</time></trkpt><trkpt lat="44.629920048978434" lon="7.3716465183853295"><ele>409.8</ele><time>2026-05-01T14:55:53.003Z</time></trkpt><trkpt lat="44.63000402799579" lon="7.371717022644501"><ele>409.2</ele><time>2026-05-01T14:55:54.003Z</time></trkpt><trkpt lat="44.6300882239991" lon="7.3717870722951275"><ele>408.59999999999997</ele><time>2026-05-01T14:55:55.003Z</time></trkpt><trkpt lat="44.630166085154954" lon="7.371853116616125"><ele>408.0</ele><time>2026-05-01T14:55:56.003Z</time></trkpt><trkpt lat="44.63025471694503" lon="7.37192982506338"><ele>406.79999999999995</ele><time>2026-05-01T14:55:57.003Z</time></trkpt><trkpt lat="44.63033558208137" lon="7.372000397386859"><ele>405.6</ele><time>2026-05-01T14:55:58.003Z</time></trkpt><trkpt lat="44.63042391051793" lon="7.372083432890891"><ele>404.4</ele><time>2026-05-01T14:55:59.003Z</time></trkpt><trkpt lat="44.63050495932651" lon="7.372160980841402"><ele>403.20000000000005</ele><time>2026-05-01T14:56:00Z</time></trkpt><trkpt lat="44.63058889451865" lon="7.37223511172696"><ele>402.0</ele><time>2026-05-01T14:56:01Z</time></trkpt><trkpt lat="44.63067336468778" lon="7.372303376520109"><ele>401.8</ele><time>2026-05-01T14:56:02Z</time></trkpt><trkpt lat="44.630756597665815" lon="7.372371377814478"><ele>401.6</ele><time>2026-05-01T14:56:03Z</time></trkpt><trkpt lat="44.63084511410213" lon="7.372434257619409"><ele>401.40000000000003</ele><time>2026-05-01T14:56:04Z</time></trkpt><trkpt lat="44.63094155523024" lon="7.372489109994157"><ele>401.20000000000005</ele><time>2026-05-01T14:56:05Z</time></trkpt><trkpt lat="44.63104302305631" lon="7.372536155807343"><ele>401.0</ele><time>2026-05-01T14:56:06Z</time></trkpt><trkpt lat="44.631141673775154" lon="7.372578379261945"><ele>399.4</ele><time>2026-05-01T14:56:07Z</time></trkpt><trkpt lat="44.631243908945855" lon="7.372610066801033"><ele>397.8</ele><time>2026-05-01T14:56:08Z</time></trkpt><trkpt lat="44.63134610286846" lon="7.372641409075083"><ele>396.2</ele><time>2026-05-01T14:56:09Z</time></trkpt><trkpt lat="44.63145376328778" lon="7.372670425150007"><ele>394.59999999999997</ele><time>2026-05-01T14:56:10Z</time></trkpt><trkpt lat="44.63155106111066" lon="7.372701185854131"><ele>393.0</ele><time>2026-05-01T14:56:11Z</time></trkpt><trkpt lat="44.63165384835539" lon="7.37272596419386"><ele>393.0</ele><time>2026-05-01T14:56:12Z</time></trkpt><trkpt lat="44.63175692181385" lon="7.372750440641563"><ele>393.0</ele><time>2026-05-01T14:56:13Z</time></trkpt><trkpt lat="44.63185991304528" lon="7.372791560706426"><ele>393.0</ele><time>2026-05-01T14:56:14Z</time></trkpt><trkpt lat="44.63195797738351" lon="7.372837742008331"><ele>393.0</ele><time>2026-05-01T14:56:15Z</time></trkpt><trkpt lat="44.63205616069324" lon="7.372892604922166"><ele>393.0</ele><time>2026-05-01T14:56:16Z</time></trkpt><trkpt lat="44.63212730044739" lon="7.372966510850242"><ele>391.59999999999997</ele><time>2026-05-01T14:56:17Z</time></trkpt><trkpt lat="44.63221105155998" lon="7.373037610820515"><ele>390.2</ele><time>2026-05-01T14:56:18Z</time></trkpt><trkpt lat="44.63228938460371" lon="7.3731279667565275"><ele>388.8</ele><time>2026-05-01T14:56:19Z</time></trkpt><trkpt lat="44.63237482626332" lon="7.373201225869137"><ele>387.4</ele><time>2026-05-01T14:56:20Z</time></trkpt><trkpt lat="44.63245125611353" lon="7.373261850525304"><ele>386.0</ele><time>2026-05-01T14:56:21Z</time></trkpt><trkpt lat="44.63252891072849" lon="7.373325923866815"><ele>386.0</ele><time>2026-05-01T14:56:22Z</time></trkpt><trkpt lat="44.632617798705574" lon="7.373417132393194"><ele>386.0</ele><time>2026-05-01T14:56:23Z</time></trkpt><trkpt lat="44.63270240875351" lon="7.373500216191656"><ele>386.0</ele><time>2026-05-01T14:56:24Z</time></trkpt><trkpt lat="44.632795203215196" lon="7.373581296910712"><ele>386.0</ele><time>2026-05-01T14:56:25Z</time></trkpt><trkpt lat="44.63288441971388" lon="7.373666579869776"><ele>386.0</ele><time>2026-05-01T14:56:26Z</time></trkpt><trkpt lat="44.632988126789414" lon="7.373747489402923"><ele>385.25</ele><time>2026-05-01T14:56:27Z</time></trkpt><trkpt lat="44.63309178583976" lon="7.3738403154537595"><ele>384.5</ele><time>2026-05-01T14:56:28Z</time></trkpt><trkpt lat="44.63321233846135" lon="7.3739433168667965"><ele>383.75</ele><time>2026-05-01T14:56:29Z</time></trkpt><trkpt lat="44.63332194438968" lon="7.374039658556714"><ele>383.0</ele><time>2026-05-01T14:56:30Z</time></trkpt><trkpt lat="44.6334607355652" lon="7.374140734846624"><ele>383.33333333333337</ele><time>2026-05-01T14:56:31.001Z</time></trkpt><trkpt lat="44.6336394377889" lon="7.374282025855224"><ele>383.6666666666667</ele><time>2026-05-01T14:56:32.001Z</time></trkpt><trkpt lat="44.63381205941756" lon="7.3744271472742975"><ele>384.0</ele><time>2026-05-01T14:56:33.001Z</time></trkpt><trkpt lat="44.6339685228485" lon="7.374563041884793"><ele>383.3333333333333</ele><time>2026-05-01T14:56:34.001Z</time></trkpt><trkpt lat="44.634125467398256" lon="7.374692000473484"><ele>382.66666666666663</ele><time>2026-05-01T14:56:35.001Z</time></trkpt><trkpt lat="44.63428136401735" lon="7.374827424134593"><ele>382.0</ele><time>2026-05-01T14:56:36.001Z</time></trkpt><trkpt lat="44.63444533277777" lon="7.374966083768759"><ele>383.66666666666663</ele><time>2026-05-01T14:56:37.001Z</time></trkpt><trkpt lat="44.63462358009907" lon="7.375107025387212"><ele>385.3333333333333</ele><time>2026-05-01T14:56:38.001Z</time></trkpt><trkpt lat="44.63484313222885" lon="7.37525837539286"><ele>387.0</ele><time>2026-05-01T14:56:39.001Z</time></trkpt><trkpt lat="44.63505227191843" lon="7.37542658274508"><ele>385.5</ele><time>2026-05-01T14:56:40.001Z</time></trkpt><trkpt lat="44.63529763699229" lon="7.375601907612979"><ele>384.0</ele><time>2026-05-01T14:56:41.001Z</time></trkpt><trkpt lat="44.635520539828455" lon="7.375745620890267"><ele>384.0</ele><time>2026-05-01T14:56:42.001Z</time></trkpt><trkpt lat="44.63572749144137" lon="7.375895770217755"><ele>384.0</ele><time>2026-05-01T14:56:43.001Z</time></trkpt><trkpt lat="44.63592465126397" lon="7.376035484975992"><ele>384.0</ele><time>2026-05-01T14:56:44.001Z</time></trkpt><trkpt lat="44.63611762885872" lon="7.37616198995274"><ele>384.0</ele><time>2026-05-01T14:56:45.001Z</time></trkpt><trkpt lat="44.63629242741651" lon="7.376264893304403"><ele>384.0</ele><time>2026-05-01T14:56:46.001Z</time></trkpt><trkpt lat="44.636460481059096" lon="7.3763470140713805"><ele>383.3333333333333</ele><time>2026-05-01T14:56:47.001Z</time></trkpt><trkpt lat="44.63663643372771" lon="7.3764020429398744"><ele>382.66666666666663</ele><time>2026-05-01T14:56:48.001Z</time></trkpt><trkpt lat="44.63681295494646" lon="7.376422280045666"><ele>382.0</ele><time>2026-05-01T14:56:49.001Z</time></trkpt><trkpt lat="44.63698595141494" lon="7.37642542491958"><ele>382.0</ele><time>2026-05-01T14:56:50.001Z</time></trkpt><trkpt lat="44.63716631122775" lon="7.376395085932522"><ele>382.0</ele><time>2026-05-01T14:56:51.001Z</time></trkpt><trkpt lat="44.637354871708396" lon="7.376343969766497"><ele>382.0</ele><time>2026-05-01T14:56:52.001Z</time></trkpt><trkpt lat="44.637553420200234" lon="7.37627782445625"><ele>382.3333333333333</ele><time>2026-05-01T14:56:53.001Z</time></trkpt><trkpt lat="44.63775647601762" lon="7.3762089683182035"><ele>382.6666666666667</ele><time>2026-05-01T14:56:54.001Z</time></trkpt><trkpt lat="44.637969651325015" lon="7.376145072816847"><ele>383.0</ele><time>2026-05-01T14:56:55.001Z</time></trkpt><trkpt lat="44.638168187651" lon="7.376088602519682"><ele>383.33333333333337</ele><time>2026-05-01T14:56:56.001Z</time></trkpt><trkpt lat="44.63836702271415" lon="7.376031559298788"><ele>383.6666666666667</ele><time>2026-05-01T14:56:57.001Z</time></trkpt><trkpt lat="44.63856170652952" lon="7.37596660765753"><ele>384.0</ele><time>2026-05-01T14:56:58.001Z</time></trkpt><trkpt lat="44.638749511599784" lon="7.375896294576263"><ele>384.66666666666663</ele><time>2026-05-01T14:56:59.001Z</time></trkpt><trkpt lat="44.638922657128155" lon="7.375814549731226"><ele>385.3333333333333</ele><time>2026-05-01T14:57:00.001Z</time></trkpt><trkpt lat="44.63906931721756" lon="7.3757341036611335"><ele>386.0</ele><time>2026-05-01T14:57:01.001Z</time></trkpt><trkpt lat="44.63919738304602" lon="7.37566189404645"><ele>385.99999999999994</ele><time>2026-05-01T14:57:02.001Z</time></trkpt><trkpt lat="44.63931570718812" lon="7.375601890907"><ele>386.0</ele><time>2026-05-01T14:57:03.001Z</time></trkpt><trkpt lat="44.639404650710944" lon="7.375557080867501"><ele>386.0</ele><time>2026-05-01T14:57:04.001Z</time></trkpt><trkpt lat="44.63947752718005" lon="7.375522438213202"><ele>386.0</ele><time>2026-05-01T14:57:05.001Z</time></trkpt><trkpt lat="44.63954172457298" lon="7.3755126736108485"><ele>385.99999999999994</ele><time>2026-05-01T14:57:06.001Z</time></trkpt><trkpt lat="44.639608815172345" lon="7.375534846456691"><ele>386.0</ele><time>2026-05-01T14:57:07.001Z</time></trkpt><trkpt lat="44.63966745071814" lon="7.375586388463922"><ele>386.16666666666663</ele><time>2026-05-01T14:57:08.001Z</time></trkpt><trkpt lat="44.63970051367866" lon="7.375674240869825"><ele>386.3333333333333</ele><time>2026-05-01T14:57:09.001Z</time></trkpt><trkpt lat="44.639723086952934" lon="7.375769071057611"><ele>386.5</ele><time>2026-05-01T14:57:10.001Z</time></trkpt><trkpt lat="44.639751257042676" lon="7.375891056710061"><ele>386.66666666666663</ele><time>2026-05-01T14:57:11.001Z</time></trkpt><trkpt lat="44.639779674237865" lon="7.376015247108276"><ele>386.8333333333333</ele><time>2026-05-01T14:57:12.001Z</time></trkpt><trkpt lat="44.63980833158036" lon="7.37612411742686"><ele>387.0</ele><time>2026-05-01T14:57:13.001Z</time></trkpt><trkpt lat="44.639841919516506" lon="7.376233518963594"><ele>387.0</ele><time>2026-05-01T14:57:14.001Z</time></trkpt><trkpt lat="44.639878460845246" lon="7.376346253814678"><ele>387.0</ele><time>2026-05-01T14:57:15.001Z</time></trkpt><trkpt lat="44.63991791343108" lon="7.376453102208046"><ele>387.0</ele><time>2026-05-01T14:57:16.001Z</time></trkpt><trkpt lat="44.63996123868789" lon="7.376563480908078"><ele>387.0</ele><time>2026-05-01T14:57:17.002Z</time></trkpt><trkpt lat="44.640010476863246" lon="7.376670234682691"><ele>387.0</ele><time>2026-05-01T14:57:18.002Z</time></trkpt><trkpt lat="44.64007565594833" lon="7.376786525411363"><ele>386.75</ele><time>2026-05-01T14:57:19.002Z</time></trkpt><trkpt lat="44.64014844370359" lon="7.376908426000785"><ele>386.5</ele><time>2026-05-01T14:57:20.002Z</time></trkpt><trkpt lat="44.64022834857183" lon="7.377038630790577"><ele>386.25</ele><time>2026-05-01T14:57:21.002Z</time></trkpt><trkpt lat="44.64031804264345" lon="7.377162847827087"><ele>386.0</ele><time>2026-05-01T14:57:22.002Z</time></trkpt><trkpt lat="44.64041640047296" lon="7.377276071808238"><ele>384.75</ele><time>2026-05-01T14:57:23.002Z</time></trkpt><trkpt lat="44.640525976847464" lon="7.377389173884018"><ele>383.5</ele><time>2026-05-01T14:57:24.002Z</time></trkpt><trkpt lat="44.64064454939544" lon="7.377501840055625"><ele>382.25</ele><time>2026-05-01T14:57:25.002Z</time></trkpt><trkpt lat="44.64076503174073" lon="7.377618069006968"><ele>381.0</ele><time>2026-05-01T14:57:26.002Z</time></trkpt><trkpt lat="44.64088194180941" lon="7.377732854480214"><ele>381.0</ele><time>2026-05-01T14:57:27.002Z</time></trkpt><trkpt lat="44.64100793948409" lon="7.377846336386269"><ele>381.0</ele><time>2026-05-01T14:57:28.002Z</time></trkpt><trkpt lat="44.641153935756925" lon="7.377975605746414"><ele>381.0</ele><time>2026-05-01T14:57:29.002Z</time></trkpt><trkpt lat="44.64132975067915" lon="7.378143180915715"><ele>381.0</ele><time>2026-05-01T14:57:30.002Z</time></trkpt><trkpt lat="44.64151925806578" lon="7.378317917045641"><ele>381.0</ele><time>2026-05-01T14:57:31.002Z</time></trkpt><trkpt lat="44.641719351087836" lon="7.378512085145559"><ele>381.0</ele><time>2026-05-01T14:57:32.002Z</time></trkpt><trkpt lat="44.641940680697424" lon="7.378721243151625"><ele>381.0</ele><time>2026-05-01T14:57:33.002Z</time></trkpt><trkpt lat="44.64213872645878" lon="7.378904021518694"><ele>379.6666666666667</ele><time>2026-05-01T14:57:34.002Z</time></trkpt><trkpt lat="44.64231907567678" lon="7.37907114477373"><ele>378.33333333333337</ele><time>2026-05-01T14:57:35.002Z</time></trkpt><trkpt lat="44.64248800102996" lon="7.379227032158161"><ele>377.0</ele><time>2026-05-01T14:57:36.002Z</time></trkpt><trkpt lat="44.64264571994801" lon="7.3793712611678"><ele>377.0</ele><time>2026-05-01T14:57:37.002Z</time></trkpt><trkpt lat="44.64281104131652" lon="7.379510361280637"><ele>377.0</ele><time>2026-05-01T14:57:38.002Z</time></trkpt><trkpt lat="44.64297346802309" lon="7.379623920508393"><ele>377.0</ele><time>2026-05-01T14:57:39.002Z</time></trkpt><trkpt lat="44.643137082498555" lon="7.379744095866258"><ele>377.0</ele><time>2026-05-01T14:57:40.002Z</time></trkpt><trkpt lat="44.643296686697994" lon="7.379834876376504"><ele>377.0</ele><time>2026-05-01T14:57:41.002Z</time></trkpt><trkpt lat="44.643456198503486" lon="7.3799224364287594"><ele>377.0</ele><time>2026-05-01T14:57:42.002Z</time></trkpt><trkpt lat="44.64361364063255" lon="7.380007640468442"><ele>376.0</ele><time>2026-05-01T14:57:43.002Z</time></trkpt><trkpt lat="44.64375974683555" lon="7.380102498574369"><ele>375.0</ele><time>2026-05-01T14:57:44.002Z</time></trkpt><trkpt lat="44.643906706443865" lon="7.380189420164462"><ele>374.0</ele><time>2026-05-01T14:57:45.002Z</time></trkpt><trkpt lat="44.64405527660229" lon="7.38027464560981"><ele>374.0</ele><time>2026-05-01T14:57:46.002Z</time></trkpt><trkpt lat="44.64420193625363" lon="7.3803558973486325"><ele>374.0</ele><time>2026-05-01T14:57:47.002Z</time></trkpt><trkpt lat="44.64434814913815" lon="7.380445637125151"><ele>374.0</ele><time>2026-05-01T14:57:48.002Z</time></trkpt><trkpt lat="44.64449764267785" lon="7.380529949725339"><ele>374.0</ele><time>2026-05-01T14:57:49.002Z</time></trkpt><trkpt lat="44.64464691567157" lon="7.3806186268264975"><ele>374.0</ele><time>2026-05-01T14:57:50.002Z</time></trkpt><trkpt lat="44.644796507255315" lon="7.380707176774764"><ele>374.0</ele><time>2026-05-01T14:57:51.002Z</time></trkpt><trkpt lat="44.64494434488199" lon="7.380793189285135"><ele>374.0</ele><time>2026-05-01T14:57:52.002Z</time></trkpt><trkpt lat="44.6450947855922" lon="7.380877277339288"><ele>374.0</ele><time>2026-05-01T14:57:53.002Z</time></trkpt><trkpt lat="44.645243549055536" lon="7.380962547161751"><ele>374.0</ele><time>2026-05-01T14:57:54.002Z</time></trkpt><trkpt lat="44.64538411476687" lon="7.3810483719926125"><ele>373.75</ele><time>2026-05-01T14:57:55.002Z</time></trkpt><trkpt lat="44.645517179002056" lon="7.381125424887989"><ele>373.5</ele><time>2026-05-01T14:57:56.002Z</time></trkpt><trkpt lat="44.6456449666878" lon="7.381205672099715"><ele>373.25</ele><time>2026-05-01T14:57:57.002Z</time></trkpt><trkpt lat="44.645767145471716" lon="7.38127236797661"><ele>373.0</ele><time>2026-05-01T14:57:58.002Z</time></trkpt><trkpt lat="44.64588038593521" lon="7.381339690911778"><ele>372.5</ele><time>2026-05-01T14:57:59.002Z</time></trkpt><trkpt lat="44.64598818222012" lon="7.381405832870633"><ele>372.0</ele><time>2026-05-01T14:58:00.002Z</time></trkpt><trkpt lat="44.64609869676506" lon="7.381473333574101"><ele>371.5</ele><time>2026-05-01T14:58:01.002Z</time></trkpt><trkpt lat="44.64621770197481" lon="7.381542420479722"><ele>371.0</ele><time>2026-05-01T14:58:02.003Z</time></trkpt><trkpt lat="44.6463423357765" lon="7.381615724388756"><ele>371.0</ele><time>2026-05-01T14:58:03.003Z</time></trkpt><trkpt lat="44.646484064682895" lon="7.381699822761185"><ele>371.0</ele><time>2026-05-01T14:58:04.003Z</time></trkpt><trkpt lat="44.64663901115996" lon="7.381793034646457"><ele>371.0</ele><time>2026-05-01T14:58:05.003Z</time></trkpt><trkpt lat="44.64678846462393" lon="7.38187017125728"><ele>371.0</ele><time>2026-05-01T14:58:06Z</time></trkpt><trkpt lat="44.64694059338329" lon="7.38195492112337"><ele>371.0</ele><time>2026-05-01T14:58:07Z</time></trkpt><trkpt lat="44.64710233624493" lon="7.382035350035142"><ele>371.0</ele><time>2026-05-01T14:58:08Z</time></trkpt><trkpt lat="44.647255040687746" lon="7.382126558003263"><ele>371.0</ele><time>2026-05-01T14:58:09Z</time></trkpt><trkpt lat="44.64740968977189" lon="7.382221461011752"><ele>371.0</ele><time>2026-05-01T14:58:10Z</time></trkpt><trkpt lat="44.64757213669185" lon="7.38230523973028"><ele>371.0</ele><time>2026-05-01T14:58:11Z</time></trkpt><trkpt lat="44.647728647508856" lon="7.3823939396056"><ele>370.6666666666667</ele><time>2026-05-01T14:58:12Z</time></trkpt><trkpt lat="44.64788236652766" lon="7.382478566911509"><ele>370.3333333333333</ele><time>2026-05-01T14:58:13Z</time></trkpt><trkpt lat="44.6480412843629" lon="7.3825632860036965"><ele>370.0</ele><time>2026-05-01T14:58:14Z</time></trkpt><trkpt lat="44.64819735989714" lon="7.382642599195581"><ele>370.0</ele><time>2026-05-01T14:58:15Z</time></trkpt><trkpt lat="44.64835702592516" lon="7.3827299314823795"><ele>370.0</ele><time>2026-05-01T14:58:16Z</time></trkpt><trkpt lat="44.648527758678114" lon="7.382820395269794"><ele>370.0</ele><time>2026-05-01T14:58:17Z</time></trkpt><trkpt lat="44.64869948561594" lon="7.382916006569621"><ele>368.66666666666663</ele><time>2026-05-01T14:58:18Z</time></trkpt><trkpt lat="44.648879892171955" lon="7.383025110560328"><ele>367.3333333333333</ele><time>2026-05-01T14:58:19Z</time></trkpt><trkpt lat="44.649077340151564" lon="7.3831320217247205"><ele>366.0</ele><time>2026-05-01T14:58:20Z</time></trkpt><trkpt lat="44.64925424876291" lon="7.3832274591979"><ele>366.0</ele><time>2026-05-01T14:58:21Z</time></trkpt><trkpt lat="44.64941890341924" lon="7.383336241768449"><ele>366.0</ele><time>2026-05-01T14:58:22Z</time></trkpt><trkpt lat="44.64958289344173" lon="7.383429084829353"><ele>366.0</ele><time>2026-05-01T14:58:23Z</time></trkpt><trkpt lat="44.64973444101867" lon="7.38353912348579"><ele>365.3333333333333</ele><time>2026-05-01T14:58:24Z</time></trkpt><trkpt lat="44.64989322314494" lon="7.38360463963501"><ele>364.66666666666663</ele><time>2026-05-01T14:58:25Z</time></trkpt><trkpt lat="44.65004915800246" lon="7.383680376374711"><ele>364.0</ele><time>2026-05-01T14:58:26Z</time></trkpt><trkpt lat="44.650213394592384" lon="7.383748046158748"><ele>363.3333333333333</ele><time>2026-05-01T14:58:27Z</time></trkpt><trkpt lat="44.65037187980052" lon="7.383830880760992"><ele>362.6666666666667</ele><time>2026-05-01T14:58:28Z</time></trkpt><trkpt lat="44.6505322807694" lon="7.383908847112248"><ele>362.0</ele><time>2026-05-01T14:58:29Z</time></trkpt><trkpt lat="44.65068454285492" lon="7.383994925341492"><ele>361.6666666666667</ele><time>2026-05-01T14:58:30Z</time></trkpt><trkpt lat="44.650841066267866" lon="7.3840614154417485"><ele>361.3333333333333</ele><time>2026-05-01T14:58:31Z</time></trkpt><trkpt lat="44.650988148348496" lon="7.384131446239261"><ele>361.0</ele><time>2026-05-01T14:58:32Z</time></trkpt><trkpt lat="44.651128059278285" lon="7.3842298635994865"><ele>361.0</ele><time>2026-05-01T14:58:33Z</time></trkpt><trkpt lat="44.65127365947242" lon="7.384308374469279"><ele>361.0</ele><time>2026-05-01T14:58:34Z</time></trkpt><trkpt lat="44.65142250651926" lon="7.38436683481744"><ele>361.0</ele><time>2026-05-01T14:58:35Z</time></trkpt><trkpt lat="44.65156648386109" lon="7.384451419709846"><ele>361.0</ele><time>2026-05-01T14:58:36Z</time></trkpt><trkpt lat="44.65170642917217" lon="7.384524295599919"><ele>361.0</ele><time>2026-05-01T14:58:37Z</time></trkpt><trkpt lat="44.651849944902054" lon="7.384603875795032"><ele>361.0</ele><time>2026-05-01T14:58:38.001Z</time></trkpt><trkpt lat="44.65199580247854" lon="7.384683442388625"><ele>361.25</ele><time>2026-05-01T14:58:39.001Z</time></trkpt><trkpt lat="44.65214067295211" lon="7.384759882255593"><ele>361.5</ele><time>2026-05-01T14:58:40.001Z</time></trkpt><trkpt lat="44.652266605717244" lon="7.384832123409783"><ele>361.75</ele><time>2026-05-01T14:58:41.001Z</time></trkpt><trkpt lat="44.65237636110824" lon="7.384895272339956"><ele>362.0</ele><time>2026-05-01T14:58:42.001Z</time></trkpt><trkpt lat="44.65247057550369" lon="7.38494788184051"><ele>362.0</ele><time>2026-05-01T14:58:43.001Z</time></trkpt><trkpt lat="44.65255434825692" lon="7.384994063279141"><ele>362.0</ele><time>2026-05-01T14:58:44.001Z</time></trkpt><trkpt lat="44.652638446348604" lon="7.385040041853734"><ele>362.0</ele><time>2026-05-01T14:58:45.001Z</time></trkpt><trkpt lat="44.65272312843765" lon="7.385081583243412"><ele>362.0</ele><time>2026-05-01T14:58:46.001Z</time></trkpt><trkpt lat="44.6528063868738" lon="7.385124132859658"><ele>362.0</ele><time>2026-05-01T14:58:47.001Z</time></trkpt><trkpt lat="44.65289147883658" lon="7.385169991140341"><ele>361.5</ele><time>2026-05-01T14:58:48.001Z</time></trkpt><trkpt lat="44.652971832882244" lon="7.385214537197252"><ele>361.0</ele><time>2026-05-01T14:58:49.001Z</time></trkpt><trkpt lat="44.65304648971028" lon="7.385257816311516"><ele>360.5</ele><time>2026-05-01T14:58:50.001Z</time></trkpt><trkpt lat="44.65313310546339" lon="7.38530165998042"><ele>360.0</ele><time>2026-05-01T14:58:51.001Z</time></trkpt><trkpt lat="44.65322099388246" lon="7.385346952634911"><ele>359.5</ele><time>2026-05-01T14:58:52.001Z</time></trkpt><trkpt lat="44.653305345168846" lon="7.385383787962053"><ele>359.0</ele><time>2026-05-01T14:58:53.001Z</time></trkpt><trkpt lat="44.65339590749501" lon="7.385436766115557"><ele>359.0</ele><time>2026-05-01T14:58:54.001Z</time></trkpt><trkpt lat="44.653481612080085" lon="7.38549532717943"><ele>359.0</ele><time>2026-05-01T14:58:55.001Z</time></trkpt><trkpt lat="44.65357324193111" lon="7.385554353180083"><ele>359.0</ele><time>2026-05-01T14:58:56.001Z</time></trkpt><trkpt lat="44.65366340377662" lon="7.385616653177255"><ele>359.0</ele><time>2026-05-01T14:58:57.001Z</time></trkpt><trkpt lat="44.653751033558486" lon="7.385674661669158"><ele>359.0</ele><time>2026-05-01T14:58:58.001Z</time></trkpt><trkpt lat="44.653825025467974" lon="7.385747008408613"><ele>358.83333333333337</ele><time>2026-05-01T14:58:59.001Z</time></trkpt><trkpt lat="44.65388602839601" lon="7.385829519635696"><ele>358.6666666666667</ele><time>2026-05-01T14:59:00.001Z</time></trkpt><trkpt lat="44.65392822338273" lon="7.3859269687853235"><ele>358.5</ele><time>2026-05-01T14:59:01.001Z</time></trkpt><trkpt lat="44.65395866207271" lon="7.38603363674459"><ele>358.3333333333333</ele><time>2026-05-01T14:59:02.001Z</time></trkpt><trkpt lat="44.65395878223711" lon="7.386154241123134"><ele>358.16666666666663</ele><time>2026-05-01T14:59:03.001Z</time></trkpt><trkpt lat="44.65394387653152" lon="7.386270259113215"><ele>358.0</ele><time>2026-05-01T14:59:04.001Z</time></trkpt><trkpt lat="44.65391023747131" lon="7.386393886973021"><ele>357.75</ele><time>2026-05-01T14:59:05.001Z</time></trkpt><trkpt lat="44.65386842074958" lon="7.386516527398781"><ele>357.5</ele><time>2026-05-01T14:59:06.001Z</time></trkpt><trkpt lat="44.65382003969808" lon="7.386652133532951"><ele>357.25</ele><time>2026-05-01T14:59:07.001Z</time></trkpt><trkpt lat="44.653771175471924" lon="7.386804715688833"><ele>357.0</ele><time>2026-05-01T14:59:08.001Z</time></trkpt><trkpt lat="44.65370785302826" lon="7.386995098635637"><ele>357.0</ele><time>2026-05-01T14:59:09.001Z</time></trkpt><trkpt lat="44.65364691919523" lon="7.387149560827675"><ele>357.0</ele><time>2026-05-01T14:59:10.001Z</time></trkpt><trkpt lat="44.65358935931125" lon="7.387324957590351"><ele>357.0</ele><time>2026-05-01T14:59:11.001Z</time></trkpt><trkpt lat="44.65353218434283" lon="7.387461341461251"><ele>357.0</ele><time>2026-05-01T14:59:12.001Z</time></trkpt><trkpt lat="44.65349362763221" lon="7.38758053183682"><ele>357.0</ele><time>2026-05-01T14:59:13.001Z</time></trkpt><trkpt lat="44.65347255091426" lon="7.387716763810212"><ele>357.0</ele><time>2026-05-01T14:59:14.001Z</time></trkpt><trkpt lat="44.653501766082094" lon="7.387850006761144"><ele>357.0</ele><time>2026-05-01T14:59:15.001Z</time></trkpt><trkpt lat="44.65355696470355" lon="7.387970720192022"><ele>357.0</ele><time>2026-05-01T14:59:16.001Z</time></trkpt><trkpt lat="44.6535979515124" lon="7.388067235961292"><ele>357.0</ele><time>2026-05-01T14:59:17.001Z</time></trkpt><trkpt lat="44.65366347934535" lon="7.3881911715614015"><ele>356.8</ele><time>2026-05-01T14:59:18.001Z</time></trkpt><trkpt lat="44.653718748435146" lon="7.388301735581395"><ele>356.6</ele><time>2026-05-01T14:59:19.001Z</time></trkpt><trkpt lat="44.65378425710954" lon="7.388430283223874"><ele>356.40000000000003</ele><time>2026-05-01T14:59:20.001Z</time></trkpt><trkpt lat="44.65384899076132" lon="7.388555185787362"><ele>356.20000000000005</ele><time>2026-05-01T14:59:21.001Z</time></trkpt><trkpt lat="44.653908582768835" lon="7.388670593516168"><ele>356.0</ele><time>2026-05-01T14:59:22.001Z</time></trkpt><trkpt lat="44.65396297809722" lon="7.388775453942818"><ele>355.8</ele><time>2026-05-01T14:59:23.001Z</time></trkpt><trkpt lat="44.65402123124039" lon="7.388887930168351"><ele>355.6</ele><time>2026-05-01T14:59:24.001Z</time></trkpt><trkpt lat="44.654088285476355" lon="7.389020378441225"><ele>355.4</ele><time>2026-05-01T14:59:25.001Z</time></trkpt><trkpt lat="44.6541568318006" lon="7.389155855024194"><ele>355.2</ele><time>2026-05-01T14:59:26.002Z</time></trkpt><trkpt lat="44.654227228532115" lon="7.389262648639531"><ele>355.0</ele><time>2026-05-01T14:59:27.002Z</time></trkpt><trkpt lat="44.654285438776384" lon="7.3893991296176775"><ele>355.0</ele><time>2026-05-01T14:59:28.002Z</time></trkpt><trkpt lat="44.65435676854858" lon="7.389516718840579"><ele>355.0</ele><time>2026-05-01T14:59:29.002Z</time></trkpt><trkpt lat="44.654424232503956" lon="7.3896394303082955"><ele>355.0</ele><time>2026-05-01T14:59:30.002Z</time></trkpt><trkpt lat="44.65448333342225" lon="7.389788888380159"><ele>355.0</ele><time>2026-05-01T14:59:31.002Z</time></trkpt><trkpt lat="44.65455819754577" lon="7.38993761642815"><ele>354.25</ele><time>2026-05-01T14:59:32.002Z</time></trkpt><trkpt lat="44.654627355933684" lon="7.390089031750894"><ele>353.5</ele><time>2026-05-01T14:59:33.002Z</time></trkpt><trkpt lat="44.6546446072633" lon="7.390244586002626"><ele>352.75</ele><time>2026-05-01T14:59:34.002Z</time></trkpt><trkpt lat="44.65471193776576" lon="7.390402618117343"><ele>352.0</ele><time>2026-05-01T14:59:35.002Z</time></trkpt><trkpt lat="44.65478734645437" lon="7.39051497466291"><ele>352.0</ele><time>2026-05-01T14:59:36.002Z</time></trkpt><trkpt lat="44.65486473375249" lon="7.390648960784086"><ele>352.0</ele><time>2026-05-01T14:59:37.002Z</time></trkpt><trkpt lat="44.65495677388499" lon="7.390751177242271"><ele>352.0</ele><time>2026-05-01T14:59:38.002Z</time></trkpt><trkpt lat="44.65503522437904" lon="7.390868156787401"><ele>352.0</ele><time>2026-05-01T14:59:39.002Z</time></trkpt><trkpt lat="44.65512176476" lon="7.390989424738459"><ele>352.0</ele><time>2026-05-01T14:59:40.002Z</time></trkpt><trkpt lat="44.65521457807898" lon="7.39111220990235"><ele>352.0</ele><time>2026-05-01T14:59:41.002Z</time></trkpt><trkpt lat="44.65530556496204" lon="7.3912183676079035"><ele>352.0</ele><time>2026-05-01T14:59:42.002Z</time></trkpt><trkpt lat="44.65538497045714" lon="7.3913513953574235"><ele>352.0</ele><time>2026-05-01T14:59:43.002Z</time></trkpt><trkpt lat="44.655463358834595" lon="7.39150658580588"><ele>351.25</ele><time>2026-05-01T14:59:44.002Z</time></trkpt><trkpt lat="44.65556189953109" lon="7.391632695885024"><ele>350.5</ele><time>2026-05-01T14:59:45.002Z</time></trkpt><trkpt lat="44.65565477914017" lon="7.391730232492425"><ele>349.75</ele><time>2026-05-01T14:59:46.002Z</time></trkpt><trkpt lat="44.655760208024184" lon="7.391812794905021"><ele>349.0</ele><time>2026-05-01T14:59:47.002Z</time></trkpt><trkpt lat="44.6558558716932" lon="7.391913977759486"><ele>349.0</ele><time>2026-05-01T14:59:48.002Z</time></trkpt><trkpt lat="44.65597614639891" lon="7.392017333500425"><ele>349.0</ele><time>2026-05-01T14:59:49.002Z</time></trkpt><trkpt lat="44.656059878664436" lon="7.392110653652602"><ele>349.0</ele><time>2026-05-01T14:59:50.002Z</time></trkpt><trkpt lat="44.65614060612223" lon="7.392210696264251"><ele>349.0</ele><time>2026-05-01T14:59:51.002Z</time></trkpt><trkpt lat="44.65621449321655" lon="7.392307391365347"><ele>348.66666666666663</ele><time>2026-05-01T14:59:52.002Z</time></trkpt><trkpt lat="44.656298996637176" lon="7.392397826630235"><ele>348.3333333333333</ele><time>2026-05-01T14:59:53.002Z</time></trkpt><trkpt lat="44.656371212045556" lon="7.392490478902615"><ele>348.0</ele><time>2026-05-01T14:59:54.002Z</time></trkpt><trkpt lat="44.65644808740822" lon="7.392561964981405"><ele>347.6666666666667</ele><time>2026-05-01T14:59:55.002Z</time></trkpt><trkpt lat="44.656500914544246" lon="7.392643533824322"><ele>347.33333333333337</ele><time>2026-05-01T14:59:56.002Z</time></trkpt><trkpt lat="44.656542242672366" lon="7.39272490059344"><ele>347.0</ele><time>2026-05-01T14:59:57.002Z</time></trkpt><trkpt lat="44.65661602644881" lon="7.392863758072517"><ele>347.0</ele><time>2026-05-01T14:59:59.002Z</time></trkpt><trkpt lat="44.65665442209841" lon="7.392944572215641"><ele>347.0</ele><time>2026-05-01T15:00:00.002Z</time></trkpt><trkpt lat="44.65669589581009" lon="7.3930276091026474"><ele>347.0</ele><time>2026-05-01T15:00:01.002Z</time></trkpt><trkpt lat="44.65673385773808" lon="7.393117641178864"><ele>347.0</ele><time>2026-05-01T15:00:02.002Z</time></trkpt><trkpt lat="44.65676705981659" lon="7.3932121805321325"><ele>347.0</ele><time>2026-05-01T15:00:03.002Z</time></trkpt><trkpt lat="44.65679010587759" lon="7.393304812108936"><ele>347.0</ele><time>2026-05-01T15:00:04.002Z</time></trkpt><trkpt lat="44.65681297059949" lon="7.393400395944888"><ele>347.0</ele><time>2026-05-01T15:00:05.002Z</time></trkpt><trkpt lat="44.65683837500219" lon="7.393496792574378"><ele>346.83333333333337</ele><time>2026-05-01T15:00:06.002Z</time></trkpt><trkpt lat="44.656869679287354" lon="7.3936029792386995"><ele>346.6666666666667</ele><time>2026-05-01T15:00:07.002Z</time></trkpt><trkpt lat="44.65689872391738" lon="7.393718699851829"><ele>346.5</ele><time>2026-05-01T15:00:08.002Z</time></trkpt><trkpt lat="44.656919964432376" lon="7.393816296338056"><ele>346.3333333333333</ele><time>2026-05-01T15:00:09.002Z</time></trkpt><trkpt lat="44.6569437357257" lon="7.3939180930909085"><ele>346.16666666666663</ele><time>2026-05-01T15:00:10.002Z</time></trkpt><trkpt lat="44.65697098814609" lon="7.394039411598104"><ele>346.0</ele><time>2026-05-01T15:00:11.002Z</time></trkpt><trkpt lat="44.65699539720568" lon="7.394177031810756"><ele>343.0</ele><time>2026-05-01T15:00:12Z</time></trkpt><trkpt lat="44.65702038006732" lon="7.394291600195712"><ele>343.0</ele><time>2026-05-01T15:00:13Z</time></trkpt><trkpt lat="44.65704368662537" lon="7.394392696337972"><ele>343.0</ele><time>2026-05-01T15:00:14Z</time></trkpt><trkpt lat="44.657065551478134" lon="7.394508920290688"><ele>343.0</ele><time>2026-05-01T15:00:16Z</time></trkpt><trkpt lat="44.657032102599416" lon="7.394584275666448"><ele>343.0</ele><time>2026-05-01T15:00:18Z</time></trkpt><trkpt lat="44.65707296040726" lon="7.39466269493142"><ele>343.0</ele><time>2026-05-01T15:04:53.001Z</time></trkpt><trkpt lat="44.65704638094426" lon="7.3947493778737945"><ele>342.0</ele><time>2026-05-01T15:04:58.001Z</time></trkpt></trkseg></trk></gpx>